[[{"header":{"parameterUnit":"m.s-1","parameterCategory":1,"la1":30.6,"la2":28.766,"lo1":-90.7593,"lo2":-88.6598,"dy":0.0162,"dx":0.0183,"nx":116,"ny":114,"refTime":"2023-08-30T18:00:00:Z","depth":0,"parameterNumber":2,"parameterNumberName":"U-component_of_WINDS"},"data":[0.0,0.0,0.0,0.0,0.0,0.0,0.0,0.0,0.0,0.0,0.0,0.0,0.0,0.0,0.0,0.0,0.0,0.0,0.0,0.0,0.0,0.0,0.0,0.0,0.0,0.0,0.0,0.0,0.0,0.0,0.0,0.0,0.0,0.0,0.0,0.0,0.0,0.0,0.0,0.0,0.0,0.0,0.0,0.0,0.0,0.0,0.0,0.0,0.0,0.0,0.0,0.0,0.0,0.0,0.0,0.0,0.0,0.0,0.0,0.0,0.0,0.0,0.0,0.0,0.0,0.0,0.0,0.0,0.0,0.0,0.0,0.0,0.0,0.0,0.0,0.0,0.0,0.0,0.0,0.0,0.0,0.0,0.0,0.0,0.0,0.0,0.0,0.0,0.0,0.0,0.0,0.0,0.0,0.0,0.0,0.0,0.0,0.0,0.0,0.0,0.0,0.0,0.0,0.0,0.0,0.0,0.0,0.0,0.0,0.0,0.0,0.0,0.0,0.0,0.0,0.0,0.0,0.0,0.0,0.0,0.0,0.0,0.0,0.0,0.0,0.0,0.0,0.0,0.0,0.0,0.0,0.0,0.0,0.0,0.0,0.0,0.0,0.0,0.0,0.0,0.0,0.0,0.0,0.0,0.0,0.0,0.0,0.0,0.0,0.0,0.0,0.0,0.0,0.0,0.0,0.0,0.0,0.0,0.0,0.0,0.0,0.0,0.0,0.0,0.0,0.0,0.0,0.0,0.0,0.0,0.0,0.0,0.0,0.0,0.0,0.0,0.0,0.0,0.0,0.0,0.0,0.0,0.0,0.0,0.0,0.0,0.0,0.0,0.0,0.0,0.0,0.0,0.0,0.0,0.0,0.0,0.0,0.0,0.0,0.0,0.0,0.0,0.0,0.0,0.0,0.0,0.0,0.0,0.0,0.0,0.0,0.0,0.0,0.0,0.0,0.0,0.0,0.0,0.0,0.0,0.0,0.0,0.0,0.0,0.0,0.0,0.0,0.0,0.0,0.0,0.0,0.0,0.0,0.0,0.0,0.0,0.0,0.0,0.0,0.0,0.0,0.0,0.0,0.0,0.0,0.0,0.0,0.0,0.0,0.0,0.0,0.0,0.0,0.0,0.0,0.0,0.0,0.0,0.0,0.0,0.0,0.0,0.0,0.0,0.0,0.0,0.0,0.0,0.0,0.0,0.0,0.0,0.0,0.0,0.0,0.0,0.0,0.0,0.0,0.0,0.0,0.0,0.0,0.0,0.0,0.0,0.0,0.0,0.0,0.0,0.0,0.0,0.0,0.0,0.0,0.0,0.0,0.0,0.0,0.0,0.0,0.0,0.0,0.0,0.0,0.0,0.0,0.0,0.0,0.0,0.0,0.0,0.0,0.0,0.0,0.0,0.0,0.0,0.0,0.0,0.0,0.0,0.0,0.0,0.0,0.0,0.0,0.0,0.0,0.0,0.0,0.0,0.0,0.0,0.0,0.0,0.0,0.0,0.0,0.0,0.0,0.0,0.0,0.0,0.0,0.0,0.0,0.0,0.0,0.0,0.0,0.0,0.0,0.0,0.0,0.0,0.0,0.0,0.0,0.0,0.0,0.0,0.0,0.0,0.0,0.0,0.0,0.0,0.0,0.0,0.0,0.0,0.0,0.0,0.0,0.0,0.0,0.0,0.0,0.0,0.0,0.0,0.0,0.0,0.0,0.0,0.0,0.0,0.0,0.0,0.0,0.0,0.0,0.0,0.0,0.0,0.0,0.0,0.0,0.0,0.0,0.0,0.0,0.0,0.0,0.0,0.0,0.0,0.0,0.0,0.0,0.0,0.0,0.0,0.0,0.0,0.0,0.0,0.0,0.0,0.0,0.0,0.0,0.0,0.0,0.0,0.0,0.0,0.0,0.0,0.0,0.0,0.0,0.0,0.0,0.0,0.0,0.0,0.0,0.0,0.0,0.0,0.0,0.0,0.0,0.0,0.0,0.0,0.0,0.0,0.0,0.0,0.0,0.0,0.0,0.0,0.0,0.0,0.0,0.0,0.0,0.0,0.0,0.0,0.0,0.0,0.0,0.0,0.0,0.0,0.0,0.0,0.0,0.0,0.0,0.0,0.0,0.0,0.0,0.0,0.0,0.0,0.0,0.0,0.0,0.0,0.0,0.0,0.0,0.0,0.0,0.0,0.0,0.0,0.0,0.0,0.0,0.0,0.0,0.0,0.0,0.0,0.0,0.0,0.0,0.0,0.0,0.0,0.0,0.0,0.0,0.0,0.0,0.0,0.0,0.0,0.0,0.0,0.0,0.0,0.0,0.0,0.0,0.0,0.0,0.0,0.0,0.0,0.0,0.0,0.0,0.0,0.0,0.0,0.0,0.0,0.0,0.0,0.0,0.0,0.0,0.0,0.0,0.0,0.0,0.0,0.0,0.0,0.0,0.0,0.0,0.0,0.0,0.0,0.0,0.0,0.0,0.0,0.0,0.0,0.0,0.0,0.0,0.0,0.0,0.0,0.0,0.0,0.0,0.0,0.0,0.0,0.0,0.0,0.0,0.0,0.0,0.0,0.0,0.0,0.0,0.0,0.0,0.0,0.0,0.0,0.0,0.0,0.0,0.0,0.0,0.0,0.0,0.0,0.0,0.0,0.0,0.0,0.0,0.0,0.0,0.0,0.0,0.0,0.0,0.0,0.0,0.0,0.0,0.0,0.0,0.0,0.0,0.0,0.0,0.0,0.0,0.0,0.0,0.0,0.0,0.0,0.0,0.0,0.0,0.0,0.0,0.0,0.0,0.0,0.0,0.0,0.0,0.0,0.0,0.0,0.0,0.0,0.0,0.0,0.0,0.0,0.0,0.0,0.0,0.0,0.0,0.0,0.0,0.0,0.0,0.0,0.0,0.0,0.0,0.0,0.0,0.0,0.0,0.0,0.0,0.0,0.0,0.0,0.0,0.0,0.0,0.0,0.0,0.0,0.0,0.0,0.0,0.0,0.0,0.0,0.0,0.0,0.0,0.0,0.0,0.0,0.0,0.0,0.0,0.0,0.0,0.0,0.0,0.0,0.0,0.0,0.0,0.0,0.0,0.0,0.0,0.0,0.0,0.0,0.0,0.0,0.0,0.0,0.0,0.0,0.0,0.0,0.0,0.0,0.0,0.0,0.0,0.0,0.0,0.0,0.0,0.0,0.0,0.0,0.0,0.0,0.0,0.0,0.0,0.0,0.0,0.0,0.0,0.0,0.0,0.0,0.0,0.0,0.0,0.0,0.0,0.0,0.0,0.0,0.0,0.0,0.0,0.0,0.0,0.0,0.0,0.0,0.0,0.0,0.0,0.0,0.0,0.0,0.0,0.0,0.0,0.0,0.0,0.0,0.0,0.0,0.0,0.0,0.0,0.0,0.0,0.0,0.0,0.0,0.0,0.0,0.0,0.0,0.0,0.0,0.0,0.0,0.0,0.0,0.0,0.0,0.0,0.0,0.0,0.0,0.0,0.0,0.0,0.0,0.0,0.0,0.0,0.0,0.0,0.0,0.0,0.0,0.0,0.0,0.0,0.0,0.0,0.0,0.0,0.0,0.0,0.0,0.0,0.0,0.0,0.0,0.0,0.0,0.0,0.0,0.0,0.0,0.0,0.0,0.0,0.0,0.0,0.0,0.0,0.0,0.0,0.0,0.0,0.0,0.0,0.0,0.0,0.0,0.0,0.0,0.0,0.0,0.0,0.0,0.0,0.0,0.0,0.0,0.0,0.0,0.0,0.0,0.0,0.0,0.0,0.0,0.0,0.0,0.0,0.0,0.0,0.0,0.0,0.0,0.0,0.0,0.0,0.0,0.0,0.0,0.0,0.0,0.0,0.0,0.0,0.0,0.0,0.0,0.0,0.0,0.0,0.0,0.0,0.0,0.0,0.0,0.0,0.0,0.0,0.0,0.0,0.0,0.0,0.0,0.0,0.0,0.0,0.0,0.0,0.0,0.0,0.0,0.0,0.0,0.0,0.0,0.0,0.0,0.0,0.0,0.0,0.0,0.0,0.0,0.0,0.0,0.0,0.0,0.0,0.0,0.0,0.0,0.0,0.0,0.0,0.0,0.0,0.0,0.0,0.0,0.0,0.0,0.0,0.0,0.0,0.0,0.0,0.0,0.0,0.0,0.0,0.0,0.0,0.0,0.0,0.0,0.0,0.0,0.0,0.0,0.0,0.0,0.0,0.0,0.0,0.0,0.0,0.0,0.0,0.0,0.0,0.0,0.0,0.0,0.0,0.0,0.0,0.0,0.0,0.0,0.0,0.0,0.0,0.0,0.0,0.0,0.0,0.0,0.0,0.0,0.0,0.0,0.0,0.0,0.0,0.0,0.0,0.0,0.0,0.0,0.0,0.0,0.0,0.0,0.0,0.0,0.0,0.0,0.0,0.0,0.0,0.0,0.0,0.0,0.0,0.0,0.0,0.0,0.0,0.0,0.0,0.0,0.0,0.0,0.0,0.0,0.0,0.0,0.0,0.0,0.0,0.0,0.0,0.0,0.0,0.0,0.0,0.0,0.0,0.0,0.0,0.0,0.0,0.0,0.0,0.0,0.0,0.0,0.0,0.0,0.0,0.0,0.0,0.0,0.0,0.0,0.0,0.0,0.0,0.0,0.0,0.0,0.0,0.0,0.0,0.0,0.0,0.0,0.0,0.0,0.0,0.0,0.0,0.0,0.0,0.0,0.0,0.0,0.0,0.0,0.0,0.0,0.0,0.0,0.0,0.0,0.0,0.0,0.0,0.0,0.0,0.0,0.0,0.0,0.0,0.0,0.0,0.0,0.0,0.0,0.0,0.0,0.0,0.0,0.0,0.0,0.0,0.0,0.0,0.0,0.0,0.0,0.0,0.0,0.0,0.0,0.0,0.0,0.0,0.0,0.0,0.0,0.0,0.0,0.0,0.0,0.0,0.0,0.0,0.0,0.0,0.0,0.0,0.0,0.0,0.0,0.0,0.0,0.0,0.0,0.0,0.0,0.0,0.0,0.0,0.0,0.0,0.0,0.0,0.0,0.0,0.0,0.0,0.0,0.0,0.0,0.0,0.0,0.0,0.0,0.0,0.0,0.0,0.0,0.0,0.0,0.0,0.0,0.0,0.0,0.0,0.0,0.0,0.0,0.0,0.0,0.0,0.0,0.0,0.0,0.0,0.0,0.0,0.0,0.0,0.0,0.0,0.0,0.0,0.0,0.0,0.0,0.0,0.0,0.0,0.0,0.0,0.0,0.0,0.0,0.0,0.0,0.0,0.0,0.0,0.0,0.0,0.0,0.0,0.0,0.0,0.0,0.0,0.0,0.0,0.0,0.0,0.0,0.0,0.0,0.0,0.0,0.0,0.0,0.0,0.0,0.0,0.0,0.0,0.0,0.0,0.0,0.0,0.0,0.0,0.0,0.0,0.0,0.0,0.0,0.0,0.0,0.0,0.0,0.0,0.0,0.0,0.0,0.0,0.0,0.0,0.0,0.0,0.0,0.0,0.0,0.0,0.0,0.0,0.0,0.0,0.0,0.0,0.0,0.0,0.0,0.0,0.0,0.0,0.0,0.0,0.0,0.0,0.0,0.0,0.0,0.0,0.0,0.0,0.0,0.0,0.0,0.0,0.0,0.0,0.0,0.0,0.0,0.0,0.0,0.0,0.0,0.0,0.0,0.0,0.0,0.0,0.0,0.0,0.0,0.0,0.0,0.0,0.0,0.0,0.0,0.0,0.0,0.0,0.0,0.0,0.0,0.0,0.0,0.0,0.0,0.0,0.0,0.0,0.0,0.0,0.0,0.0,0.0,0.0,0.0,0.0,0.0,0.0,0.0,0.0,0.0,0.0,0.0,0.0,0.0,0.0,0.0,0.0,0.0,0.0,0.0,0.0,0.0,0.0,0.0,0.0,0.0,0.0,0.0,0.0,0.0,0.0,0.0,0.0,0.0,0.0,0.0,0.0,0.0,0.0,0.0,0.0,0.0,0.0,0.0,0.0,0.0,0.0,0.0,0.0,0.0,0.0,0.0,0.0,0.0,0.0,0.0,0.0,0.0,0.0,0.0,0.0,0.0,0.0,0.0,0.0,0.0,0.0,0.0,0.0,0.0,0.0,0.0,-0.6998,0.0,0.0,0.0,0.0,0.0,0.0,0.0,0.0,0.0,0.0,0.0,0.0,0.0,0.0,0.0,0.0,0.0,0.0,0.0,0.0,0.0,0.0,0.0,0.0,0.0,0.0,0.0,0.0,0.0,0.0,0.0,0.0,0.0,0.0,0.0,0.0,0.0,0.0,-0.7063,-0.7749,-0.9189,-1.1268,-1.0855,-0.8751,-0.5242,0.0,0.0,0.0,0.0,0.0,0.0,0.0,0.0,0.0,0.0,0.0,0.0,0.0,0.0,0.0,0.0,0.0,0.0,0.0,0.0,0.0,0.0,0.0,0.0,0.0,0.0,0.0,0.0,0.0,0.0,0.0,0.0,0.0,0.0,0.0,0.0,0.0,0.0,0.0,0.0,0.0,0.0,0.0,0.0,0.0,0.0,0.0,0.0,0.0,0.0,0.0,0.0,0.0,0.0,0.0,0.0,0.0,0.0,0.0,0.0,0.0,0.0,0.0,0.0,0.0,0.0,0.0,0.0,0.0,0.0,0.0,-0.9732,0.0,0.0,0.0,0.0,0.0,0.0,0.0,0.0,0.0,0.0,0.0,0.0,0.0,0.0,0.0,0.0,0.0,0.0,0.0,0.0,0.0,0.0,0.0,-1.5283,-1.5885,-1.5952,-1.5441,-1.4719,0.0,0.0,0.0,0.0,0.0,0.0,-0.7311,-0.746,-0.8306,-0.9896,-1.1009,-1.2875,-1.5419,-1.625,-1.4163,-0.9591,-0.6522,0.0,0.0,0.0,0.0,0.0,0.0,0.0,0.0,0.0,0.0,0.0,0.0,0.0,0.0,0.0,0.0,0.0,0.0,0.0,0.0,0.0,0.0,0.0,0.0,0.0,0.0,0.0,0.0,0.0,0.0,0.0,0.0,0.0,0.0,0.0,0.0,0.0,0.0,0.0,0.0,0.0,0.0,0.0,0.0,0.0,0.0,0.0,0.0,0.0,0.0,0.0,0.0,0.0,0.0,0.0,0.0,0.0,0.0,0.0,0.0,0.0,0.0,0.0,-2.5938,-2.7514,-2.8681,-2.9355,-2.9687,-2.9276,-2.0997,-1.7505,-1.7259,-1.2197,0.0,0.0,0.0,0.0,0.0,0.0,0.0,0.0,0.0,0.0,0.0,0.0,0.0,0.0,0.0,0.0,0.0,0.0,0.0,0.0,0.0,-1.8124,-1.9148,-1.9728,-1.8967,-1.8136,-1.7347,0.0,0.0,0.0,0.0,0.0,-0.8493,-0.9776,-1.0935,-1.1917,-1.5529,-1.8307,-2.0194,-2.0323,-2.0158,-1.9577,-1.4678,-1.2572,-1.2321,0.0,0.0,0.0,0.0,0.0,0.0,0.0,0.0,0.0,0.0,0.0,0.0,0.0,0.0,0.0,0.0,0.0,0.0,0.0,0.0,0.0,0.0,0.0,0.0,0.0,0.0,0.0,0.0,0.0,0.0,0.0,0.0,0.0,0.0,0.0,0.0,0.0,0.0,0.0,0.0,0.0,-1.6398,-1.6212,0.0,0.0,0.0,0.0,0.0,0.0,0.0,0.0,0.0,0.0,0.0,0.0,0.0,-2.411,-2.5175,-2.7173,-2.8283,-2.8533,-2.9538,-3.0203,-3.0547,-3.0644,-3.0703,-3.0644,-2.9199,0.0,-2.2014,-1.9288,0.0,0.0,0.0,0.0,0.0,0.0,0.0,0.0,0.0,0.0,0.0,0.0,0.0,0.0,0.0,0.0,0.0,0.0,0.0,0.0,0.0,-1.9934,-2.0424,-2.1622,-2.0735,-1.9496,-1.8046,-1.6869,0.0,0.0,-1.2335,-1.1824,-1.1634,-1.2508,-1.3973,-1.6021,-1.9248,-2.1513,-2.2872,-2.3767,-2.429,-2.4378,-2.2526,-1.9159,-1.4605,-1.0838,0.0,0.0,0.0,0.0,0.0,0.0,0.0,0.0,0.0,0.0,0.0,0.0,0.0,0.0,0.0,0.0,0.0,0.0,0.0,0.0,0.0,0.0,0.0,0.0,0.0,0.0,0.0,0.0,0.0,0.0,0.0,0.0,0.0,0.0,0.0,0.0,0.0,0.0,0.0,-1.4839,-1.7416,-1.7019,-1.8259,-1.8645,0.0,0.0,0.0,0.0,0.0,0.0,0.0,0.0,0.0,-2.5114,-2.6404,-2.778,-2.9197,-3.0595,-3.1344,-3.1436,-3.2804,-3.3556,-3.3738,-3.4226,-3.4468,-3.4473,-3.3922,-3.1836,-2.853,-2.4742,-2.2613,-2.1538,0.0,0.0,0.0,0.0,-1.9096,-1.8793,0.0,0.0,0.0,0.0,0.0,0.0,0.0,0.0,0.0,0.0,0.0,0.0,-2.173,-2.1321,-2.1487,-2.2978,-2.2011,-2.0581,-1.8856,-1.8089,-1.674,-1.4569,-1.3819,-1.377,-1.4409,-1.5597,-1.7448,-2.0021,-2.229,-2.4088,-2.5456,-2.6447,-2.7236,-2.7842,-2.8246,-2.4747,-1.8364,-1.5421,-1.2118,-0.8522,0.0,0.0,0.0,0.0,0.0,0.0,0.0,0.0,0.0,0.0,0.0,0.0,0.0,0.0,0.0,0.0,0.0,0.0,0.0,0.0,0.0,0.0,0.0,0.0,0.0,0.0,0.0,0.0,0.0,0.0,0.0,0.0,0.0,0.0,0.0,0.0,0.0,-1.6957,-1.9156,-1.8382,-2.0019,-2.0572,0.0,0.0,0.0,0.0,0.0,0.0,-2.4217,-2.6207,-2.7795,-2.8844,-2.9915,-3.1188,-3.266,-3.3745,-3.4295,-3.4318,-3.5668,-3.6384,-3.654,-3.7186,-3.7501,-3.7527,-3.6836,-3.5765,-3.4166,-2.9425,-2.7738,-2.7926,-2.6209,-2.5528,-2.56,-2.637,-2.5833,-2.4973,0.0,0.0,0.0,0.0,0.0,0.0,0.0,0.0,0.0,0.0,0.0,-1.9786,-2.195,-2.2352,-2.2955,-2.4118,-2.3111,-2.2037,-2.1098,-1.8773,-1.6942,-1.5843,-1.4918,-1.4893,-1.586,-1.9105,-2.1523,-2.3072,-2.4554,-2.646,-2.8748,-2.8062,-2.8973,-3.114,-3.0393,-2.9173,-2.7308,-2.2224,-1.9459,-1.7775,-0.9376,0.0,0.0,0.0,0.0,0.0,0.0,0.0,0.0,0.0,0.0,0.0,0.0,0.0,0.0,0.0,0.0,0.0,0.0,0.0,0.0,0.0,0.0,0.0,0.0,0.0,0.0,0.0,0.0,0.0,0.0,0.0,0.0,0.0,0.0,0.0,0.0,0.0,0.0,-2.1531,-2.3504,0.0,0.0,0.0,0.0,-2.4881,-2.5642,-2.6845,-2.868,-2.8908,-2.9756,-3.1468,-3.309,-3.4398,-3.5308,-3.6937,-3.7777,-3.7846,-3.7948,-3.8059,-3.8179,-3.8218,-3.8241,-3.8241,-3.8064,-3.7931,-3.754,-3.3475,-3.1172,-3.0268,-3.0469,-2.981,-2.8905,-3.0161,-2.9962,-2.9231,0.0,0.0,0.0,0.0,0.0,0.0,0.0,0.0,-1.6344,-1.9101,-1.9866,-2.1218,-2.403,-2.3692,-2.3737,-2.5032,-2.4235,-2.3254,-2.2294,-2.0327,-1.8826,-1.7998,-1.7027,-1.7611,-2.0005,-2.1764,-2.3563,-2.5413,-2.7488,-2.8925,-2.9776,-3.0008,-3.0589,-3.1415,-3.1641,-3.1199,-3.0079,-2.7015,-2.4004,-2.0862,-1.5633,-1.0978,0.0,0.0,0.0,0.0,0.0,0.0,0.0,0.0,0.0,0.0,0.0,0.0,0.0,0.0,0.0,0.0,0.0,0.0,0.0,0.0,0.0,0.0,0.0,0.0,0.0,0.0,0.0,0.0,0.0,0.0,0.0,0.0,0.0,0.0,0.0,0.0,0.0,-2.4544,-2.6498,0.0,-2.6199,-2.6805,-2.7639,-2.8524,-2.9803,-3.0984,-3.2,-3.3115,-3.3922,-3.4329,-3.5637,-3.6733,-3.7632,-3.8439,-3.8852,-3.8877,-3.8877,-3.8929,-3.901,-3.901,-3.9053,-3.9128,-3.9095,-3.8436,-3.7318,-3.6453,-3.5527,-3.4542,-3.3501,-3.2884,-3.2598,-3.2479,-3.2226,-3.1952,0.0,0.0,0.0,0.0,0.0,0.0,0.0,0.0,-1.6886,-1.9337,-2.0054,-2.1408,-2.4242,-2.3977,-2.4127,-2.5453,-2.4532,-2.3526,-2.2618,-2.1038,-1.9793,-1.9058,-1.9225,-2.054,-2.3104,-2.4447,-2.5997,-2.7813,-2.9696,-3.0742,-3.1005,-3.1568,-3.2082,-3.2632,-3.317,-3.3293,-3.2981,-3.1725,-2.8679,-2.4357,-2.0538,-1.6818,-1.3224,0.0,0.0,0.0,0.0,0.0,0.0,0.0,0.0,0.0,0.0,0.0,0.0,0.0,0.0,0.0,0.0,0.0,0.0,0.0,0.0,0.0,0.0,0.0,0.0,0.0,0.0,0.0,0.0,0.0,0.0,0.0,0.0,0.0,0.0,0.0,-2.618,-2.7496,-2.9567,-3.0552,-2.97,-3.0384,-3.1221,-3.2068,-3.3327,-3.4328,-3.4947,-3.5989,-3.647,-3.6252,-3.7227,-3.8099,-3.8785,-3.9301,-3.961,-3.9708,-3.9708,-3.9735,-3.9779,-3.9779,-3.9828,-3.9906,-3.9818,-3.9112,-3.8067,-3.8346,-3.8302,-3.7923,-3.6295,-3.5554,-3.5344,-3.4757,-3.4367,-3.4114,0.0,0.0,0.0,0.0,0.0,0.0,0.0,-1.6494,-1.7124,-1.7594,-1.8706,-2.0271,-2.2486,-2.3259,-2.4116,-2.5336,-2.398,-2.2808,-2.2189,-2.0821,-1.9742,-1.911,-2.1506,-2.3509,-2.4917,-2.7195,-2.8994,-3.032,-3.1091,-3.1898,-3.2711,-3.2693,-3.3518,-3.5041,-3.5041,-3.55,-3.6303,-3.6303,-3.355,-2.8777,-2.4016,-2.2292,-2.1859,0.0,0.0,0.0,0.0,0.0,0.0,0.0,0.0,0.0,0.0,0.0,0.0,0.0,0.0,0.0,0.0,0.0,0.0,0.0,0.0,0.0,0.0,0.0,0.0,0.0,0.0,0.0,0.0,0.0,0.0,0.0,0.0,0.0,-2.3548,-2.7302,-3.0183,-3.0467,-3.2754,-3.4026,-3.3261,-3.3923,-3.4757,-3.5596,-3.614,-3.6775,-3.7537,-3.7318,-3.7164,-3.7152,-3.7909,-3.8491,-3.8813,-3.9662,-4.0223,-4.0489,-4.0496,-4.0496,-4.0496,-4.0496,-4.0489,-4.0473,-4.0213,-4.0091,-4.0005,-3.9195,-3.936,-4.0,-3.8772,-3.7782,-3.7074,-3.7016,-3.6455,-3.57,0.0,0.0,0.0,0.0,0.0,0.0,-1.598,-1.5936,-1.6613,-1.8765,-1.9841,-2.1106,-2.2939,-2.372,-2.4171,-2.4334,-2.3216,-2.2744,-2.3312,-2.1568,-2.119,-2.2755,-2.3506,-2.5216,-2.807,-2.9148,-3.0698,-3.2816,-3.3036,-3.388,-3.5275,-3.4637,-3.4912,-3.5936,-3.5936,-3.6083,-3.6303,-3.6303,-3.5165,-3.3088,-2.9989,-2.6957,-2.3922,0.0,0.0,0.0,0.0,0.0,0.0,0.0,0.0,0.0,0.0,0.0,0.0,0.0,0.0,0.0,0.0,0.0,0.0,0.0,0.0,0.0,0.0,0.0,0.0,0.0,0.0,0.0,0.0,0.0,0.0,0.0,0.0,-2.8384,-2.8303,-3.0498,-3.2803,-3.4703,-3.6131,-3.711,-3.7529,-3.831,-3.888,-3.9104,-3.9628,-3.965,-3.9042,-3.8713,-3.8465,-3.8266,-3.867,-3.8927,-3.9014,-3.9745,-4.0139,-4.0204,-4.0397,-4.0496,-4.0496,-4.0496,-4.0389,-4.0213,-4.0339,-3.9923,-3.9204,-3.9795,-3.9472,-3.8573,-3.8228,-3.834,-3.8593,-3.7385,-3.6377,-3.5626,0.0,0.0,0.0,0.0,0.0,0.0,-1.5865,-1.5798,-1.6312,-1.7973,-1.9691,-2.1192,-2.2331,-2.3301,-2.3719,-2.3419,-2.2444,-2.2247,-2.3229,-2.2778,-2.3358,-2.5347,-2.6022,-2.7617,-3.035,-3.0925,-3.2216,-3.4289,-3.4289,-3.5,-3.6303,-3.6138,-3.6321,-3.6831,-3.7496,-3.7624,-3.7331,-3.7661,-3.7129,-3.5917,-3.4518,-3.1815,-2.8332,-2.561,-2.3143,-2.0957,-1.9623,-1.7812,-1.5756,-1.3898,0.0,0.0,0.0,0.0,0.0,0.0,0.0,0.0,0.0,0.0,0.0,0.0,0.0,0.0,0.0,0.0,0.0,0.0,0.0,0.0,0.0,0.0,0.0,0.0,-3.0316,-3.2654,-3.3916,-3.4647,-3.5799,-3.7841,-3.8984,-3.9796,-4.0296,-4.1104,-4.1593,-4.1593,-4.1304,-4.0843,-4.017,-3.937,-3.8855,-3.8707,-3.884,-3.8985,-3.9112,-3.9493,-3.9754,-3.9891,-4.0062,-4.011,-4.011,-4.011,-4.0043,-3.9891,-3.9905,-3.9547,-3.8961,-3.9404,-3.8993,0.0,0.0,0.0,0.0,0.0,-3.7037,-3.6554,0.0,0.0,0.0,0.0,0.0,0.0,-1.5576,-1.5793,-1.6055,-1.6173,-1.8708,-2.0636,-2.1,-2.2185,-2.2793,-2.2435,-2.1499,-2.1425,-2.2535,-2.4003,-2.5524,-2.7123,-2.8562,-3.0088,-3.1752,-3.2502,-3.3628,-3.5151,-3.5151,-3.5628,-3.6578,-3.7217,-3.7603,-3.7823,-3.9273,-3.9551,-3.9019,-3.9643,-3.9016,-3.7621,-3.7547,-3.6024,-3.3341,-2.9137,-2.7763,-2.7587,-2.3978,-2.121,-1.9086,-1.777,0.0,0.0,0.0,0.0,0.0,0.0,0.0,0.0,0.0,0.0,0.0,0.0,0.0,0.0,0.0,0.0,0.0,0.0,0.0,0.0,0.0,0.0,0.0,0.0,-3.4162,-3.6538,-3.9462,-3.9042,-3.8897,-4.007,-4.1169,-4.1867,-4.1963,-4.2673,-4.3124,-4.3124,-4.1784,-4.0945,-4.0839,0.0,0.0,0.0,0.0,-3.88,-3.9044,-3.9085,-3.9294,-3.9672,-3.9625,-3.9693,-3.9882,-3.9788,-3.9708,-3.9661,-3.9413,-3.9213,-3.9083,-3.8637,-3.8418,-3.8488,-3.9834,-3.94,-3.8007,-3.8104,-3.8084,-3.7892,0.0,0.0,0.0,0.0,0.0,0.0,-1.4993,-1.4915,-1.5171,-1.6084,-1.7927,-1.9236,-1.9424,-2.058,-2.1118,-2.057,-1.9751,-2.0239,-2.2528,-2.3714,-2.556,-2.8324,-2.9453,-3.057,-3.1775,-3.3596,-3.5023,-3.6046,-3.6046,-3.6798,-3.823,-3.7731,-3.819,-3.9457,-3.9753,-4.0175,-4.06,-4.0102,-3.935,-3.8414,-3.7768,-3.6024,-3.3628,-3.2082,-3.0214,-2.8218,-2.6787,-2.5331,-2.3719,-2.144,-2.0569,-1.9886,-1.6743,-1.5731,0.0,0.0,0.0,0.0,0.0,0.0,0.0,0.0,0.0,0.0,0.0,0.0,0.0,0.0,0.0,0.0,0.0,0.0,0.0,-3.4712,-3.7146,-3.945,-4.1833,-4.1613,-4.1316,-4.1578,-4.1815,-4.2252,-4.2946,-4.3154,-4.3261,-4.3261,-4.2151,-4.1161,-4.0443,-3.9331,-3.8707,-3.8707,-3.8707,-3.8719,-3.8792,-3.8985,-3.9461,-4.0149,0.0,0.0,-4.1512,-4.0865,-4.0428,-4.0181,-4.039,-3.9946,-3.912,-3.9281,-3.908,-3.8756,-3.9317,-3.8892,-3.8084,-3.8796,-3.8604,-3.7988,0.0,0.0,0.0,0.0,0.0,0.0,-1.4875,-1.4877,-1.5196,-1.6134,-1.7802,-1.881,-1.8623,-1.9074,-1.9134,-1.8457,-1.9029,-2.0219,-2.2079,-2.4397,-2.6904,-2.9576,-3.0406,-3.1488,-3.2966,-3.4315,-3.5426,-3.6303,-3.6703,-3.7514,-3.8707,-3.8689,-3.9126,-3.9953,-4.0744,-4.1111,-4.1058,-4.0671,-4.0047,-3.9203,-3.7988,-3.6519,-3.4963,-3.4124,-3.2193,-2.9904,-2.9503,-2.7696,-2.538,-2.4513,-2.371,-2.2713,-2.0538,-1.9239,-1.8046,0.0,0.0,0.0,0.0,0.0,0.0,0.0,0.0,0.0,0.0,0.0,0.0,0.0,0.0,-2.8564,-3.0546,0.0,-3.5315,-3.8281,-3.9768,-4.1162,-4.2905,-4.2566,-4.2205,-4.2389,-4.2558,-4.2655,-4.2699,-4.307,-4.3127,-4.2724,-4.1643,-4.0803,-4.0379,-3.9302,-3.8707,-3.8707,-3.8707,-3.8707,-3.8707,-3.8829,-3.9098,-3.949,-3.9672,-3.996,-4.0337,-4.0337,-4.0257,-4.0096,-3.9858,-3.9886,-4.0056,-3.9552,-3.9139,-3.8814,-3.8988,-3.8895,-3.8738,-3.9592,-3.9631,-3.9181,0.0,0.0,0.0,0.0,0.0,0.0,0.0,-1.5026,-1.5417,-1.6093,-1.754,-1.8285,-1.7659,-1.7484,-1.7129,-1.6473,-1.829,-2.0101,-2.1566,-2.4921,-2.7893,-3.0185,-3.1048,-3.2311,-3.4086,-3.4927,-3.5717,-3.6523,-3.7345,-3.8065,-3.8726,-3.9515,-3.9974,-4.0194,-4.1644,-4.2029,-4.157,-4.1389,-4.0873,-4.001,-3.8557,-3.7309,-3.6211,-3.5264,-3.3441,-3.1366,-3.1151,-2.8703,-2.5691,-2.6277,-2.558,-2.4389,-2.3814,-2.2442,-2.0492,-1.7471,-1.5948,0.0,0.0,0.0,0.0,0.0,0.0,0.0,0.0,-2.4677,-2.5892,-2.9901,-3.1385,-3.2841,-3.5812,-3.7106,-3.8598,-4.1299,-4.1869,-4.2326,-4.3347,-4.28,-4.2347,-4.2461,-4.2842,-4.2849,-4.2205,-4.2575,-4.2589,-4.1944,-4.0909,-4.0314,-4.0314,-3.9197,-3.8578,-3.8692,-3.8611,-3.8578,-3.8707,-3.8707,-3.8781,-3.8946,-3.9423,-3.957,-3.9423,-3.99,-4.0212,-4.0304,-3.935,-3.968,-4.0761,-3.9357,-3.8721,-3.8627,-3.8638,-3.8823,-3.9216,-4.0109,-4.0457,-4.0392,0.0,0.0,0.0,0.0,0.0,0.0,0.0,0.0,-1.52,-1.5688,-1.6367,-1.6441,-1.5532,-1.5535,-1.5443,-1.5073,-1.6331,-1.8407,-2.1328,-2.4085,-2.6677,-2.9081,-3.0835,-3.2412,-3.3818,-3.5599,-3.6795,-3.7364,-3.8175,-3.8615,-3.8726,-3.9515,-4.0286,-4.1003,-4.1901,-4.2653,-4.3167,-4.247,-4.1699,-4.0875,-3.9992,-3.8285,-3.6164,-3.4993,-3.3231,-3.1268,-3.0241,-2.8036,-2.5564,-2.5372,-2.4947,-2.4491,-2.4406,-2.3494,-2.1889,-1.8854,-1.744,-1.6347,-1.4102,-1.5852,-1.9199,-2.2871,-2.3675,-2.5202,0.0,-3.2066,-3.2135,-3.4954,-3.6717,-3.796,-3.8593,-3.976,-4.1064,-4.2441,-4.3005,-4.3345,-4.3478,-4.28,-4.2046,-4.1362,-4.1961,-4.238,-4.2288,-4.1717,-4.1312,-4.122,-4.0433,-3.996,-3.996,-3.8718,-3.82,-3.8673,-3.8251,-3.8216,-3.8692,-3.8707,-3.9056,-3.9753,-3.9129,-3.9918,-4.1882,-4.1242,-4.1368,-4.1956,-4.0432,-3.9863,-3.9916,-3.8327,-3.7817,-3.8003,-3.8003,-3.8181,-3.8558,-3.9709,-4.0304,-4.0446,0.0,0.0,0.0,0.0,0.0,0.0,0.0,0.0,0.0,-1.6197,-1.6383,-1.6118,-1.5252,-1.4372,-1.3976,-1.4317,-1.5772,-1.8001,-2.1103,-2.3894,-2.6476,-2.8895,-3.0791,-3.2435,-3.3765,-3.5705,-3.6965,-3.7492,-3.8303,-3.8707,-3.8726,-4.001,-4.0765,-4.115,-4.2433,-4.3185,-4.346,-4.2635,-4.1846,-4.0948,-3.9203,-3.7189,-3.5041,-3.3129,-3.0871,-2.8603,-2.7637,-2.5463,0.0,-2.3066,-2.2996,-2.2929,-2.2936,-2.2537,-2.1422,-1.8207,-1.6981,-1.6719,-1.7091,-2.0442,-2.4137,-2.5268,-2.7798,-3.0724,-3.3456,-3.4413,-3.5555,-3.8505,-4.001,-4.0958,-4.1538,-4.2126,-4.2649,-4.3144,-4.3378,-4.3515,-4.3515,-4.2171,-4.1084,-4.0721,-3.9514,-3.9077,-4.0109,-3.99,-3.9568,-3.9249,-3.9207,-3.9056,-3.8758,-3.8194,-3.7997,-3.8234,-3.8466,-3.8562,-3.8474,-3.9207,-3.9588,-3.9624,-4.0058,-4.0307,-4.0397,-4.056,-4.0401,-4.0003,-4.0703,-4.0402,-3.9362,-3.9162,-3.8875,-3.8545,-3.8087,-3.8084,-3.8501,-3.9659,-4.0167,-4.0267,0.0,0.0,0.0,0.0,0.0,0.0,0.0,0.0,0.0,0.0,-1.6619,-1.6149,-1.5168,-1.3535,-1.2837,-1.3688,-1.5142,-1.7257,-2.016,-2.3039,-2.567,-2.7992,-3.0055,-3.2005,-3.3852,-3.5521,-3.6853,-3.7841,-3.8414,-3.8707,-3.8726,-4.012,-4.0781,-4.0838,-4.2451,-4.3167,-4.3149,-4.2782,-4.1919,-4.0581,-3.8486,-3.6143,-3.3544,-3.0657,-2.7823,-2.5334,-2.4676,-2.2834,-2.0671,-2.0457,-2.0632,-2.0991,-2.1231,-2.1198,-2.0502,-1.7758,-1.6909,-1.7484,-2.0381,-2.4396,-2.7877,-2.8225,-3.1711,-3.5114,-3.5341,-3.6579,-3.8345,-4.0634,-4.1469,-4.1895,-4.226,-4.2315,-4.2388,-4.2608,-4.295,-4.324,-4.3478,-4.1503,-4.0003,-3.975,-3.7184,-3.5915,-3.7214,-3.7701,-3.7881,-3.772,-3.8066,-3.8117,-3.772,-3.7578,-3.7649,-3.8008,-3.8222,-3.834,-3.83,-3.9024,-3.9184,-3.8795,-3.9775,-3.9767,-3.8869,-3.9929,-3.999,-3.9345,-4.0834,-4.0577,-3.9174,-3.9661,-3.9428,-3.8732,-3.8276,-3.8255,-3.8595,-3.9482,-3.9739,-3.9679,0.0,0.0,0.0,0.0,0.0,0.0,0.0,0.0,0.0,0.0,0.0,0.0,0.0,-1.2932,-1.2139,-1.3151,-1.4042,-1.5595,-1.8021,-2.1009,-2.3617,-2.5718,-2.8166,-3.0913,-3.4018,-3.5045,-3.657,-3.867,-3.8689,-3.8707,-3.8726,-3.9551,-3.9937,-4.001,-4.1625,-4.2341,-4.2396,-4.313,-4.2084,-3.9829,-3.8574,-3.5758,-3.183,-2.7716,-2.4387,-2.1898,-2.1634,-2.0639,-1.9227,-1.7817,-1.7993,-1.8939,-1.9786,-1.9863,-1.9409,-1.8214,-1.8035,-1.9212,-2.3635,-2.6393,-2.8858,-3.2477,-3.5069,-3.7107,-3.8525,-3.9936,-4.0967,-4.1077,-4.0755,-4.0238,-3.9478,-3.9333,-3.9586,-4.0383,-4.1535,-4.2598,-4.3404,-4.1047,-3.8936,-3.8159,-3.5539,-3.379,0.0,-3.5208,-3.6414,-3.7157,-3.7247,-3.7247,-3.721,-3.6724,-3.7013,-3.8249,-3.7123,-3.7065,-3.8282,-3.7634,-3.7281,-3.728,-3.7317,-3.7707,-3.847,-3.9979,-4.1059,-4.1651,-4.0937,-4.0215,-3.9463,-3.9156,-3.8598,-3.7997,-3.8476,-3.8667,-3.8728,-3.9022,-3.8833,-3.8557,0.0,0.0,0.0,0.0,0.0,0.0,0.0,0.0,0.0,0.0,0.0,0.0,0.0,0.0,0.0,0.0,-1.415,-1.5192,-1.7122,-1.9988,-2.2056,-2.3071,-2.6775,-2.9523,-3.1075,-3.1989,-3.3508,-3.5703,-3.5004,-3.4926,-3.5477,-3.627,-3.6964,-3.7551,-3.8634,-3.9405,-3.9937,-4.0194,-3.9353,-3.7671,-3.5753,-3.3046,-2.9598,-2.453,-2.1312,-1.9054,0.0,-1.5012,-1.5357,-1.5351,-1.553,-1.6056,-1.7641,-1.7971,-1.777,-1.7926,-2.0713,-2.4152,-2.6075,-3.0845,-3.5496,-3.6299,-3.8819,-4.1145,-4.1176,-4.1562,-4.1522,-4.0188,-3.8508,-3.6982,-3.6007,-3.5711,-3.6354,-3.864,-4.016,-4.1487,-4.2795,-4.0939,-3.8839,-3.7201,-3.5357,0.0,0.0,0.0,0.0,-3.5867,-3.6244,-3.6704,-3.7344,-3.7228,-3.7532,-3.8471,-3.8599,-3.8679,-3.8763,-3.8877,-3.8756,-3.8391,-3.8196,-3.8286,-3.8646,-3.9595,-4.0001,-3.9943,-4.0161,-3.9755,-3.8897,-3.8786,-3.8227,-3.7434,-3.7386,-3.737,-3.7449,-3.8063,-3.8096,-3.7981,0.0,0.0,0.0,0.0,0.0,0.0,0.0,0.0,0.0,0.0,0.0,0.0,0.0,0.0,0.0,0.0,0.0,-1.4589,-1.5525,-1.8183,-1.9906,-2.0358,-2.3871,-2.623,-2.7139,-2.8207,-2.9715,-3.1736,-3.1434,-3.1524,-3.1993,-3.2488,-3.3066,-3.372,-3.4728,-3.553,-3.6119,-3.6307,-3.5204,-3.3061,-3.0746,-2.7879,-2.4459,-1.9683,-1.7338,0.0,-1.2513,-1.2231,-1.3656,-1.4134,-1.4685,-1.5453,-1.7104,-1.7692,-1.8159,-2.0192,-2.3713,-2.7566,-3.0363,-3.5128,-3.9382,-3.9651,-4.1766,-4.3571,-4.289,-4.1945,-4.0621,-3.8507,-3.5591,-3.3078,-3.1951,-3.1545,-3.2338,-3.5307,-3.6716,-3.8342,-4.0941,-3.9306,-3.76,-3.698,-3.5476,-3.4303,0.0,0.0,0.0,-3.4943,-3.5798,-3.6446,-3.681,-3.7097,-3.7715,-3.8706,-3.8986,-3.908,-3.8988,-3.9074,-3.9037,-3.8873,-3.8732,-3.8655,-3.8716,-3.9153,-3.9066,-3.865,-3.9402,-3.919,-3.8385,-3.8829,-3.8338,-3.7312,-3.729,-3.72,-3.7186,-3.7704,-3.7912,-3.8077,0.0,0.0,0.0,0.0,0.0,0.0,0.0,0.0,0.0,0.0,0.0,0.0,0.0,0.0,0.0,0.0,0.0,0.0,-1.3404,-1.5746,-1.7293,-1.7624,-1.9773,-2.1467,-2.2603,-2.3948,-2.5431,-2.7034,-2.8012,-2.8451,-2.8349,-2.8275,-2.8396,-2.8724,-2.9974,-3.0703,-3.0982,-3.1533,-2.9766,-2.6386,-2.4017,-2.0833,-1.7148,-1.3701,-1.2836,-1.3232,-1.1577,-1.2355,-1.4198,-1.4205,-1.5462,-1.7218,-1.8294,-1.9233,-2.075,-2.4861,-2.7128,-2.9681,-3.6117,-3.8969,-4.0567,-4.2408,-4.3718,-4.4341,-4.3481,-4.1134,-3.8422,-3.5986,-3.1999,-2.8574,-2.7411,-2.6964,-2.7758,-3.0784,-3.1839,-3.3826,-3.8259,-3.6663,-3.5684,-3.744,-3.5916,-3.4692,-3.4624,0.0,0.0,-3.4556,0.0,-3.6434,-3.5752,-3.6468,-3.7557,-3.8886,-3.8345,-3.8328,-3.8988,-3.8311,-3.8161,-3.8603,-3.8712,-3.8768,-3.8768,-3.8803,-3.8522,-3.8038,-3.8759,-3.8616,-3.8004,-3.9141,-3.8765,-3.7503,-3.8008,-3.8055,-3.7825,-3.7842,-3.8183,-3.8655,0.0,0.0,0.0,0.0,0.0,0.0,0.0,0.0,0.0,0.0,0.0,0.0,0.0,0.0,0.0,0.0,0.0,0.0,-1.32,-1.5337,-1.6281,-1.5608,-1.8582,-2.0247,-2.018,-2.0838,-2.1891,-2.3352,-2.3128,-2.3226,-2.3617,-2.3309,-2.3572,-2.4298,-2.4179,-2.4455,-2.4968,-2.4569,-2.3607,-2.2134,-1.958,-1.7723,-1.6174,-1.323,-1.2452,-1.2809,-1.211,-1.3416,-1.5487,-1.5736,-1.8276,-2.1398,-2.1836,-2.3802,-2.6408,-2.8996,-3.217,-3.5445,-3.7933,-4.0958,-4.346,-4.3639,-4.3927,-4.3483,-4.0944,-3.8503,-3.5467,-3.0888,-2.677,-2.3792,-2.3087,-2.3381,-2.5292,-3.0124,-3.2985,-3.5891,-3.9684,-3.9691,-3.909,-3.8491,-3.8088,-3.7415,-3.6321,-3.6535,0.0,0.0,-3.6028,-3.6332,-3.7256,-3.8024,-3.8345,-3.8193,-3.9056,-3.9385,-3.8988,-3.8802,-3.8238,-3.7303,-3.8801,-3.9522,-3.9539,-4.0094,-3.9968,-3.9336,-3.9666,-3.9089,-3.7922,-3.8218,-3.7819,-3.6967,-3.6915,-3.6838,-3.6825,-3.7229,-3.7469,-3.7596,0.0,0.0,0.0,0.0,0.0,0.0,0.0,0.0,0.0,0.0,0.0,0.0,0.0,0.0,0.0,0.0,0.0,0.0,0.0,-1.4833,-1.5854,-1.5226,-1.7346,-1.8327,-1.7856,-1.8669,-1.9406,-1.9967,-2.0002,-2.0072,-2.0215,-1.9697,-1.9718,-2.0193,-2.0277,-2.0439,-2.0607,-2.0207,-1.9037,0.0,0.0,-1.4388,-1.3173,-1.1784,-1.1973,-1.2949,-1.2859,-1.5034,-1.8262,-2.0212,-2.2591,-2.4945,-2.62,-2.8402,-3.1053,-3.385,-3.6297,-3.8632,-4.0827,-4.2978,-4.446,-4.3912,-4.3348,-4.2132,-3.9216,-3.5482,-3.133,-2.6622,-2.2742,-2.008,-1.9749,-2.048,-2.2704,-2.7588,-3.0381,-3.3406,-3.7557,-3.8504,-3.8648,-3.838,-3.8738,-3.8413,-3.6948,-3.7466,-3.7736,0.0,-3.6874,-3.6857,-3.7381,-3.8413,-3.8802,-3.8396,-3.9503,-3.991,-3.9503,-3.9486,-3.9193,-3.8608,-3.9738,-4.0106,-3.9811,-4.0227,-3.9709,-3.8528,0.0,-3.8954,-3.7939,-3.8261,-3.7939,-3.7242,-3.6761,-3.6496,-3.6437,-3.6744,-3.6999,-3.7209,0.0,0.0,0.0,0.0,0.0,0.0,0.0,0.0,0.0,0.0,0.0,0.0,0.0,0.0,0.0,0.0,0.0,0.0,0.0,0.0,-1.5683,-1.5613,-1.6341,-1.6473,-1.5935,-1.7245,-1.7754,-1.7343,-1.8025,-1.8192,-1.7866,-1.7089,-1.6694,-1.6631,-1.7364,-1.7502,-1.718,-1.719,-1.5583,-1.3013,-1.267,-1.1552,-1.0098,0.0,-1.1763,-1.3426,-1.4071,-1.6909,-2.099,-2.5361,-2.7162,-2.8051,-3.0658,-3.2788,-3.501,-3.8471,-3.955,-4.0343,-4.37,-4.456,-4.4364,-4.3728,-4.2409,-4.0484,-3.7442,-3.2144,-2.6703,-2.2552,-1.9128,-1.6887,-1.6978,-1.802,-2.0262,-2.4495,-2.6596,-2.94,-3.4298,-3.5724,-3.6711,-3.7997,-3.8647,-3.8556,-3.7354,-3.755,-3.7889,-3.8176,-3.7922,-3.7466,-3.6829,-3.8193,-3.8988,-3.8988,-3.9537,-3.9859,-3.996,-4.0045,-4.0234,-4.051,-4.0666,-4.0366,-3.9661,-3.9661,-3.8665,-3.6978,-3.8393,-3.8531,-3.7821,-3.8548,-3.8413,-3.7686,-3.6924,-3.6495,-3.6291,-3.6291,-3.6583,-3.6981,0.0,0.0,0.0,0.0,0.0,0.0,0.0,0.0,0.0,0.0,-1.5629,-1.482,0.0,0.0,0.0,0.0,0.0,0.0,0.0,0.0,0.0,-1.521,-1.6323,-1.6502,-1.5527,-1.649,-1.7036,-1.707,-1.6718,-1.6601,-1.6666,-1.5382,-1.4688,-1.4513,-1.4167,-1.3768,-1.3369,-1.341,-1.3,-1.2228,-1.1526,-1.1297,-1.1469,-1.2229,0.0,0.0,-1.6984,-1.8382,-1.9729,-2.5991,-2.9003,-3.0664,-3.36,-3.6161,-3.8456,-4.0437,-4.136,-4.2103,-4.3688,-4.4113,-4.4058,-4.3958,-4.1998,-3.8738,-3.3579,-2.8357,-2.2958,-1.7143,-1.4354,-1.3262,-1.4198,-1.5878,-1.878,-2.383,-2.6851,-3.0203,-3.4848,-3.6695,-3.8046,-3.9313,-3.9191,-3.9123,-3.9486,-3.7997,0.0,0.0,-3.8031,-3.6948,-3.6812,-3.8193,-3.8988,-3.8988,-3.8531,-3.8565,-3.9174,-3.9808,-3.9536,-3.8428,-3.9497,-3.9609,-3.8885,-3.8885,-3.8374,-3.7517,-3.855,0.0,-3.7066,-3.7787,-3.7652,-3.6914,-3.6129,-3.5785,-3.5739,-3.5739,-3.5805,-3.5876,0.0,0.0,0.0,0.0,0.0,0.0,0.0,-1.6486,-1.6802,-1.6812,-1.6458,-1.564,-1.4178,-1.3277,-1.2703,0.0,0.0,0.0,0.0,0.0,0.0,-1.6277,-1.7287,-1.7661,-1.7284,-1.7786,-1.7954,-1.7776,0.0,-1.6384,-1.618,-1.4969,-1.4281,-1.4066,-1.4155,-1.3855,-1.3306,-1.3506,-1.3255,-1.2719,-1.2756,-1.2895,-1.315,-1.4022,0.0,0.0,-1.7455,-1.87,-2.0015,-2.4496,-2.7206,-2.9611,-3.4727,-3.7724,-3.9673,-4.1573,-4.2322,-4.2829,-4.4236,-4.4767,-4.474,-4.3844,-4.0747,-3.6526,-3.1076,-2.5162,-1.9263,-1.3715,-1.1715,-1.1191,-1.194,-1.3843,-1.6705,-2.0996,-2.4192,-2.7761,-3.2404,-3.4984,-3.6976,-3.8612,-3.9251,-3.9419,-3.8988,-3.8691,-3.864,-3.892,-3.8691,-3.8183,-3.7398,-3.7669,-3.8024,-3.8413,-3.8091,-3.8075,-3.843,-3.8768,-3.8599,-3.7922,-3.8519,-3.8631,-3.8288,-3.8682,-3.8243,-3.7244,-3.8472,-3.8142,-3.6829,-3.7161,-3.7134,-3.6728,-3.5904,-3.56,-3.56,-3.56,-3.56,-3.56,0.0,0.0,0.0,0.0,0.0,0.0,0.0,-1.7219,-1.7866,-1.753,-1.7136,-1.6362,-1.4906,-1.316,-1.2239,0.0,0.0,0.0,0.0,0.0,0.0,0.0,0.0,0.0,-1.8562,0.0,0.0,-1.825,-1.7243,0.0,0.0,0.0,0.0,0.0,-1.4985,-1.4949,-1.4504,-1.48,-1.4461,0.0,0.0,-1.4772,0.0,0.0,0.0,0.0,0.0,-1.8427,-1.9859,-2.2514,-2.4286,-2.6413,-3.2311,-3.5854,-3.8229,-4.0246,-4.1254,-4.2159,-4.4114,-4.5082,-4.5202,-4.3756,-3.9702,-3.4639,-2.9243,-2.2551,-1.6058,-1.1102,-0.9553,-0.9295,-0.9918,-1.1757,-1.4332,-1.7921,-2.0997,-2.4605,-2.9326,-3.2574,-3.5265,-3.7418,-3.8684,-3.9131,-3.8447,-3.8996,0.0,-3.8176,-3.8765,-3.8799,-3.7949,-3.7026,-3.6874,-3.7652,-3.7669,-3.7736,-3.7905,-3.7905,-3.7821,-3.7669,-3.7669,-3.7567,-3.7432,-3.8007,-3.7635,-3.6626,-3.7939,-3.7753,-3.6575,-3.6728,-3.6711,-3.6468,-3.5859,-3.56,-3.56,-3.56,-3.56,-3.56,0.0,0.0,0.0,0.0,0.0,0.0,0.0,-1.661,-1.7757,-1.8083,-1.7203,-1.5971,-1.4428,-1.3547,-1.2895,0.0,0.0,0.0,0.0,0.0,0.0,0.0,0.0,0.0,0.0,0.0,0.0,-1.7415,-1.6815,0.0,0.0,0.0,0.0,0.0,0.0,-1.5463,-1.5733,-1.5898,0.0,0.0,0.0,0.0,0.0,0.0,0.0,0.0,0.0,-1.77,-1.7546,-2.0999,-2.1553,-2.1171,-2.3301,-2.7736,-3.2454,-3.3989,-3.642,-3.9229,-4.2072,-4.375,-4.4562,-4.3908,-3.9629,-3.3968,-2.7812,-2.074,-1.3984,-0.8795,-0.6891,-0.6596,-0.7976,-0.9462,-1.1794,-1.5875,-1.8798,-2.2195,-2.7014,-3.0603,-3.3754,-3.6574,-3.7032,0.0,-3.9723,-3.82,-3.758,-3.8712,-3.7145,-3.663,-3.7834,-3.6495,-3.6079,-3.688,-3.6897,-3.7212,-3.7905,-3.7905,-3.7567,-3.6897,-3.6897,-3.6518,-3.5802,-3.587,-3.5836,-3.5752,-3.662,-3.6502,0.0,-3.6485,-3.6366,-3.5701,-3.5616,-3.56,-3.56,-3.56,-3.56,-3.56,0.0,0.0,0.0,0.0,0.0,0.0,-1.4665,-1.6495,-1.7834,-1.8159,-1.7128,-1.5982,-1.4921,-1.348,-1.2709,-1.2974,0.0,0.0,0.0,0.0,0.0,0.0,0.0,0.0,0.0,0.0,-1.6851,-1.7236,-1.5852,0.0,0.0,0.0,0.0,0.0,0.0,-1.5245,-1.535,-1.5194,0.0,0.0,0.0,0.0,0.0,0.0,0.0,0.0,0.0,0.0,-1.697,-1.678,-1.6894,-1.6908,-1.5562,-1.7689,-2.2075,-2.916,-3.3911,-3.7567,-4.0717,-4.302,-4.4184,-4.2664,-3.7283,-3.0968,-2.5599,-1.8495,-1.187,-0.7764,-0.6295,-0.6093,-0.7243,-0.8167,-0.9683,-1.2485,-1.4722,-1.7695,-2.2249,-2.5464,-2.907,-3.3835,-3.5386,-3.6777,0.0,0.0,-3.7952,-3.766,-3.643,-3.5787,-3.5955,-3.5363,-3.5318,-3.6039,-3.6079,-3.6231,-3.6512,-3.6512,-3.6383,-3.6079,-3.6079,-3.591,-3.5616,-3.6096,-3.6062,-3.5633,-3.6451,-3.6332,0.0,-3.596,-3.5893,-3.56,-3.56,-3.56,-3.56,-3.56,-3.56,-3.56,0.0,0.0,0.0,0.0,0.0,-1.2885,-1.424,-1.6086,-1.7392,-1.7551,-1.6652,-1.563,-1.4718,-1.3315,-1.2665,-1.319,-1.4367,0.0,0.0,0.0,0.0,0.0,0.0,0.0,0.0,0.0,-1.6421,-1.6817,-1.5739,-1.5655,0.0,0.0,-1.4027,-1.4604,0.0,0.0,0.0,0.0,0.0,0.0,0.0,0.0,0.0,0.0,0.0,0.0,0.0,0.0,0.0,0.0,0.0,-1.345,-1.0529,-1.0754,-1.3964,-2.3476,-2.9329,-3.3548,-3.7183,-4.0063,-4.1619,-3.9905,-3.4508,-2.8384,-2.3661,-1.6878,-1.0666,-0.7487,-0.6194,-0.5856,-0.6611,-0.7162,-0.8033,-0.9693,-1.1693,-1.4482,-1.8686,-2.1948,-2.5826,-3.1007,0.0,-3.4625,0.0,-3.7449,-3.75,-3.6524,-3.5591,-3.4841,-3.4365,-3.4121,-3.4325,-3.4981,-3.5005,-3.5005,-3.5005,-3.5005,-3.5005,-3.5005,-3.5207,-3.5299,-3.5333,-3.6112,-3.6146,-3.5633,-3.598,-3.5935,0.0,-3.5385,-3.5407,-3.56,-3.56,-3.56,-3.56,-3.56,-3.56,-3.56,0.0,0.0,0.0,0.0,0.0,0.0,-1.3712,-1.5224,-1.6202,-1.6124,-1.5591,-1.4691,-1.3365,-1.309,-1.2972,-1.2909,-1.3346,0.0,0.0,0.0,0.0,0.0,0.0,0.0,0.0,0.0,-1.6292,-1.5905,-1.6896,-1.7233,-1.6954,-1.5536,-1.5189,-1.5755,0.0,0.0,0.0,0.0,0.0,0.0,0.0,0.0,0.0,0.0,0.0,0.0,0.0,0.0,0.0,0.0,0.0,0.0,0.0,-0.8374,-0.9837,-1.6335,-2.1499,-2.6097,-3.0572,-3.3999,-3.6123,-3.5353,-3.1567,-2.6802,-2.2177,-1.6129,-1.0727,-0.7954,-0.6376,-0.5588,-0.5866,-0.6249,-0.6885,-0.8041,-1.0417,-1.3455,-1.7287,-2.1319,-2.5119,0.0,0.0,-3.0956,-3.3769,-3.5007,-3.5638,-3.5622,-3.4304,0.0,-3.3509,-3.2943,-3.2922,-3.3582,-3.3608,-3.3608,-3.3608,-3.3608,-3.3608,-3.3633,-3.4284,-3.46,-3.4624,-3.5316,-3.56,-3.556,-3.4911,-3.5005,0.0,-3.4894,-3.4988,-3.56,-3.56,-3.56,-3.56,-3.56,-3.56,-3.56,0.0,0.0,0.0,0.0,0.0,0.0,0.0,-1.4367,-1.5066,-1.5738,-1.4934,-1.4202,-1.3908,-1.3029,-1.2634,-1.3073,-1.4009,0.0,0.0,0.0,0.0,0.0,0.0,0.0,0.0,0.0,-1.5956,-1.6234,-1.642,-1.6941,-1.7692,-1.5326,-1.4487,-1.4961,-1.458,-1.4478,0.0,0.0,0.0,0.0,0.0,0.0,0.0,0.0,0.0,0.0,0.0,0.0,0.0,0.0,0.0,0.0,0.0,0.0,0.0,-0.8575,-1.4839,-2.1601,-2.5135,-2.822,-3.0219,-2.9263,-2.5785,-2.1744,-1.8423,-1.3446,-0.9092,-0.7571,-0.632,-0.5771,-0.6626,-0.6779,-0.6902,-0.7312,-0.918,-1.1503,-1.4093,-1.7858,0.0,-2.6542,-3.0591,-3.341,0.0,0.0,-3.447,-3.3562,-3.3081,-3.2616,-3.2157,-3.1959,-3.2394,-3.3556,-3.3582,-3.3582,-3.3582,-3.3582,-3.3582,-3.3582,-3.3811,-3.3912,-3.3912,-3.4153,-3.4227,-3.4227,-3.4012,-3.4037,-3.4252,-3.4503,-3.4736,-3.4965,-3.5407,-3.56,-3.56,-3.56,-3.56,-3.56,0.0,0.0,0.0,0.0,0.0,0.0,0.0,-1.344,-1.3849,-1.4657,-1.3998,-1.3508,-1.3653,-1.272,-1.2276,-1.2741,-1.3501,0.0,0.0,0.0,0.0,0.0,0.0,0.0,-1.6157,-1.6069,-1.62,-1.654,-1.6928,-1.7468,-1.8128,-1.5495,-1.439,-1.454,-1.3734,-1.3385,0.0,0.0,0.0,0.0,0.0,0.0,-1.1722,0.0,0.0,0.0,0.0,0.0,0.0,0.0,0.0,0.0,0.0,0.0,0.0,0.0,-0.8521,-1.3963,-1.7815,-2.086,-2.2769,-2.1922,-1.9186,-1.6229,-1.4406,-1.0406,-0.7029,-0.683,-0.5919,-0.5514,-0.665,-0.6677,-0.6579,-0.6789,-0.8453,-1.0605,-1.3044,-1.6907,0.0,-2.6281,0.0,0.0,0.0,-3.3517,-3.3395,-3.2572,-3.2512,-3.2198,-3.154,-3.1511,-3.1894,-3.2799,-3.2826,-3.2826,-3.2826,-3.2826,-3.2826,-3.2826,-3.3077,-3.3209,-3.3235,-3.3479,-3.3582,-3.3582,-3.3582,-3.3735,0.0,-3.4431,-3.4759,-3.5028,-3.5447,-3.56,-3.56,-3.56,-3.56,-3.56,0.0,0.0,0.0,0.0,0.0,0.0,0.0,-1.2505,-1.265,-1.3073,-1.2899,-1.2736,-1.2774,-1.2266,-1.1991,-1.2101,0.0,0.0,0.0,0.0,0.0,0.0,0.0,0.0,-1.5612,-1.6426,-1.6828,-1.6803,-1.81,-1.8582,-1.8237,-1.6009,-1.4808,-1.4483,-1.285,-1.2153,-1.2179,-1.1988,-1.203,-1.2174,-1.1674,-1.1392,0.0,0.0,0.0,0.0,0.0,0.0,0.0,0.0,0.0,0.0,0.0,0.0,0.0,0.0,0.0,0.0,0.0,-1.2331,-1.4293,-1.3755,-1.2107,-1.0493,-1.0002,-0.7035,0.0,-0.5644,-0.5206,-0.4984,-0.6118,-0.6195,-0.6218,-0.6596,-0.8327,-1.0761,-1.3933,-1.8338,0.0,0.0,-2.9064,0.0,-3.036,-3.1675,-3.2497,-3.2422,-3.2437,-3.2123,-3.1466,-3.1436,-3.1406,-3.1376,-3.1361,-3.1406,-3.1511,-3.1451,-3.1451,-3.1511,-3.2142,-3.2473,-3.2532,-3.3156,-3.3453,0.0,-3.3453,-3.3795,-3.4382,-3.4479,-3.4894,-3.547,-3.556,-3.56,-3.56,-3.56,-3.56,-3.56,0.0,0.0,0.0,0.0,0.0,0.0,0.0,0.0,0.0,0.0,-1.2767,-1.2855,-1.2668,-1.2386,-1.221,0.0,0.0,0.0,0.0,0.0,0.0,0.0,0.0,0.0,-1.5744,-1.6043,-1.6429,-1.688,-1.7712,-1.8109,-1.8111,-1.6343,-1.5292,-1.4835,-1.3882,-1.3248,-1.2899,-1.237,-1.1837,-1.1386,-1.1362,-1.0746,0.0,0.0,0.0,0.0,-0.6919,-0.6235,0.0,0.0,0.0,0.0,0.0,0.0,0.0,0.0,0.0323,0.0055,-0.1388,0.0,-0.8492,-0.7197,-0.6499,-0.572,0.0,-0.3132,-0.2639,-0.3283,-0.4221,-0.5235,-0.6322,-0.7355,-0.8114,-0.8296,-0.9813,-1.2163,-1.5618,0.0,0.0,-2.7797,-3.0248,-3.1184,-2.9507,-3.1261,-3.2273,-3.1765,-3.1735,-3.1436,-3.0776,-3.0746,-3.0522,-3.0058,-3.0043,-3.0522,-3.1496,-3.0972,-3.0972,-3.1496,-3.1155,-3.1255,-3.1768,-3.1923,-3.1992,-3.1992,-3.1992,-3.2089,-3.2324,-3.3401,-3.3937,-3.4178,-3.5184,-3.56,-3.56,-3.56,-3.56,-3.56,0.0,0.0,0.0,0.0,0.0,0.0,0.0,0.0,0.0,0.0,0.0,0.0,0.0,0.0,0.0,0.0,0.0,0.0,0.0,0.0,0.0,0.0,0.0,-1.525,-1.5285,-1.5812,-1.6383,-1.6984,-1.7688,-1.8155,-1.8345,-1.68,-1.5638,-1.4803,-1.3313,-1.2353,-1.1794,-1.1302,-1.1029,-1.0877,-1.0328,0.0,0.0,0.0,0.0,0.0,-0.5713,-0.4756,0.0,-0.3107,-0.2323,-0.1432,0.0,0.0,0.0,0.0,0.1776,0.1961,0.1933,-0.0905,-0.3634,-0.2685,-0.2011,-0.1526,-0.1331,-0.0892,-0.0999,-0.2753,-0.4285,-0.5851,-0.7566,-0.9091,-1.0162,-1.0415,-1.2701,-1.5708,0.0,0.0,-2.6755,-2.8282,-2.9904,-3.0699,0.0,-3.129,-3.1884,-3.1525,-3.1511,-3.1212,-3.0537,-3.0507,-3.0223,-2.9636,-2.9606,-2.9924,-3.0627,-3.0268,-3.0268,-3.0642,-3.0552,-3.0702,-3.1047,-3.1361,-3.1511,-3.1524,-3.1853,-3.2007,-3.2104,-3.3505,-3.4062,-3.4161,-3.5184,-3.56,-3.56,-3.56,-3.56,-3.56,0.0,0.0,0.0,0.0,0.0,0.0,0.0,0.0,0.0,0.0,0.0,0.0,0.0,0.0,0.0,0.0,0.0,0.0,0.0,0.0,0.0,0.0,-1.4621,-1.477,-1.4756,-1.5727,-1.6526,-1.715,-1.7855,-1.8448,-1.8878,-1.7342,-1.592,-1.4538,-1.225,-1.0873,-1.0301,-0.9919,-0.9991,-1.0217,-0.9078,0.0,0.0,0.0,0.0,0.0,0.0,0.0,0.0,-0.2075,-0.1107,-0.0072,0.0527,0.0,0.0,0.0,0.0,0.0,0.2814,0.1344,-0.0145,0.0437,0.1386,0.1736,0.0,0.0181,-0.0138,-0.3214,-0.5055,-0.6855,-0.9291,-1.0996,-1.2258,-1.2912,-1.64,0.0,-2.4067,-2.5366,-2.6707,-2.8884,-2.9394,0.0,-3.082,-3.1159,-3.1277,-3.1173,-3.1158,-3.0888,-3.0253,-3.0208,-2.9924,-2.9322,-2.9292,-2.9292,-2.9292,-2.9412,-2.9517,-2.9621,-3.0118,-3.0417,-3.0522,-3.1182,-3.1451,-3.1375,0.0,0.0,-3.2377,-3.3864,-3.4455,-3.4528,-3.5293,-3.56,-3.56,-3.56,-3.56,-3.56,0.0,0.0,0.0,0.0,0.0,0.0,0.0,0.0,0.0,0.0,0.0,0.0,0.0,0.0,0.0,0.0,0.0,0.0,0.0,0.0,0.0,-1.4207,-1.4501,-1.476,-1.5026,-1.5853,-1.6637,-1.7351,-1.7975,-1.8809,-1.9759,-1.8056,-1.6221,-1.4264,-1.2211,-1.1136,-1.0819,-0.998,-0.923,-0.8563,-0.8299,0.0,0.0,0.0,0.0,0.0,0.0,0.0,0.0,-0.0786,-0.0017,0.0575,0.1735,0.0,0.0,0.0,0.0,0.0,0.2863,0.1384,0.026,0.2234,0.2915,0.2727,0.1322,0.0207,-0.1281,-0.3981,-0.6375,-0.8657,-1.0864,-1.2526,-1.4187,-1.6057,-2.0424,-2.4788,0.0,0.0,-3.0327,-2.9909,0.0,-3.0984,-2.851,-2.9605,-3.0232,-2.9696,-2.9624,-2.9418,-2.8925,-2.8891,-2.8577,-2.7929,-2.7899,-2.7899,-2.7899,-2.8457,-2.9026,-2.9606,-2.9696,-2.9998,-3.0522,-3.1182,-3.1182,-3.0687,0.0,-3.1366,-3.0951,-3.294,-3.3761,-3.3887,-3.5115,-3.56,-3.56,-3.56,-3.56,-3.56,0.0,0.0,0.0,0.0,0.0,0.0,0.0,0.0,0.0,0.0,0.0,0.0,0.0,0.0,0.0,0.0,0.0,0.0,0.0,0.0,-1.3304,-1.4011,-1.4394,-1.4975,-1.5786,-1.6582,-1.7575,-1.8753,-1.897,-1.9445,-2.0162,-1.7426,-1.503,-1.2939,-1.144,-1.0409,-0.9776,-0.9042,-0.8592,-0.8294,0.0,0.0,0.0,0.0,0.0,0.0,0.0,0.0,0.0,0.0,0.0323,0.0886,0.1837,0.0,0.0,0.0,0.0,0.0,0.4375,0.3616,0.2305,0.0762,-0.0395,-0.1671,-0.3518,-0.4606,-0.5832,-0.798,-0.9858,-1.1581,-1.3143,-1.5237,-1.8092,-2.2355,0.0,-2.6701,-2.895,-2.9406,-2.9481,0.0,0.0,-3.0206,-2.9198,-2.9533,-2.968,-2.9318,-2.8987,-2.8749,-2.8626,-2.8607,-2.8278,-2.7615,-2.76,-2.76,-2.76,-2.7914,-2.8214,-2.8528,-2.8903,-2.9205,-2.9505,-3.0178,-3.0313,-3.0028,0.0,-3.0298,-3.018,-3.2226,-3.2823,-3.2658,-3.4774,-3.5346,-3.5064,-3.5447,-3.56,-3.56,0.0,0.0,0.0,0.0,0.0,0.0,0.0,0.0,0.0,0.0,0.0,0.0,0.0,0.0,0.0,0.0,0.0,0.0,0.0,-1.2291,-1.303,-1.3851,-1.4767,-1.5619,-1.6368,-1.7164,-1.836,-1.9952,-1.9976,-1.9918,-1.9748,-1.6575,-1.3964,-1.1879,-1.0684,-0.9696,-0.8926,-0.8252,-0.8049,-0.8063,0.0,0.0,0.0,0.0,0.0,0.0,0.0,0.0,0.0,0.0,0.0,0.0,0.0,0.0,0.0,0.3619,0.406,0.4435,0.5383,0.4777,0.2827,-0.1495,-0.3407,-0.5214,-0.892,-1.0036,-1.0934,-1.3222,-1.4347,-1.5166,-1.5969,-1.8172,-2.1652,-2.7073,-2.7748,-2.8231,-3.0062,-2.9507,-2.9073,-2.9538,-2.9582,-2.9635,-2.9824,-2.942,-2.9074,-2.8857,-2.8267,-2.7977,-2.8132,-2.7979,-2.7724,-2.7375,-2.736,-2.7435,-2.76,-2.76,-2.76,-2.76,-2.8263,-2.8607,-2.8622,-2.928,-2.9517,-2.937,-2.9669,-2.9808,-2.997,-3.182,-3.2441,-3.2449,-3.4526,-3.5186,-3.5006,-3.5447,-3.5672,-3.5727,0.0,0.0,0.0,0.0,0.0,0.0,0.0,0.0,0.0,0.0,0.0,0.0,0.0,0.0,0.0,0.0,0.0,0.0,0.0,-1.187,-1.2731,-1.3846,-1.6028,-1.6918,-1.6314,-1.7094,-1.836,-2.0096,-2.0565,-1.9884,-1.8035,-1.604,-1.4022,-1.2016,-1.0379,-0.9577,-0.9384,-0.8354,-0.7632,-0.7131,-0.6281,0.0,0.0,0.0,0.0,0.0,0.0,0.0,0.0,0.0,0.0,0.0,0.0,0.0,0.1907,0.3024,0.3379,0.3598,0.4602,0.2583,-0.0536,-0.348,-0.313,-0.4101,-1.1983,-1.3946,-1.5203,-1.9057,-1.9629,-1.9426,-1.9464,-2.0941,-2.3325,-2.6885,-2.8488,-3.0454,-3.3741,0.0,-3.1959,-3.1407,-3.1332,-3.0555,-2.8627,-2.8383,-2.811,-2.7493,-2.6834,-2.6547,-2.6742,-2.6153,-2.6078,-2.6632,-2.6662,-2.6986,-2.7585,-2.76,-2.76,-2.76,-2.8263,-2.8607,-2.8622,-2.928,-2.925,-2.8742,-2.9924,-3.0467,-3.0623,-3.1972,-3.3258,-3.4385,-3.4533,-3.5271,-3.6201,-3.5749,-3.592,-3.6184,0.0,0.0,0.0,0.0,0.0,0.0,0.0,0.0,0.0,0.0,0.0,0.0,0.0,0.0,0.0,0.0,0.0,0.0,0.0,-1.1305,-1.2322,-1.3307,-1.4905,-1.6215,-1.7153,-1.8405,-1.9895,-2.1599,-2.1167,-1.9577,-1.6931,-1.4995,-1.2941,-1.08,-0.9408,-0.8755,-0.8622,-0.7506,-0.7031,-0.698,-0.6254,-0.5869,0.0,0.0,0.0,0.0,0.0,0.0,0.0,0.0,0.1056,0.1204,0.1375,0.1873,0.2484,0.2878,0.3456,0.4092,0.4552,0.202,-0.1482,-0.4525,-0.6285,-0.8929,-1.5291,-1.7301,-1.8294,-2.0022,-2.1052,-2.1512,-2.1054,-2.2813,-2.4884,-2.6619,-2.9021,-3.1166,-3.2541,-3.2254,-3.147,-3.0323,-3.0284,-2.9615,-2.7778,-2.7356,-2.7046,-2.6693,-2.5759,-2.5425,-2.5941,-2.5749,-2.5719,-2.5974,-2.6378,-2.6707,-2.6986,-2.739,-2.76,-2.76,-2.7869,-2.7989,-2.8004,-2.8244,-2.8229,-2.8004,-2.8498,-2.893,-2.939,-3.0704,-3.151,-3.2056,-3.3328,-3.4669,-3.5876,-3.5672,-3.5739,-3.5774,0.0,0.0,0.0,0.0,0.0,0.0,0.0,0.0,0.0,0.0,0.0,0.0,0.0,0.0,0.0,0.0,0.0,0.0,-0.9535,-1.0744,-1.1876,-1.2927,-1.4337,-1.5725,-1.7068,-1.8345,-2.0025,-2.2157,-2.0766,-1.8813,-1.6325,-1.4098,-1.2071,-1.0277,-0.9009,-0.844,-0.8322,-0.7189,-0.6908,-0.7185,-0.6745,-0.6501,0.0,0.0,0.0,0.0,0.0,0.0,0.0,0.0,0.0973,0.1204,0.1074,0.1773,0.2669,0.2747,0.2957,0.3187,0.3277,0.0719,-0.2767,-0.603,-0.8812,-1.2159,-1.7489,-1.9585,-2.0805,-2.2218,-2.2736,-2.2783,-2.2258,-2.3642,-2.5213,0.0,-2.9078,-3.1155,-3.1264,-3.1235,-3.0596,-2.8986,-2.8889,-2.8363,-2.6807,-2.6377,-2.6188,-2.6083,-2.512,-2.474,-2.5254,-2.5068,-2.5076,-2.5277,-2.5734,-2.6078,-2.6273,-2.6746,-2.7076,-2.7285,-2.7285,-2.7405,-2.76,-2.76,-2.76,-2.76,-2.7824,-2.8263,-2.8924,-3.0005,-3.0656,-3.1087,-3.2753,-3.4257,-3.5474,-3.5333,-3.536,-3.5372,0.0,0.0,0.0,0.0,0.0,0.0,0.0,0.0,0.0,0.0,0.0,0.0,0.0,0.0,0.0,0.0,0.0,0.0,-0.9125,-1.0195,-1.1434,-1.2839,-1.4695,-1.5719,-1.5807,-1.646,-1.8297,-2.134,-1.9156,-1.7449,-1.6202,-1.3401,-1.1631,-1.0751,-0.9399,-0.8798,-0.8714,-0.7647,-0.7391,-0.771,-0.7781,-0.7398,-0.6723,0.0,0.0,0.0,0.0,0.0,0.0,0.0,0.1057,0.149,0.1355,0.1676,0.2181,0.2567,0.1645,0.0499,0.0486,-0.1684,-0.4773,-0.8237,-1.0141,-1.2634,-1.8313,-2.0676,-2.275,-2.6509,-2.5205,-2.3366,-2.3238,-2.3332,-2.4038,-2.5891,-2.8607,-3.05,-3.0545,-3.0517,-2.9735,-2.7713,-2.7546,-2.7024,-2.5625,-2.5536,-2.56,-2.56,-2.4963,-2.459,-2.459,-2.3947,-2.3909,-2.456,-2.459,-2.4918,-2.5576,-2.5615,-2.5929,-2.6572,-2.6572,-2.6941,-2.7585,-2.76,-2.76,-2.763,-2.8293,-2.8971,-2.9635,-3.0164,-3.1127,-3.2357,-3.3081,-3.4148,-3.5195,-3.467,-3.4818,-3.5091,0.0,0.0,0.0,0.0,0.0,0.0,0.0,0.0,0.0,0.0,0.0,0.0,0.0,0.0,0.0,0.0,0.0,0.0,-0.9032,-1.0048,-1.1343,-1.3034,-1.4186,-1.5176,-1.5991,-1.6437,-1.6872,-1.7312,-1.6461,-1.5402,-1.4081,-1.2257,-1.1116,-1.0511,-0.904,-0.833,-0.8173,-0.7097,-0.714,-0.7905,-0.7942,-0.7901,-0.7701,0.0,0.0,0.0,0.0,0.0,0.0,0.0,0.0,0.0,0.1686,0.2214,0.2778,0.1896,0.1341,0.0684,-0.074,-0.393,-0.7305,-0.9132,-1.2373,-1.602,-1.9507,-2.0321,-2.1459,-2.5303,-2.4604,-2.3481,-2.4192,-2.468,0.0,-2.5207,-2.7445,-2.9009,-2.8546,-2.8463,-2.7865,-2.6272,-2.6139,-2.5829,-2.4908,-2.4873,-2.4903,-2.4903,-2.3879,-2.3251,-2.3251,-2.3077,-2.3062,-2.3251,-2.4126,-2.4709,-2.4889,-2.5352,-2.5704,-2.5899,-2.5899,-2.6243,-2.6926,-2.739,-2.7345,-2.6941,-2.7615,-2.8247,-2.8878,-2.9474,-3.0226,-3.1055,-3.1267,-3.1909,-3.2737,-3.2989,-3.3189,-3.3268,0.0,0.0,0.0,0.0,0.0,0.0,0.0,0.0,0.0,0.0,-0.6626,-0.645,0.0,0.0,0.0,0.0,0.0,0.0,0.0,-0.9949,-1.1248,-1.2933,-1.3945,-1.4757,-1.5362,-1.5554,-1.5193,-1.4295,-1.4467,-1.4062,-1.3053,-1.1885,-1.1178,-1.0793,-0.9182,-0.8329,-0.8023,-0.7224,-0.7452,-0.8379,-0.8714,-0.8737,-0.8455,0.0,0.0,0.0,0.0,0.0,0.0,0.0,0.0,0.0,0.2214,0.2593,0.2849,0.1351,0.0184,-0.1126,-0.3431,-0.6651,-0.9734,-1.1418,-1.4309,-1.7374,-1.9739,-2.142,-2.3157,-2.5499,-2.4804,-2.3939,-2.459,-2.4764,0.0,-2.4717,-2.6674,-2.7874,-2.6956,-2.704,-2.6579,-2.4897,-2.4548,-2.4159,-2.3416,-2.3422,-2.3439,-2.3439,-2.2742,-2.2298,-2.2298,-2.2298,-2.2298,-2.2298,-2.3056,-2.3666,-2.4128,-2.4334,-2.4815,-2.5516,-2.5303,-2.5397,-2.5839,-2.6497,-2.6572,-2.6243,-2.6926,-2.7716,-2.8535,-2.8896,-2.9457,-3.006,-3.006,-3.0516,-3.1212,-3.156,-3.1714,-3.1739,0.0,0.0,0.0,0.0,0.0,0.0,0.0,0.0,0.0,0.0,-0.6075,-0.5928,0.0,0.0,0.0,0.0,0.0,0.0,0.0,0.0,-1.1276,-1.2705,-1.3946,-1.4518,-1.4297,-1.4307,-1.3688,-1.2451,-1.3151,-1.3272,-1.2841,-1.2066,-1.1618,-1.1362,-0.9736,-0.8739,-0.8236,-0.7788,-0.8094,-0.8941,-0.9737,-0.9591,-0.8771,-0.7336,0.0,0.0,0.0,0.0,0.0,0.0,0.0,0.0,0.2829,0.2869,0.26,0.0934,-0.135,-0.3947,-0.6749,-0.9299,-1.1788,-1.4261,-1.6002,-1.7596,-1.9549,-2.3276,-2.6307,-2.6188,-2.5242,-2.4446,-2.4588,-2.4015,-2.3783,-2.4552,-2.6168,-2.6911,-2.5689,-2.5996,-2.5593,-2.3664,-2.2931,-2.2341,-2.1664,-2.1663,-2.1695,-2.1695,-2.1635,-2.1605,-2.1605,-2.1605,-2.1605,-2.1605,-2.1665,-2.2208,-2.325,-2.2874,-2.3525,-2.5145,-2.4715,-2.4515,-2.453,-2.5262,-2.5615,-2.5644,-2.6303,-2.7258,-2.8338,-2.84,-2.8732,-2.9248,-2.9248,-2.9653,-3.0241,-3.0311,-3.0311,-3.0403,0.0,0.0,0.0,0.0,0.0,0.0,0.0,0.0,0.0,0.0,0.0,0.0,0.0,0.0,0.0,0.0,0.0,0.0,0.0,0.0,-1.217,-1.3277,-1.4195,-1.4555,-1.4297,-1.4843,-1.4621,-1.3558,-1.3021,-1.2662,-1.2501,-1.2062,-1.1819,-1.174,-1.0426,-0.9473,-0.8772,-0.8011,-0.8064,-0.8718,-0.9432,-0.8876,-0.7483,-0.6375,-0.4182,0.0,0.0,0.0,0.0,0.0,0.0,0.0,0.31,0.3082,0.2731,0.0701,-0.1291,-0.3547,-0.6712,-0.9266,-1.1647,-1.4185,-1.7438,-2.0261,-2.1246,-2.2951,-2.4035,-2.2983,-2.2945,-2.3439,-2.4486,-2.3691,-2.3449,-2.5103,-2.5307,-2.5143,-2.4859,-2.452,-2.3958,-2.2978,-2.2302,-2.1845,-2.1686,-2.1689,-2.1695,-2.1695,-2.1216,-2.0932,-2.0932,-2.0932,-2.0932,-2.0932,-2.1425,-2.1814,-2.2053,-2.2495,-2.29,-2.3275,-2.3644,-2.3819,-2.3864,-2.5061,-2.5615,-2.5644,-2.6303,-2.6774,-2.7046,-2.7574,-2.787,-2.7993,-2.7993,-2.8069,-2.829,-2.8761,-2.8927,-2.9022,0.0,0.0,0.0,0.0,0.0,0.0,0.0,0.0,0.0,0.0,0.0,0.0,0.0,0.0,0.0,0.0,0.0,0.0,0.0,0.0,-1.2316,-1.3907,-1.4598,-1.4797,-1.4503,-1.5472,-1.5315,-1.3949,-1.4356,-1.3952,-1.2774,-1.2791,-1.2531,-1.197,-1.0574,-0.9595,-0.8924,-0.7862,-0.7749,-0.8286,-0.8543,-0.7848,-0.6553,-0.5413,-0.3267,-0.0713,0.0433,0.0,0.0,0.0,0.0,0.0,0.0,0.0,0.2295,0.0338,-0.1592,-0.3774,-0.6974,-0.9253,-1.1453,-1.4509,-1.7265,-1.9379,-1.9973,-2.0633,-2.0942,-2.0512,-2.1434,-2.2414,-2.2814,-2.23,-2.2171,-2.3201,-2.3547,-2.358,-2.3244,-2.2931,-2.2489,-2.1818,-2.1167,-2.079,-2.075,-2.0737,-2.0737,-2.0737,-2.0423,-2.0228,-2.0228,-2.0228,-2.0228,-2.0228,-2.0557,-2.102,-2.1603,-2.1697,-2.2014,-2.2559,-2.2661,-2.2862,-2.3191,-2.4193,-2.4822,-2.5158,-2.5839,-2.6303,-2.6632,-2.733,-2.76,-2.76,-2.76,-2.76,-2.765,-2.7944,-2.8067,-2.8165,0.0,0.0,0.0,0.0,0.0,0.0,0.0,0.0,0.0,0.0,0.0,0.0,0.0,0.0,0.0,0.0,0.0,0.0,0.0,0.0,0.0,-1.4239,-1.4675,-1.4739,-1.4503,-1.5881,-1.5884,-1.4433,-1.6104,-1.5895,-1.3903,-1.3977,-1.3444,-1.236,-1.0847,-0.9828,-0.9178,-0.7897,-0.7514,-0.7727,-0.756,-0.6768,-0.5542,-0.4395,-0.2415,-0.0128,0.0799,0.1686,0.2469,0.2666,0.0,0.0,0.0,0.0,0.1753,0.0064,-0.1776,-0.394,-0.6949,-0.916,-1.1387,-1.4698,-1.6323,-1.725,-1.7775,-1.8058,-1.8342,-1.877,-2.023,-2.1284,-2.0836,-2.0731,-2.076,-2.0885,-2.1718,-2.2209,-2.1754,-2.1599,-2.1328,-2.0782,-2.0169,-1.9766,-1.9704,-1.9708,-1.9708,-1.9708,-1.9708,-1.9708,-1.9708,-1.9708,-1.9708,-1.9708,-1.9708,-2.0179,-2.1193,-2.0857,-2.1156,-2.2111,-2.1821,-2.2119,-2.2868,-2.3251,-2.3739,-2.4297,-2.4974,-2.558,-2.6135,-2.6796,-2.7136,-2.7214,-2.7214,-2.7214,-2.724,-2.7357,-2.7408,-2.7509,0.0,0.0,0.0,0.0,0.0,0.0,0.0,0.0,0.0,0.0,-0.5399,-0.4938,0.0,0.0,0.0,0.0,0.0,0.0,-1.0204,0.0,0.0,-1.3594,-1.3584,-1.3595,-1.3658,-1.5591,-1.6464,-1.6165,-1.7054,-1.724,-1.6713,-1.5447,-1.4306,-1.328,-1.2182,-1.1185,-1.0213,-0.8934,-0.791,-0.7124,-0.7096,-0.5809,-0.3872,-0.3234,-0.1405,0.0903,0.1725,0.2628,0.3361,0.2988,0.3305,0.0,0.0,0.0,0.173,0.028,-0.121,-0.2952,-0.5639,-0.8851,-1.1909,-1.3833,-1.5185,-1.613,-1.6546,-1.7441,-1.8229,-1.8304,-1.889,-1.955,-2.0022,-2.0021,-2.0173,-2.0801,-2.0946,-2.1141,-2.162,-2.1201,-2.0798,-2.0701,-2.0122,-1.9724,-1.9695,-1.9708,-1.9708,-1.9708,-1.9708,-1.9708,-1.9708,-1.9708,-1.9708,-1.9708,-1.9708,-1.9789,-1.9936,-2.046,-2.0771,-2.0937,-2.1449,-2.2323,-2.346,-2.3032,-2.2875,-2.2981,-2.3664,-2.3965,-2.4052,-2.4651,-2.5224,-2.5701,-2.5701,-2.5701,-2.5783,-2.6416,-2.6642,-2.6747,0.0,0.0,0.0,0.0,0.0,0.0,0.0,0.0,0.0,0.0,0.0,-0.5257,0.0,0.0,0.0,-0.6356,-0.7554,-0.9078,-1.1012,-1.1896,-1.2601,-1.3186,-1.3526,-1.3612,-1.3451,-1.5256,-1.5841,-1.509,-1.6401,-1.6661,-1.5949,-1.5418,-1.4802,-1.4089,-1.3179,-1.2082,-1.081,-0.9338,-0.8064,-0.6991,-0.6276,-0.5069,-0.359,-0.2413,-0.0888,0.0736,0.1777,0.2608,0.318,0.2974,0.2869,0.2721,0.2108,0.0,0.0,0.0,-0.0919,-0.2402,-0.5139,-0.8177,-1.093,-1.2392,-1.3805,-1.5052,-1.5791,-1.6351,-1.6939,-1.7608,-1.794,-1.8197,-1.8498,-1.8464,-1.8595,-1.9228,-1.9282,-1.9561,-2.0437,-2.007,-1.98,-2.0106,-1.9875,-1.9701,-1.9713,-1.9708,-1.9708,-1.9708,-1.9708,-1.9708,-1.9708,-1.9708,-1.9708,-1.9708,-1.9708,-1.9708,-1.9708,-1.9989,-2.0139,-2.0154,-2.0827,-2.1268,-2.1536,-2.1949,-2.2534,-2.3231,-2.3557,-2.3669,-2.3695,-2.4281,-2.4664,-2.4928,-2.526,-2.5398,-2.5425,-2.5755,-2.6149,-2.6537,0.0,0.0,0.0,0.0,0.0,0.0,0.0,0.0,0.0,0.0,0.0,0.0,0.0,0.0,0.0,0.0,-0.7319,-0.9117,-1.156,-1.2,-1.2337,-1.2699,-1.3059,-1.3167,-1.3008,-1.465,-1.5014,-1.3996,-1.5543,-1.5887,-1.5134,-1.5439,-1.5415,-1.5091,-1.4182,-1.292,-1.1344,-0.9941,-0.8464,-0.6963,-0.5958,-0.4952,-0.391,-0.2838,-0.1664,-0.0464,0.0752,0.1653,0.2299,0.2373,0.22,0.1872,0.1451,0.1005,0.0,0.0,0.0,-0.2148,-0.4558,-0.7067,-0.9362,-1.0759,-1.2265,-1.3692,-1.4728,-1.51,-1.5552,0.0,-1.6948,-1.6993,-1.714,-1.7377,-1.7608,-1.7854,-1.8007,-1.8438,-1.9369,-1.9146,-1.9098,-1.9644,-1.9706,-1.9695,-1.9698,-1.9708,-1.9708,-1.9708,-1.9708,-1.9708,-1.9708,-1.9708,-1.9708,-1.9708,-1.9708,-1.9708,-1.9708,-1.9708,-1.9798,-1.9944,-2.0143,-2.0289,-2.039,-2.0984,-2.1931,-2.3098,-2.3007,-2.2949,-2.2965,-2.3357,-2.3689,-2.3987,-2.4433,-2.4703,-2.4838,-2.5035,-2.5481,-2.5987,0.0,0.0,0.0,0.0,0.0,0.0,0.0,0.0,0.0,0.0,0.0,0.0,-0.4058,-0.4081,-0.4599,-0.5815,-0.6857,-0.8608,-1.1349,-1.1547,-1.1664,-1.1952,-1.1444,0.0,-1.1878,-1.3592,-1.4313,-1.3999,-1.4986,-1.5564,-1.5759,-1.6152,-1.6435,-1.6533,-1.5351,-1.3795,-1.1995,-1.1216,-0.9347,-0.6895,-0.6637,-0.5773,-0.4716,-0.5263,-0.4493,-0.2963,-0.1744,-0.0483,0.067,0.0911,0.149,0.191,0.0879,0.0667,0.0753,0.0,0.0,0.0,-0.3556,-0.5354,-0.7286,-0.9081,-1.0528,-1.184,-1.2963,-1.3718,-1.4467,-1.5484,-1.569,-1.5856,-1.6439,-1.7441,-1.7985,-1.7425,-1.7767,-1.8302,-1.8855,-1.8921,-1.9105,-1.9654,-1.9702,-1.9702,-1.9708,-1.9708,-1.9708,-1.9708,-1.9708,-1.9708,-1.9708,-1.9708,-1.9708,-1.9708,-1.9708,-1.9708,-1.9708,-1.9708,-2.0019,-2.0628,-1.9524,-1.9921,-2.1578,-2.0489,-2.0659,-2.1781,-2.1202,-2.0912,-2.0879,-2.0876,-2.1494,-2.2425,-2.245,-2.2762,-2.3305,-2.4089,-2.4379,-2.4595,0.0,0.0,0.0,0.0,0.0,0.0,0.0,0.0,0.0,0.0,0.0,0.0,0.0,-0.4419,-0.4722,-0.562,-0.7223,-0.9165,-1.1477,-1.1666,-1.1811,-1.2074,-1.205,-1.222,-1.2628,-1.3325,-1.3661,-1.3613,-1.3956,-1.3782,-1.3188,-1.4241,-1.4874,-1.5197,-1.61,-1.529,-1.3168,-1.1922,-0.9954,-0.7669,-0.7693,-0.7113,-0.6201,-0.5831,-0.5722,-0.5492,-0.3541,-0.2629,-0.2317,-0.222,-0.1334,-0.0328,-0.0625,-0.0377,-0.0017,-0.0219,-0.0941,-0.1917,-0.3049,-0.4427,-0.6011,-0.7896,-0.9133,-1.0282,-1.1897,-1.2614,-1.319,-1.4014,-1.493,-1.5602,-1.5548,-1.64,-1.7145,-1.7289,-1.7167,-1.7504,-1.8727,-1.8593,-1.8708,-1.9603,-1.9708,-1.9708,-1.9708,-1.9708,-1.9708,-1.9708,-1.9708,-1.9708,-1.9708,-1.9708,-1.9708,-1.9708,-1.9708,-1.9708,-1.9708,-1.9708,-1.9649,-1.9553,-1.9103,-1.8888,-1.8856,-1.8833,-1.9244,-2.0009,-1.9746,-2.0077,-2.0746,-2.0714,-2.093,-2.132,-2.1644,-2.1895,-2.215,-2.2779,-2.3327,-2.3934,0.0,0.0,0.0,0.0,0.0,0.0,0.0,0.0,0.0,-0.7226,0.0,0.0,0.0,0.0,-0.5116,-0.6147,-0.7999,-0.9792,-1.1441,-1.1758,-1.2002,-1.2208,-1.247,-1.276,-1.31,-1.3513,-1.3458,-1.289,-1.3087,-1.2553,-1.1339,-1.2726,-1.3552,-1.3939,-1.5511,-1.5315,-1.368,-1.2315,-1.0459,-0.8468,-0.894,-0.854,-0.7639,-0.7777,-0.7873,-0.7737,-0.603,-0.5521,-0.5639,-0.5449,-0.4346,-0.302,-0.2834,-0.1869,-0.0849,-0.1078,-0.1485,-0.2046,-0.2885,-0.4002,-0.529,-0.677,-0.781,-0.8888,-1.0385,-1.1114,-1.1758,-1.2637,-1.3858,-1.4805,-1.4971,-1.5654,-1.6377,-1.6951,-1.6731,-1.693,-1.8204,-1.8224,-1.8438,-1.9332,-1.9584,-1.9708,-1.9708,-1.9708,-1.9708,-1.9708,-1.9708,0.0,-1.9708,-1.9708,-1.9708,-1.9708,-1.9708,-1.9708,-1.9708,-1.9708,-1.953,-1.9169,-1.8798,-1.8341,-1.7831,-1.7908,-1.8476,-1.938,-1.9112,-1.9683,-2.0785,-2.05,-2.0515,-2.0729,-2.1094,-2.1358,-2.1531,-2.1895,-2.2349,-2.299,0.0,0.0,0.0,0.0,0.0,0.0,0.0,0.0,-0.7362,-0.7202,0.0,0.0,0.0,0.0,0.0,-0.7346,-0.9062,-1.0351,-1.1092,-1.1752,-1.2132,-1.2253,-1.2501,-1.2747,-1.3059,-1.4044,-1.3684,-1.1888,-1.249,-1.1972,-1.0484,-1.1842,-1.2628,-1.2962,-1.3572,-1.3691,-1.3367,-1.2357,-1.0854,-0.922,-1.0357,-0.9986,-0.9007,-1.1182,-1.1092,-0.9735,-0.9235,-0.9165,-0.9181,-0.8599,-0.7298,-0.588,-0.5549,-0.3714,-0.173,-0.1978,-0.2349,-0.2729,0.0,0.0,0.0,-0.5662,-0.6624,-0.765,-0.8387,0.0,-1.0215,-1.1387,-1.2412,-1.3477,-1.4674,-1.5238,-1.5728,-1.6355,-1.6488,-1.6701,-1.7209,-1.774,-1.8274,-1.8822,-1.9372,-1.9678,-1.9708,-1.9708,-1.9708,-1.9708,-1.9708,-1.9708,-1.9708,-1.9708,-1.9708,-1.9708,-1.9708,-1.9708,-1.9708,-1.9708,-1.969,-1.9657,-1.8612,-1.8389,-1.883,-1.7869,-1.8354,-1.9932,-1.9288,-1.9682,-2.0733,-2.0067,-2.0163,-2.0666,-2.0666,-2.0993,-2.1443,-2.1455,-2.1496,-2.1782,0.0,0.0,0.0,0.0,0.0,-0.7491,-0.7613,-0.7868,-0.7749,0.0,0.0,0.0,-0.5366,-0.5606,-0.6175,-0.7062,-0.821,-0.9175,-0.9914,-1.1173,-1.1728,-1.137,-1.2338,-1.2667,-1.2173,-1.3008,-1.2844,-1.1612,-1.1883,-1.1111,-0.9451,-1.0735,-1.1388,-1.1507,-1.2005,-1.2023,-1.1584,-1.0914,-1.0177,-0.9582,-1.0918,-1.0962,-1.0377,-1.1879,-1.2344,-1.21,-1.0986,-1.0702,-1.0864,-1.0845,-0.9018,-0.6484,-0.4862,-0.3906,-0.3399,-0.3315,-0.3627,-0.4021,-0.4197,0.0,0.0,0.0,0.0,0.0,0.0,0.0,-0.9658,-1.0029,-1.1705,-1.302,-1.2732,-1.3401,-1.4329,-1.5269,-1.6033,-1.6701,-1.7209,-1.7328,-1.7775,-1.8779,-1.8956,-1.9166,-1.9648,-1.9708,-1.9708,0.0,-1.9708,-1.9708,-1.9708,-1.9708,-1.9708,-1.9708,-1.9708,-1.9708,-1.9708,-1.9708,-1.9512,-1.9132,-1.8817,-1.8542,-1.8314,-1.8031,-1.8431,-1.9371,-1.9552,-1.9877,-2.0202,-1.9914,-1.9899,-2.0037,-2.0037,-2.0137,-2.0313,-2.0767,-2.1202,-2.1865,0.0,0.0,0.0,0.0,0.0,-0.7302,-0.7494,-0.7579,-0.7439,0.0,0.0,0.0,-0.576,-0.6007,-0.6348,-0.665,-0.7518,-0.8271,-0.8768,-0.9945,-1.0516,-1.0262,-1.1365,-1.1711,-1.1092,-1.199,-1.1813,-1.0499,-1.0652,-0.9954,-0.8472,-0.936,-0.9776,-0.9778,-1.0003,-1.0074,-0.9984,-0.9209,-0.908,-0.9517,-1.0916,-1.1253,-1.1085,-1.248,-1.2997,-1.2897,-1.2442,-1.2535,-1.2927,-1.3306,-1.153,-0.8848,-0.7086,-0.609,-0.561,-0.5602,-0.5644,-0.5723,-0.578,-0.5873,-0.592,-0.5753,0.0,0.0,-0.651,-0.7601,-0.8691,0.0,-1.0452,-1.1483,-1.148,-1.214,-1.311,-1.4414,-1.5325,-1.604,-1.6561,-1.6764,-1.72,-1.813,-1.8368,-1.8782,-1.9615,-1.9708,-1.9708,-1.9708,-1.9708,-1.9708,-1.9708,-1.9708,-1.9708,-1.9708,-1.9708,-1.9708,-1.9708,-1.9708,-1.9548,-1.9225,-1.9006,-1.8727,-1.8438,-1.8204,-1.8577,-1.945,-1.9767,-2.006,-2.0331,-2.0263,-2.0055,-1.9824,-2.0105,-2.0055,-1.9913,-2.0784,-2.1195,-2.1531,0.0,0.0,-0.5807,-0.6671,-0.6933,-0.716,-0.7629,-0.7173,-0.6782,0.0,-0.6543,-0.6281,-0.6227,-0.6251,-0.6227,-0.6093,-0.6889,-0.7428,-0.7499,-0.8319,-0.8847,-0.8961,-0.9868,-1.0197,-0.9838,-1.093,-1.0612,-0.883,-0.9149,-0.87,-0.7545,-0.7807,-0.7964,-0.8005,-0.7859,-0.8057,-0.8448,-0.7585,-0.7893,-0.9116,-1.0623,-1.1243,-1.1453,-1.3039,-1.3236,-1.2753,-1.3486,-1.4099,-1.4642,-1.5147,-1.3906,-1.1957,-1.0735,-0.9311,-0.815,-0.8376,-0.8115,-0.7722,-0.7732,-0.751,-0.7144,-0.6438,-0.6468,0.0,-0.59,-0.6672,-0.7759,0.0,-0.9031,-0.9524,-1.056,-1.1154,-1.2014,-1.3622,-1.4369,-1.4973,-1.5532,-1.6048,-1.6581,-1.706,-1.759,-1.8331,-1.9421,-1.9591,-1.9639,-1.9708,-1.9708,-1.9708,-1.9708,-1.9708,-1.9708,-1.9708,-1.9708,-1.9708,-1.9708,-1.9708,-1.9708,-1.969,-1.9225,-1.8987,-1.8968,-1.8496,-1.8826,-1.9814,-2.0006,-2.0301,-2.0598,-2.074,-2.042,-1.9875,-2.0535,-2.0434,-2.0067,-2.1256,-2.1414,-2.1269,0.0,-0.505,-0.5826,-0.6327,-0.678,-0.7221,-0.7641,-0.7366,-0.689,-0.6282,-0.5849,-0.5928,-0.6818,-0.6126,-0.5528,-0.5328,-0.5815,-0.6035,-0.5727,-0.6818,-0.7484,-0.7498,-0.8402,-0.8669,-0.8168,-0.9491,-0.9181,-0.7162,-0.823,-0.797,-0.6477,-0.6328,-0.647,-0.6826,-0.6577,-0.6529,-0.6666,-0.7099,-0.7645,-0.8393,-1.0511,-1.1747,-1.2421,-1.3513,-1.3581,-1.3113,-1.325,-1.3219,-1.3082,-1.2916,-1.3037,-1.2983,0.0,0.0,0.0,-1.0659,-1.027,-0.9897,-1.0263,-0.9811,-0.9029,0.0,0.0,0.0,-0.6357,-0.72,-0.8132,0.0,-0.8577,-0.9262,-0.9156,-0.9757,-1.0745,-1.2247,-1.2994,-1.3787,-1.4898,-1.5408,-1.5774,-1.5984,-1.6386,-1.7121,-1.8302,-1.8808,-1.9244,-1.9672,-1.9708,-1.9708,-1.9708,-1.9708,-1.9708,-1.9708,-1.9708,-1.9708,-1.9708,-1.9708,-1.9708,-1.9708,-1.9584,-1.9548,-1.9548,-1.9442,-1.928,-1.9171,-2.0695,-2.0557,-1.936,-2.0429,-2.0457,-1.9875,-2.0535,-2.0721,-2.0696,-2.1424,-2.196,-2.2459,-0.3488,-0.4332,-0.5346,-0.6333,-0.6884,-0.7301,-0.7553,-0.7148,-0.6657,-0.6259,-0.6286,-0.6457,-0.6708,-0.6113,-0.5443,-0.4803,-0.5017,-0.5083,-0.4778,-0.5433,-0.5987,-0.628,-0.6816,-0.6975,-0.6698,-0.7891,-0.7671,-0.6,-0.6877,-0.6779,-0.5744,-0.5545,-0.569,-0.6091,-0.5919,-0.5946,-0.6124,-0.6566,-0.758,-0.9015,-1.0263,-1.1287,-1.2215,-1.3212,-1.344,-1.3273,-1.383,-1.4284,-1.4569,-1.439,-1.428,0.0,-1.3707,-1.2871,-1.2089,0.0,-1.1879,-1.1328,0.0,0.0,0.0,-0.9622,0.0,0.0,0.0,-0.7485,-0.7603,-0.7815,-0.8173,-0.8459,-0.8495,-0.8832,-0.9679,-1.1428,-1.2001,-1.2625,-1.3697,-1.4174,-1.4618,-1.5184,-1.5211,-1.5852,-1.7535,-1.794,-1.8435,-1.9233,-1.9548,-1.9708,-1.9708,-1.9708,-1.9708,-1.9708,-1.9708,-1.9708,-1.9708,-1.9708,-1.9708,-1.9708,-1.9708,-1.9708,-1.9708,-1.9708,-1.9548,-1.9376,-2.0638,-2.0474,-1.9362,-2.0107,-2.0019,-1.9473,-2.0134,-2.0569,-2.0919,-2.1842,-2.2193,-2.2342,-0.257,-0.3573,-0.4838,-0.6383,-0.6982,-0.7309,-0.7493,-0.6925,-0.6499,-0.6505,-0.7027,-0.7218,-0.6701,-0.6384,-0.5813,-0.489,-0.4728,-0.4606,-0.4351,-0.442,-0.4683,-0.5166,-0.5329,-0.5421,-0.548,-0.6316,-0.6198,-0.5065,-0.546,-0.546,-0.5113,-0.4908,-0.5038,-0.5437,-0.5238,-0.5458,-0.5957,-0.6304,-0.7702,-0.9731,-1.0288,-1.1182,-1.222,-1.2927,-1.3334,-1.3606,-1.4425,-1.5449,-1.635,-1.6377,-1.5832,-1.5231,-1.5606,-1.4598,0.0,0.0,0.0,0.0,0.0,0.0,0.0,0.0,0.0,-1.0418,0.0,0.0,0.0,-0.8331,-0.8226,0.0,0.0,0.0,0.0,0.0,0.0,0.0,0.0,-1.2565,0.0,-1.4239,-1.4114,-1.4721,-1.6704,-1.7306,-1.7897,-1.8693,-1.9324,-1.9645,-1.9548,-1.9639,-1.9708,-1.9708,-1.9708,-1.9708,-1.9708,-1.9708,-1.9708,-1.9708,-1.9708,-1.9708,-1.9708,-1.9708,-1.9639,-1.9578,-2.0352,-2.0206,-1.9407,-1.9656,-1.9447,-1.9064,-1.9737,-2.0263,-2.0784,-2.2049,-2.217,-2.1875,-0.2009,-0.3269,-0.4619,-0.6161,-0.6753,-0.7169,-0.7521,-0.7117,-0.6786,-0.6907,-0.7413,-0.7686,-0.7561,-0.7153,-0.6713,-0.6304,-0.5511,-0.4879,-0.451,-0.417,-0.4001,-0.4078,-0.4202,-0.4417,-0.4727,-0.4952,-0.48,-0.4242,-0.4291,-0.4339,-0.4403,-0.3983,-0.4049,-0.4517,-0.3854,-0.4245,-0.5484,-0.6802,-0.8098,-0.9427,-1.1234,-1.2853,-1.4092,-1.3463,-1.3757,-1.4498,-1.4274,-1.4871,-1.5807,0.0,-1.6001,-1.6064,0.0,-1.5668,-1.5097,-1.5112,0.0,0.0,0.0,0.0,0.0,0.0,-1.2517,0.0,0.0,0.0,-1.0173,-0.9565,0.0,0.0,0.0,0.0,0.0,0.0,0.0,0.0,-1.1143,-1.0685,-1.0998,-1.265,-1.317,-1.392,-1.5301,-1.7333,-1.844,-1.8212,-1.9024,-1.9371,-1.8997,-1.9442,-1.9708,-1.9708,-1.9708,-1.9708,-1.9708,-1.9708,-1.9708,-1.9708,-1.9708,-1.9708,-1.9708,-1.9708,-1.9442,-1.9049,-2.0205,-1.9788,-1.8323,-1.8934,-1.9125,-1.9064,-1.9737,-2.0049,-2.0239,-2.1376,-2.1781,-2.1805,-0.1326,-0.258,-0.402,-0.595,-0.6463,-0.6838,-0.7549,-0.7043,-0.6663,-0.6969,-0.7363,-0.7567,-0.7422,-0.7257,-0.7032,-0.6654,-0.5712,-0.493,0.0,-0.3636,-0.3239,-0.3315,-0.3082,-0.3233,-0.3877,-0.3998,-0.3887,-0.3587,-0.3698,-0.3763,-0.377,-0.3656,-0.401,-0.475,-0.4551,-0.5373,-0.7001,-0.8075,-0.945,-1.0968,-1.2086,-1.3773,0.0,-1.4126,-1.4107,-1.4831,-1.4977,-1.5525,-1.6166,0.0,-1.6384,0.0,0.0,0.0,0.0,-1.5706,0.0,0.0,0.0,0.0,0.0,0.0,0.0,0.0,-1.2378,0.0,-1.1645,0.0,0.0,0.0,0.0,0.0,0.0,0.0,-1.0953,0.0,0.0,0.0,-1.0169,0.0,0.0,0.0,-1.4035,-1.5819,-1.6728,-1.6277,-1.7728,-1.8567,-1.8429,-1.9235,-1.9708,-1.9708,-1.9708,-1.9708,-1.9708,-1.9708,-1.9708,-1.9708,-1.9708,-1.9708,-1.9708,-1.9708,-1.9584,-1.9384,-1.957,-1.9247,-1.853,-1.8201,-1.8045,-1.8078,-1.8704,-1.9798,-2.105,-2.1519,-2.1946,-2.2369,-0.0771,-0.1885,-0.3255,-0.5321,-0.5826,-0.6248,-0.7159,-0.6893,-0.6734,-0.707,-0.7617,-0.7844,-0.752,-0.7734,-0.7741,-0.7225,-0.6324,-0.5502,0.0,-0.3615,-0.2978,-0.3092,-0.2397,-0.237,-0.3129,-0.2957,-0.2852,-0.2879,-0.286,-0.2929,-0.3106,-0.3281,-0.3774,-0.4593,-0.5412,-0.6485,-0.7819,-0.927,-1.0696,-1.2078,-1.2859,-1.4376,-1.6028,-1.4925,-1.4946,-1.5576,-1.5663,-1.6149,-1.6693,-1.6576,-1.6579,0.0,-1.6527,-1.5903,-1.5351,0.0,0.0,0.0,-1.5327,0.0,0.0,0.0,0.0,0.0,0.0,0.0,0.0,0.0,0.0,0.0,0.0,0.0,-1.1517,-1.1398,0.0,-1.0205,0.0,-0.9448,0.0,0.0,0.0,0.0,0.0,-1.455,-1.5101,-1.4613,-1.644,-1.7654,-1.7838,-1.8888,-1.9548,-1.9708,-1.9708,-1.9708,-1.9708,-1.9708,-1.9708,-1.9708,-1.9708,-1.9708,-1.9708,-1.9548,-1.9406,-1.9244,-1.8855,-1.8516,-1.8218,-1.7732,-1.755,-1.7605,-1.8181,-1.9649,-2.1448,-2.1448,-2.1866,-2.2498,-0.0435,-0.1273,-0.2376,-0.4069,-0.4745,-0.5311,-0.6122,-0.6781,-0.722,-0.7379,-0.841,-0.8904,-0.8249,-0.8978,-0.9237,-0.8494,-0.7702,-0.6912,-0.6188,0.0,-0.3501,-0.3576,0.0,-0.2039,-0.2521,-0.1647,-0.1471,-0.2032,-0.1453,-0.1564,-0.2346,-0.2593,-0.2996,-0.3559,-0.5904,-0.6864,-0.6951,-1.0024,-1.1532,-1.1951,-1.3515,-1.4718,-1.5578,0.0,-1.6524,-1.7086,-1.6072,0.0,0.0,-1.6833,-1.6473,0.0,0.0,0.0,0.0,0.0,0.0,0.0,0.0,0.0,0.0,-1.7062,0.0,0.0,0.0,0.0,-1.5171,0.0,0.0,0.0,0.0,-1.3188,-1.2577,-1.1474,-1.0749,0.0,0.0,0.0,0.0,0.0,0.0,0.0,0.0,-1.4049,-1.4305,-1.3773,-1.5413,-1.6672,-1.7193,-1.8305,-1.9169,-1.969,-1.9708,-1.9708,-1.9708,-1.9708,-1.9708,-1.9708,-1.9708,-1.9708,-1.969,-1.9169,-1.8631,-1.8165,-1.8145,-1.7544,-1.6667,-1.7722,-1.8183,-1.8228,-1.8757,-1.9745,-2.082,-2.082,-2.1197,-2.172,-0.0121,-0.0694,-0.1665,-0.3503,-0.422,-0.4928,-0.6097,-0.6674,-0.7321,-0.8219,-0.8599,-0.8885,-0.9108,-0.9592,-0.9741,0.0,0.0,-0.6975,-0.618,-0.4059,0.0,0.0,0.0,-0.0966,0.0,-0.0613,-0.0403,-0.1005,-0.0805,-0.1096,-0.1852,-0.2121,-0.2648,-0.3458,-0.4993,-0.6424,-0.7881,-1.0638,-1.2493,-1.3711,0.0,-1.6295,-1.6936,0.0,-1.6771,-1.6767,-1.6769,-1.699,0.0,-1.7136,-1.6999,-1.6829,-1.6542,-1.629,-1.6113,-1.6293,-1.6085,0.0,0.0,0.0,-1.6221,-1.6856,0.0,0.0,0.0,0.0,0.0,0.0,0.0,0.0,0.0,-1.3881,-1.3227,-1.1863,-1.1126,-1.0262,0.0,0.0,0.0,0.0,0.0,0.0,0.0,0.0,0.0,-1.2037,-1.3761,-1.5355,-1.6599,-1.8089,-1.9151,-1.969,-1.9708,-1.9708,-1.9708,-1.935,-1.9169,-1.9169,-1.8817,-1.8631,-1.8631,-1.8458,-1.8283,-1.8086,-1.7727,-1.7374,-1.7026,-1.7063,-1.7314,-1.7714,-1.8267,-1.9206,-2.0316,-2.0664,-2.1452,-2.2369,-0.0125,-0.0604,-0.1351,-0.2786,-0.3913,-0.4981,-0.606,-0.6767,0.0,0.0,-0.8675,0.0,-0.9476,0.0,-0.9413,0.0,-0.7738,-0.6556,-0.5719,-0.3917,0.0,-0.275,-0.1301,-0.0771,0.0,0.0,0.0,-0.0314,-0.0224,-0.0492,-0.1118,-0.1362,-0.1902,-0.2763,-0.419,-0.5957,-0.8019,-1.0723,-1.2827,-1.4502,0.0,-1.7051,0.0,0.0,-1.731,-1.7447,0.0,-1.7126,-1.7271,-1.7076,-1.6986,-1.6913,-1.6591,-1.6339,-1.6211,-1.6518,-1.6275,-1.6012,-1.6534,-1.6539,0.0,-1.7136,-1.6909,0.0,-1.7055,0.0,-1.6667,0.0,0.0,0.0,0.0,-1.4173,-1.3373,-1.1932,-1.11,-1.0218,0.0,-0.9788,0.0,0.0,0.0,0.0,0.0,0.0,0.0,-1.1049,-1.2509,-1.4229,-1.6261,-1.7601,-1.8731,-1.9672,-1.9512,-1.9424,-1.9424,-1.8874,-1.8612,-1.8612,-1.8283,-1.8106,-1.8086,-1.7907,-1.7827,-1.7787,-1.725,-1.7013,-1.7005,-1.6874,-1.7049,-1.7473,-1.8204,-1.8959,-1.9742,-2.0511,-2.1321,-2.2011,-0.0451,-0.0991,-0.151,-0.1988,-0.3785,-0.5385,0.0,0.0,-0.7897,0.0,-0.8693,-0.9041,-0.9436,-0.9,-0.8497,-0.8089,-0.6925,-0.5843,-0.501,-0.4132,0.0,0.0,-0.2037,-0.1431,-0.1781,0.0,0.0,0.0,0.0291,0.0202,-0.0202,-0.0381,-0.0805,-0.1482,-0.3527,-0.5471,-0.7406,-1.0308,-1.2568,-1.4353,-1.6435,-1.6989,-1.6606,-1.7068,-1.8089,-1.8994,-1.7169,-1.6879,-1.7209,-1.671,-1.6522,-1.65,-1.65,-1.6158,-1.5831,-1.6337,-1.6145,-1.5948,-1.6906,-1.7182,-1.7293,-1.7839,-1.788,0.0,0.0,0.0,-1.7731,0.0,0.0,0.0,0.0,0.0,-1.318,-1.1812,-1.0717,-0.9798,-0.9052,-0.9709,-1.0255,0.0,0.0,0.0,0.0,-1.003,-1.007,-1.0812,-1.1669,-1.3355,-1.6106,-1.6845,-1.7917,-1.9603,-1.9169,-1.8893,-1.8893,-1.8341,-1.8066,-1.8066,-1.8027,-1.8027,-1.8007,-1.7483,-1.725,-1.7229,-1.671,-1.65,-1.6538,-1.7137,-1.7423,-1.7549,-1.8581,-1.902,-1.917,-2.0364,-2.0771,-2.0746,-0.1197,-0.18,-0.2389,-0.3016,-0.4098,-0.508,0.0,0.0,0.0,0.0,-0.9475,-1.0097,-1.0549,-0.989,-0.9309,-0.8995,-0.7366,0.0,0.0,0.0,0.0,-0.3994,-0.2729,-0.1927,-0.1734,-0.0662,0.0045,0.0382,0.0449,0.0292,-0.0045,0.0,-0.0403,-0.1256,-0.283,-0.4947,-0.7491,-0.9852,-1.2538,-1.5299,-1.6293,-1.6989,-1.7353,0.0,-1.7289,-1.8016,-1.7342,-1.7167,-1.7271,-1.7126,-1.6837,-1.65,-1.65,-1.64,-1.6312,-1.645,-1.64,-1.635,-1.6607,-1.6682,-1.6829,-1.7529,-1.752,-1.7418,0.0,0.0,0.0,0.0,0.0,0.0,0.0,0.0,-1.3921,-1.2799,-1.1778,-1.1034,-1.0837,0.0,0.0,-1.0167,0.0,0.0,0.0,-0.934,-0.9459,-1.0451,-1.1208,-1.2816,-1.5552,0.0,-1.7262,-1.9047,-1.8968,-1.8893,-1.8893,-1.7967,-1.7504,-1.7504,-1.7097,-1.6909,-1.6909,-1.6774,-1.671,-1.6689,-1.6552,-1.65,-1.6538,-1.7137,-1.7614,-1.8066,-1.8732,-1.9233,-1.9686,-2.0508,-2.0472,-2.0131,-0.1998,-0.2644,-0.3252,-0.3602,0.0,0.0,-0.6103,-0.6904,0.0,-0.8911,-0.9448,0.0,-0.9992,-0.9379,-0.8717,-0.8095,-0.6625,0.0,-0.5259,0.0,0.0,-0.4025,-0.3201,-0.2606,-0.2313,-0.1196,0.0,-0.0112,0.0,0.036,0.009,0.0315,-0.0022,-0.0896,-0.2336,-0.4422,-0.705,-1.0226,-1.2953,-1.5199,-1.5549,-1.5968,0.0,-1.6185,-1.6206,-1.6408,-1.6511,-1.6727,-1.6951,-1.6951,-1.6752,-1.65,-1.65,-1.65,-1.65,-1.65,-1.65,-1.65,-1.65,-1.65,-1.6597,-1.702,-1.6999,-1.7007,-1.747,-1.727,-1.6899,0.0,-1.6205,-1.5681,0.0,0.0,0.0,-1.3074,-1.242,-1.1975,0.0,0.0,0.0,0.0,-1.0264,0.0,-0.8967,-0.9296,-0.9681,-0.9908,-1.062,-1.1922,0.0,0.0,-1.6047,-1.7628,-1.8505,-1.8705,-1.8204,-1.7856,-1.7432,-1.6951,-1.6637,-1.65,-1.65,-1.6773,-1.6898,-1.6911,-1.7127,-1.7227,-1.7275,-1.7601,-1.7928,-1.8254,-1.8795,-1.9321,-1.985,-2.022,-2.0131,-1.985,-0.2939,-0.3576,0.0,0.0,0.0,0.0,0.0,-0.7033,0.0,-0.8805,0.0,-0.8917,-0.8642,-0.8144,-0.7453,-0.6495,0.0,-0.4673,-0.4115,-0.4351,-0.4325,-0.3907,-0.3589,-0.3315,-0.3139,-0.1821,-0.1078,0.0,-0.009,0.0293,0.0181,0.0518,0.0269,-0.0515,-0.1934,-0.3979,-0.6675,-1.0928,-1.3419,-1.4513,-1.4646,-1.4698,-1.4755,-1.5276,-1.5163,-1.4766,-1.5298,-1.582,-1.6272,-1.6272,-1.6272,-1.6272,-1.6272,-1.6272,-1.6272,-1.6358,-1.638,-1.6402,-1.6466,-1.65,-1.65,-1.65,-1.65,-1.6626,-1.706,-1.6796,-1.6416,-1.6219,-1.5858,-1.5214,0.0,0.0,0.0,-1.3298,-1.3064,0.0,0.0,0.0,0.0,0.0,0.0,0.0,0.0,-0.9506,-1.0097,-0.9342,-1.0007,-1.0966,0.0,0.0,-1.4692,-1.6093,-1.7835,-1.8354,-1.7529,-1.7823,-1.7578,-1.6826,-1.6697,-1.6651,-1.6738,-1.7262,-1.7511,-1.7536,-1.8003,-1.8204,-1.8216,-1.8279,-1.8355,-1.8468,-1.892,-1.9384,-1.9798,-1.9798,-1.9798,-1.9798,-0.4549,-0.4792,0.0,0.0,0.0,-0.6768,-0.709,-0.811,-0.8698,-0.8248,-0.8807,-0.8958,-0.8213,-0.7396,-0.6776,-0.6432,-0.5489,0.0,0.0,0.0,0.0,-0.438,-0.416,-0.3807,-0.3279,-0.2678,-0.2016,0.0,0.0,-0.0319,0.0047,0.032,0.0202,-0.0292,-0.1326,-0.41,-0.8194,-1.1196,0.0,-1.3968,-1.4501,-1.4698,-1.4698,-1.4812,-1.4789,-1.4698,-1.4812,-1.4926,-1.5017,-1.5017,-1.5017,-1.5017,-1.5017,-1.5017,-1.5107,-1.5622,-1.5764,-1.5864,-1.6358,-1.65,-1.65,-1.65,-1.65,-1.6405,-1.6007,-1.5842,-1.5641,-1.5097,-1.4936,-1.4729,-1.4292,0.0,0.0,0.0,0.0,0.0,0.0,0.0,0.0,0.0,0.0,-1.0893,0.0,0.0,-0.9384,-0.924,-0.9506,-1.0438,0.0,0.0,-1.4117,0.0,-1.7159,-1.7942,0.0,0.0,-1.739,-1.8556,-1.7664,-1.7463,-1.7915,-1.8016,-1.8053,-1.8066,-1.8166,-1.8204,-1.8242,-1.8669,-1.9108,-1.9535,-1.9623,-1.9723,-1.9798,-1.9798,-1.9798,-1.9798,-0.5659,0.0,0.0,0.0,0.0,0.0,0.0,-0.8581,-0.8844,-0.7609,-0.7735,-0.7626,-0.6756,-0.6583,-0.6278,-0.5586,-0.5076,-0.4735,-0.461,-0.4532,-0.4491,-0.4491,-0.4395,-0.416,-0.3764,-0.3275,-0.2613,-0.176,0.0,-0.0429,0.0119,0.0561,0.0412,-0.0292,-0.2391,-0.5027,-0.8067,0.0,0.0,-1.2296,-1.2934,-1.3205,-1.3277,-1.3969,-1.4037,-1.3813,-1.4131,-1.4037,-1.386,-1.4502,-1.4698,-1.4698,-1.4698,-1.4698,-1.4812,-1.541,-1.561,-1.572,-1.6337,-1.6259,-1.603,-1.603,-1.581,-1.55,-1.5197,-1.4892,-1.4595,-1.4306,-1.399,-1.3766,-1.3813,-1.4118,0.0,0.0,0.0,0.0,0.0,0.0,-1.411,0.0,0.0,0.0,0.0,0.0,0.0,0.0,0.0,-0.9926,-1.1239,0.0,-1.3242,0.0,0.0,0.0,-1.7701,0.0,-1.7917,-1.8179,-1.7928,-1.7953,-1.8216,-1.8481,-1.8607,-1.8619,-1.892,-1.9032,-1.9058,-1.9321,-1.9572,-1.9798,-1.9798,-1.9798,-1.9798,-1.9798,-1.9798,-1.9798,-0.6775,-0.6885,0.0,0.0,-0.8182,-0.8766,-0.8367,-0.8766,-0.8603,-0.7064,-0.6756,-0.6363,-0.5438,-0.5793,-0.5747,-0.4773,-0.4691,-0.4655,-0.4501,-0.4491,-0.4491,-0.4491,-0.4491,-0.4354,-0.4028,-0.367,-0.3016,0.0,0.0,0.0,0.0242,0.0742,0.0469,-0.0593,-0.3456,0.0,0.0,0.0,-1.0155,-1.0873,-1.1538,-1.1789,-1.1938,-1.315,-1.331,-1.2968,-1.3443,-1.3194,-1.2803,-1.3758,-1.4179,-1.4317,-1.4317,-1.4317,-1.4445,-1.5039,-1.532,-1.5499,-1.5986,-1.5864,-1.5565,-1.5432,-1.5062,-1.4675,-1.4537,-1.4143,-1.3755,-1.3647,-1.3238,-1.3017,-1.3433,-1.3836,0.0,0.0,0.0,0.0,0.0,0.0,0.0,0.0,0.0,0.0,-0.8429,0.0,0.0,0.0,0.0,-0.9486,-1.0252,-1.1477,-1.2708,0.0,0.0,-1.7524,-1.719,0.0,-1.848,-1.8102,-1.8279,-1.8442,-1.8555,-1.897,-1.9233,-1.9397,-1.9673,-1.9798,-1.9798,-1.9798,-1.9874,-1.9987,-1.9987,-2.0062,-2.0162,-2.0162,-2.0162,-2.0162,0.0,0.0,0.0,0.0,0.0,-0.9995,-0.9368,-0.8917,-0.8211,-0.6894,-0.6719,-0.6294,-0.524,-0.5191,-0.5071,-0.4743,-0.4691,-0.4655,-0.4501,-0.4491,-0.4491,-0.4491,-0.4491,-0.4147,-0.3412,-0.3854,-0.3227,0.0,0.0,-0.1004,0.0,0.0534,-0.0071,-0.1468,0.0,0.0,0.0,-0.8871,-1.0022,-1.0863,-1.1525,-1.1789,-1.1898,-1.2681,-1.2954,-1.2905,-1.2968,-1.2525,-1.1913,-1.2027,-1.253,-1.3065,-1.3065,-1.3065,-1.3176,-1.3779,-1.4352,-1.4789,-1.4858,-1.5242,-1.5477,-1.4926,-1.4744,-1.4571,-1.4003,-1.3839,-1.3637,-1.3113,-1.2954,-1.3104,-1.3745,-1.3839,-1.426,0.0,0.0,0.0,0.0,0.0,-1.4123,-1.2537,0.0,0.0,-0.9158,-0.8521,0.0,0.0,-0.9107,-0.9286,-0.9919,-1.1422,-1.3224,-1.5258,-1.5784,-1.7149,-1.9472,-1.8191,-1.8504,-2.0377,-1.9397,-1.9171,-1.9648,-1.971,-2.0012,-2.0515,-2.0012,-1.9798,-1.9798,-1.9798,-2.0112,-2.0616,-2.0616,-2.0918,-2.133,-2.133,-2.133,-2.133,0.0,0.0,0.0,0.0,0.0,0.0,0.0,-0.8822,-0.786,-0.6835,-0.633,-0.5796,-0.5155,-0.5022,-0.4918,-0.4707,-0.4634,-0.4556,-0.4494,-0.4491,-0.4294,-0.379,-0.3818,-0.3456,-0.2649,-0.2891,-0.2395,0.0,0.0,0.0,0.0,0.0,0.0,0.0,0.0,-0.5925,-0.7457,-0.8599,-0.9283,-0.9666,-1.0346,-1.0593,-1.0712,-1.1832,-1.2236,-1.2295,-1.2749,-1.2715,-1.2452,-1.2452,-1.2369,-1.2236,-1.2236,-1.2535,-1.3017,-1.3613,-1.3956,-1.4236,-1.4606,-1.4595,-1.4457,-1.4213,-1.3884,-1.3563,-1.331,-1.3262,-1.319,-1.2954,-1.2905,-1.2968,-1.3262,-1.3515,-1.3873,-1.4503,0.0,0.0,0.0,0.0,0.0,-1.2153,0.0,-1.018,0.0,-0.8421,0.0,0.0,0.0,-0.9668,-1.0623,-1.2135,-1.3672,-1.5213,0.0,-1.7418,-1.8832,-1.853,-1.8782,-1.9685,-1.9547,-1.9597,-1.9811,-2.0189,-2.0654,-2.1182,-2.0916,-2.0815,-2.0815,-2.0815,-2.0953,-2.1182,-2.1182,-2.132,-2.1493,-2.1493,-2.1493,-2.1543,-1.0359,0.0,-1.0466,0.0,-1.0893,-1.0617,-1.0473,-0.9519,-0.8495,-0.7513,-0.6635,-0.5855,-0.5169,-0.5009,-0.4891,-0.4772,-0.4648,-0.4556,-0.4556,-0.4515,-0.4153,-0.3345,-0.3345,0.0,-0.1898,-0.2313,-0.2063,-0.109,-0.1396,0.0,0.0,0.0,0.0,0.0,-0.5135,-0.6566,-0.7605,-0.8454,-0.8804,-0.8857,-0.9536,-0.9788,-0.9943,-1.1291,-1.1789,-1.1888,-1.2642,-1.2774,-1.2584,-1.2584,-1.2236,-1.1839,-1.2055,-1.2476,-1.2968,-1.342,-1.3661,-1.3839,-1.4107,-1.399,-1.3755,-1.3576,-1.3214,-1.2905,-1.2905,-1.2905,-1.2905,-1.2905,-1.2905,-1.2905,-1.2905,-1.3162,-1.3467,-1.3755,0.0,0.0,0.0,-1.3734,0.0,-1.1892,-1.0902,-1.0181,-0.9909,-0.909,0.0,0.0,0.0,0.0,-1.1208,-1.2726,0.0,0.0,0.0,0.0,-1.8668,-1.8882,-1.9083,-1.9233,-1.9623,-1.9798,-1.9823,-2.0603,-2.1144,-2.1493,-2.1656,-2.1644,-2.1493,-2.1493,-2.1581,-2.1732,-2.1732,-2.1832,-2.197,-2.197,-2.197,-2.2033,-1.1242,-1.1228,-1.1346,-1.2134,-1.2291,-1.2285,-1.2285,-1.1409,-1.0344,-0.9233,-0.8036,-0.6721,-0.5275,-0.5096,-0.5039,-0.4897,-0.4775,-0.4687,-0.4687,-0.4576,-0.4153,0.0,0.0,-0.2619,-0.1146,-0.2538,-0.2565,-0.109,0.0,0.0,-0.1877,0.0,-0.3428,-0.4355,-0.5901,-0.7008,-0.775,-0.848,-0.8804,-0.8857,-0.9536,-0.9788,-0.9943,-1.1291,-1.1789,-1.1888,-1.2642,-1.2427,-1.1814,-1.1814,-1.1814,-1.1922,-1.2666,-1.2881,-1.2905,-1.2905,-1.3324,-1.3661,-1.3079,-1.3348,-1.3661,-1.3065,-1.2905,-1.2905,-1.2905,-1.2905,-1.2905,-1.2905,-1.2905,-1.2905,-1.2905,-1.2905,-1.3104,-1.3708,0.0,0.0,0.0,-1.2662,0.0,-1.1987,-1.1408,-1.0981,-1.0981,-1.0981,0.0,0.0,0.0,0.0,0.0,0.0,0.0,-1.6341,-1.6527,0.0,-1.9761,-1.9259,-1.9259,-1.9798,-1.9798,-1.9798,-1.9849,-2.0966,-2.1481,-2.1518,-2.2071,-2.1995,-2.1493,-2.1493,-2.1807,-2.2297,-2.2297,-2.2606,-2.3083,-2.3083,-2.3083,-2.3083,-1.2263,-1.212,-1.2008,-1.2248,-1.2138,-1.1781,-1.1118,-1.0018,-0.8898,-0.7766,-0.6755,-0.5937,-0.538,-0.5196,-0.5079,0.0,-0.4836,-0.4691,0.0,-0.4576,-0.4153,-0.34,-0.3372,-0.2899,-0.187,-0.2805,-0.3076,-0.2607,0.0,0.0,0.0,-0.4943,-0.5961,-0.7267,-0.7797,-0.8443,-0.9112,-0.8903,-0.8804,-0.8804,-0.9035,-0.9106,-0.9211,-1.009,-1.044,-1.0593,-1.1733,-1.1996,-1.1888,-1.2369,-1.2559,-1.2584,-1.2832,-1.2905,-1.2798,-1.2295,-1.2638,-1.3152,-1.2954,-1.3041,-1.3152,-1.2954,-1.2905,-1.2905,-1.2905,-1.2905,-1.2905,-1.2905,-1.2905,-1.2905,-1.2905,-1.2905,-1.2968,-1.3152,-1.3041,0.0,-1.2487,0.0,-1.2221,-1.1291,-1.1391,-1.1541,-1.1541,-1.1141,0.0,0.0,0.0,0.0,0.0,0.0,0.0,0.0,-1.6257,0.0,-1.8301,-1.9036,-1.9289,-1.9083,-2.0362,-2.1142,-2.149,-2.1272,-2.1697,-2.2594,-2.2769,-2.2744,-2.2581,-2.2581,-2.2681,-2.2844,-2.2844,-2.2945,-2.3108,-2.3108,-2.3108,-2.3108,-1.275,-1.2543,-1.2305,-1.2305,-1.2151,-1.1844,-1.1215,-1.0161,-0.9005,-0.7869,-0.6849,-0.6057,-0.5531,-0.5308,0.0,-0.5216,-0.4996,-0.4857,-0.4857,-0.4692,-0.4235,-0.3496,-0.3396,-0.3118,-0.2613,-0.3324,0.0,-0.4136,-0.5132,-0.5819,-0.626,-0.7161,-0.8079,-0.9017,-0.9075,-0.9384,-0.9762,-0.9087,-0.8804,-0.8804,-0.8804,-0.8804,-0.8883,-0.9536,-0.9961,-1.0312,-1.1416,-1.1972,-1.2286,-1.2749,-1.2905,-1.2808,-1.2289,-1.228,-1.2452,-1.227,-1.2344,-1.2559,-1.2822,-1.2905,-1.2905,-1.2905,-1.2905,-1.2905,-1.2905,-1.2905,-1.2905,-1.2905,-1.2905,-1.2905,-1.2905,-1.2666,-1.2584,-1.2856,-1.2461,-1.2039,-1.1839,0.0,-1.1617,0.0,0.0,0.0,0.0,-1.1907,-1.195,0.0,0.0,0.0,0.0,0.0,-1.4635,-1.4992,-1.6193,-1.7138,-1.7846,-1.8678,-1.8995,-1.88,-1.9975,-2.0803,-2.132,-2.1099,-2.1608,-2.2671,-2.2975,-2.3108,-2.3108,-2.3108,-2.3108,-2.3108,-2.3108,-2.3108,-2.3108,-2.3108,-2.3108,-2.3108,-1.2784,-1.2543,-1.2305,0.0,-1.2305,0.0,-1.2224,-1.1391,-1.035,-0.9145,-0.8014,-0.6875,-0.5728,-0.5498,-0.5419,-0.5395,0.0,0.0,0.0,-0.4853,-0.4397,-0.3693,-0.3491,-0.339,-0.3374,-0.4149,-0.4938,-0.5716,-0.7041,-0.7738,-0.7838,-0.9158,-0.9834,-0.9911,-0.9894,-0.9865,-0.9814,-0.9113,-0.8804,-0.8804,-0.8804,-0.8804,-0.8857,-0.9484,-1.0115,-1.0745,-1.1416,-1.2138,-1.2749,-1.2808,-1.2856,-1.2666,-1.13,-1.1266,-1.1873,-1.2535,-1.2295,-1.1972,-1.2691,-1.2905,-1.2905,-1.2905,-1.2905,-1.2905,-1.2905,-1.2905,-1.2905,-1.2905,-1.2847,-1.2822,-1.2822,-1.2212,-1.1947,-1.2642,-1.1658,-1.099,-1.1591,-1.0669,-1.044,0.0,0.0,0.0,-1.2954,-1.3085,-1.3046,0.0,0.0,0.0,0.0,0.0,-1.4706,-1.5201,-1.6211,-1.7219,-1.8187,-1.8289,-1.8544,-1.9021,-1.8917,-1.9191,-1.978,-2.053,-2.1207,-2.1846,-2.2659,-2.3005,-2.3005,-2.3078,-2.3108,-2.3108,-2.3108,-2.3108,-2.3108,-2.3108,-2.3108,-2.3108,0.0,0.0,-1.2305,-1.2305,-1.2305,-1.2033,-1.1273,-1.0938,-1.0066,-0.8,-0.7581,-0.6933,-0.5589,-0.5586,-0.5606,-0.5416,-0.522,-0.51,-0.51,-0.4853,-0.4632,-0.4455,-0.4288,-0.4208,-0.4202,-0.5429,-0.6708,-0.8025,-0.8355,-0.9046,-1.0051,-1.0383,-1.1107,-1.2089,-1.1049,-1.0568,-1.0491,-0.9309,-0.8804,-0.8804,-0.8804,-0.8804,-0.8804,-0.8982,-0.9133,-0.9361,-1.0038,-1.072,-1.1384,-1.1882,-1.2427,-1.2749,-1.1857,-1.1316,-1.1065,-1.125,-1.155,-1.1972,-1.2691,-1.2905,-1.2905,-1.2905,-1.2905,-1.2905,-1.2905,-1.2905,-1.2905,-1.2905,-1.2452,-1.2055,-1.2055,-1.15,-1.1091,-1.1275,-1.1023,-1.0686,-1.0312,-1.0889,-1.1266,0.0,-1.1891,-1.2593,-1.2929,-1.2954,-1.2993,0.0,0.0,-1.2734,-1.2734,-1.3155,-1.3983,-1.5297,-1.5945,-1.6537,-1.7071,-1.804,-1.9099,-2.0169,-1.9113,-1.922,-2.0379,-1.9899,-2.0158,-2.0942,-2.1803,-2.2199,-2.223,-2.2854,-2.3108,-2.3108,-2.3108,-2.3108,-2.3108,-2.3108,-2.3108,-2.3108,-1.275,-1.2543,-1.2305,-1.2305,-1.2305,-1.2114,-1.1576,-1.1087,-1.031,-0.8995,-0.8483,-0.7847,-0.6873,-0.6563,-0.6295,-0.6032,-0.5573,-0.5311,-0.524,-0.502,-0.4891,-0.4891,-0.4752,-0.4843,-0.5182,-0.5865,-0.6738,-0.7803,-0.8435,-0.9124,-0.9854,-1.0805,-1.1649,-1.2369,-1.16,-1.1266,-1.1191,-1.0141,-0.971,-0.971,-0.971,-0.9536,-0.9263,-0.9263,-0.9263,-0.9316,-0.9666,-1.0236,-1.0864,-1.1216,-1.16,-1.1866,-1.1466,-1.0889,-1.0389,-1.0712,-1.0838,-1.1124,-1.2113,-1.2393,-1.2476,-1.2822,-1.2905,-1.2905,-1.2905,-1.2905,-1.2905,-1.2905,-1.232,-1.1789,-1.1789,-1.099,-1.044,-1.0737,-1.0338,-1.0038,-1.0236,-1.0661,-1.104,-1.1241,-1.2113,-1.283,-1.3139,-1.334,-1.3468,-1.3561,-1.3727,0.0,-1.3202,-1.3754,-1.4301,-1.4834,-1.5428,-1.6144,-1.6999,-1.7881,-1.8697,-1.9398,-1.8641,-1.8674,-1.9398,-1.9332,-1.9562,-2.0074,-2.1365,-2.1908,-2.197,-2.2763,-2.3108,-2.3108,-2.3108,-2.3108,-2.3108,-2.3108,-2.3108,-2.3108,-1.2723,-1.2516,-1.2305,-1.2305,-1.2305,-1.2305,-1.2305,-1.1583,-1.0923,-1.0635,-0.9863,-0.9124,-0.8523,-0.7858,-0.7258,-0.6822,-0.6218,-0.5717,-0.5405,-0.5216,-0.51,-0.51,-0.4965,-0.5188,-0.5816,-0.5718,-0.596,-0.6588,-0.7691,-0.8442,-0.8881,-1.0772,-1.1796,-1.2101,-1.2101,-1.2101,-1.2043,-1.1374,-1.109,-1.109,-1.109,-1.0704,-1.0082,-0.9979,-0.9884,-0.9788,-0.9692,-1.009,-1.0661,-1.0771,-1.0864,-1.0939,-1.0838,-1.0415,-1.0012,-1.0389,-1.009,-0.9943,-1.1291,-1.1715,-1.1972,-1.2725,-1.2905,-1.2905,-1.2905,-1.2905,-1.2905,-1.2905,-1.2236,-1.1641,-1.1641,-1.0534,-0.984,-1.044,-0.9666,-0.9361,-1.0517,0.0,-1.0558,-1.1746,-1.2366,-1.2898,-1.3542,-1.3899,-1.4163,-1.4289,-1.4886,-1.4921,-1.4255,-1.473,-1.485,-1.4493,-1.5061,-1.6076,-1.7471,-1.7832,-1.8008,-1.8008,-1.8008,-1.8008,-1.8042,-1.8754,-1.911,-1.9199,-2.0814,-2.1522,-2.1585,-2.2372,-2.2793,-2.2914,-2.2914,-2.2975,-2.3108,-2.3108,-2.3108,-2.3108,-1.2418,-1.2338,-1.2305,-1.2305,-1.2305,-1.2305,-1.2305,-1.215,-1.1709,-1.0749,-1.0564,-1.0087,-0.8859,-0.8876,-0.8497,-0.7293,-0.7117,-0.658,-0.5479,-0.5216,-0.51,-0.51,-0.4965,-0.4948,-0.5066,-0.4931,-0.5442,-0.6588,-0.6198,-0.7204,-0.9552,-1.0463,-1.1798,-1.3498,-1.3433,-1.3423,-1.3365,-1.2686,-1.2411,-1.2411,-1.2411,-1.1993,-1.1339,-1.0772,-1.0238,-0.9718,-0.9159,-0.9387,-1.0038,-1.0618,-1.1191,-1.1541,-1.099,-1.0745,-1.044,-0.9413,-0.9035,-0.9237,-1.0585,-1.1366,-1.1972,-1.2725,-1.2905,-1.2905,-1.2905,-1.2905,-1.2905,-1.2905,-1.1866,-1.0965,-1.0965,-0.9865,-0.9035,-0.9237,-0.9035,-0.9133,-0.9987,0.0,-1.109,-1.2259,-1.2962,-1.3513,-1.3977,-1.4065,-1.4406,-1.5128,-1.4681,-1.4653,-1.5233,-1.4204,-1.4274,-1.5758,-1.5809,-1.6492,-1.7876,-1.7978,-1.8008,-1.8008,-1.8008,-1.8008,-1.8008,-1.8134,-1.8202,-1.8269,-1.9266,-1.9683,-1.9781,-2.0623,-2.1428,-2.2106,-2.2106,-2.2506,-2.3108,-2.3108,-2.3108,-2.3108,-1.2603,-1.2412,-1.2305,-1.2305,-1.2305,-1.2305,-1.2305,-1.2305,-1.2104,-1.1565,-1.1581,-1.1315,-1.0556,-0.9717,-0.8873,-0.8089,-0.7022,-0.6144,-0.5559,-0.5338,-0.5254,-0.5254,-0.5192,-0.5118,-0.5005,-0.4485,-0.4692,-0.5686,-0.5727,-0.6902,-0.9083,-1.0729,-1.225,-1.3642,-1.4708,-1.521,-1.5222,-1.5579,-1.5498,-1.5177,-1.5177,-1.4387,-1.3145,-1.2503,-1.1444,-1.0187,-0.9555,-0.9316,-0.9361,-1.0038,-1.0466,-1.0788,-1.1216,-1.1091,-1.0686,-1.0064,-0.9891,-1.0012,-1.0636,-1.1584,-1.2476,-1.2822,-1.2905,-1.2905,-1.2905,-1.2905,-1.2905,-1.2905,-1.2073,-1.1241,-1.0864,-0.9987,-0.9237,-0.8936,-0.9211,0.0,-1.0677,-1.1378,-1.2207,-1.3229,-1.3866,-1.4268,-1.4463,-1.4902,-1.5119,-1.5025,-1.5073,-1.4862,-1.4253,-1.4268,-1.4706,-1.5601,-1.6544,-1.7335,-1.7974,-1.8008,-1.8008,-1.8008,-1.8008,-1.8008,-1.8008,-1.8008,-1.8008,-1.8042,-1.8911,-1.9562,-2.0042,-2.043,-2.1101,-2.1846,-2.1396,-2.171,-2.2445,-2.2445,-2.2732,-2.3108,-1.2797,-1.2543,-1.2305,-1.2305,-1.2305,-1.2224,-1.1996,-1.215,-1.2224,-1.1996,-1.215,-1.2218,-1.2033,-1.0725,-0.9659,-0.9148,-0.7416,-0.6275,-0.6071,-0.5654,-0.5491,-0.5686,-0.5686,-0.5513,-0.5103,-0.4289,-0.4201,-0.4887,-0.5487,-0.6804,-0.8782,-1.0941,-1.2693,-1.4129,-1.5762,-1.6718,-1.7173,-1.8091,-1.8274,-1.7935,-1.777,-1.677,-1.5263,-1.4371,-1.2912,-1.1255,-1.0332,-0.9581,-0.9133,-0.9814,-1.0038,-1.0244,-1.1441,-1.1441,-1.099,-1.0838,-1.0788,-1.0788,-1.0788,-1.1584,-1.2495,-1.2832,-1.2905,-1.2905,-1.2905,-1.2905,-1.2905,-1.2905,-1.232,-1.1641,-1.1141,-1.0491,-0.9865,-0.9387,0.0,-1.0681,-1.1642,-1.236,-1.3196,-1.4256,-1.4727,-1.501,-1.5215,-1.586,-1.588,-1.5038,-1.5564,-1.5231,-1.368,-1.4592,-1.5305,-1.5517,-1.7113,-1.8008,-1.8008,-1.8008,-1.8008,-1.8008,-1.8105,-1.812,-1.812,-1.8262,-1.8252,-1.8189,-1.8839,-1.9459,-2.0009,-2.0009,-2.0526,-2.1239,-2.0782,-2.1132,-2.1908,-2.2094,-2.2567,-2.3108,-1.2844,-1.2543,-1.2305,-1.2305,-1.2305,-1.1996,-1.105,-1.1694,-1.1959,-1.1013,-1.1731,-1.2291,-1.2271,-1.2161,-1.1692,-1.073,-0.9375,-0.8219,-0.7408,-0.6145,-0.5752,-0.6556,-0.6588,-0.612,-0.5131,-0.4377,-0.4288,-0.4887,-0.5088,-0.6637,-0.9447,-1.064,-1.2889,-1.6023,-1.6266,-1.7332,-1.8903,-1.9001,-1.9382,-1.9826,-1.9224,-1.8553,-1.7735,-1.5937,-1.4485,-1.3135,-1.1304,-1.0238,-0.984,-1.0491,-1.0745,-1.0838,-1.1566,-1.1765,-1.1591,-1.099,-1.0788,-1.0788,-1.0788,-1.0872,-1.1275,-1.2569,-1.2905,-1.2905,-1.2905,-1.2905,-1.2905,-1.2905,-1.232,-1.1789,-1.174,-1.1191,-1.0737,-1.0838,0.0,0.0,-1.2498,-1.2868,-1.3636,-1.5128,-1.5313,-1.5654,-1.6473,-1.6619,-1.6402,-1.5855,-1.5869,-1.565,-1.507,-1.5147,-1.5587,-1.6463,-1.7467,-1.8008,-1.8008,-1.8008,-1.8008,-1.8018,-1.8373,-1.8559,-1.8568,-1.9014,-1.8975,-1.8559,-1.8619,-1.8463,-1.8202,-1.8202,-1.8721,-1.9562,-2.0301,-2.1132,-2.2002,-2.2732,-2.3047,-2.3108,-1.3093,-1.2824,-1.2556,-1.2338,-1.2305,-1.2187,-1.1774,-1.204,-1.215,-1.1768,-1.207,-1.2305,-1.2305,-1.1731,-1.1205,-1.082,-0.9697,-0.8573,-0.756,-0.6841,-0.6518,-0.6691,-0.7209,-0.7307,-0.6907,-0.553,-0.5212,-0.6006,-0.5474,-0.634,-0.8555,-1.0161,-1.2139,-1.4407,-1.6322,-1.7824,-1.9085,-2.0648,-2.1245,-2.1111,-2.1265,-2.0758,-1.9663,-1.7833,-1.6153,-1.4468,-1.2156,-1.0931,-1.0466,-1.0712,-1.1091,-1.1541,-1.227,-1.2476,-1.227,-1.1124,-1.0788,-1.072,-1.0287,-1.0788,-1.1541,-1.208,-1.2559,-1.2905,-1.2905,-1.2905,-1.2983,-1.3213,-1.3051,-1.2804,-1.2632,-1.2413,-1.2122,-1.1748,0.0,-1.2778,-1.3643,-1.4185,-1.4733,-1.5278,-1.5349,-1.525,-1.498,-1.5193,-1.5018,-1.4233,-1.4407,-1.4202,-1.344,-1.4557,-1.6008,-1.7767,-1.7929,-1.8135,-1.8364,-1.8364,-1.8535,-1.8809,-1.8965,-1.9043,-1.9043,-1.9209,-1.9199,-1.9023,-1.8724,-1.8815,-1.9107,-1.8344,-1.8529,-1.9332,-1.9661,-2.0333,-2.1207,-2.2032,-2.2659,-2.3155,-1.3167,-1.2886,-1.2583,-1.2338,-1.2305,-1.2077,-1.1434,-1.162,-1.1731,-1.1397,-1.162,-1.1959,-1.2268,-1.1694,-1.1273,-1.1273,-1.0225,-0.928,-0.8569,-0.8186,-0.759,-0.6728,-0.7535,-0.7994,-0.7994,-0.651,-0.6052,-0.6687,-0.5756,-0.6196,-0.7933,-0.9388,-1.1277,-1.3543,-1.5864,-1.7721,-1.9283,-2.1145,-2.1853,-2.1715,-2.1997,-2.149,-2.0422,-1.9011,-1.7209,-1.521,-1.3042,-1.1635,-1.0771,-1.0568,-1.0788,-1.1291,-1.2024,-1.223,-1.2049,-1.1074,-1.0788,-1.0618,-0.9718,-1.0618,-1.1789,-1.1789,-1.2438,-1.3076,-1.3076,-1.3184,-1.3359,-1.3617,-1.3685,-1.3632,-1.3447,-1.3413,-1.3168,-1.2483,-1.2864,-1.3418,-1.3847,-1.468,-1.5181,-1.5044,-1.5304,-1.5184,-1.4378,-1.454,-1.4305,-1.3346,-1.3546,-1.3463,-1.2952,-1.4143,-1.5783,-1.7705,-1.7866,-1.8109,-1.8508,-1.8556,-1.8754,-1.9082,-1.9355,-1.9482,-1.9482,-1.9482,-1.9482,-1.9453,-1.8851,-1.8939,-1.94,-1.8414,-1.8337,-1.8944,-1.9497,-2.0074,-2.0751,-2.1865,-2.2781,-2.3573,-1.2962,-1.2687,-1.2268,-1.2305,-1.2268,-1.1626,-0.9636,-1.0153,-1.0453,-0.9448,-1.019,-1.1205,-1.2187,-1.2305,-1.2305,-1.2305,-1.1264,-1.067,-1.0803,-1.023,-0.8929,-0.6802,-0.754,-0.8027,-0.7994,-0.7177,-0.6719,-0.6719,-0.5756,-0.6196,-0.7896,-0.8295,-1.0451,-1.4006,-1.4878,-1.6894,-1.9697,-2.0117,-2.0823,-2.1618,-2.1006,-2.0436,-1.9828,-1.9203,-1.7536,-1.5319,-1.398,-1.2344,-1.0686,-1.0038,-0.9814,-0.9917,-1.0585,-1.0788,-1.0788,-1.0788,-1.0788,-1.0517,-0.9159,-1.0269,-1.1789,-1.1789,-1.2654,-1.3506,-1.3516,-1.3802,-1.4104,-1.4114,-1.4114,-1.4114,-1.4114,-1.4114,-1.3846,-1.3041,-1.329,-1.3424,-1.2876,-1.4004,-1.4789,-1.4536,-1.5324,-1.5718,-1.5228,-1.5163,-1.4772,-1.3745,-1.3709,-1.3851,-1.4186,-1.4201,-1.4751,-1.5945,-1.7084,-1.789,-1.8314,-1.851,-1.8607,-1.8627,-1.9512,-1.9912,-1.9912,-1.9912,-1.9912,-1.9863,-1.8968,-1.8598,-1.8568,-1.8184,-1.8008,-1.8168,-1.9911,-2.059,-2.0814,-2.2494,-2.3619,-2.4292,-1.0869,-1.0755,-1.074,-1.1154,-1.0645,-1.0464,-1.1285,-1.105,-1.0938,-1.136,-1.1663,-1.1959,-1.2268,-1.2305,-1.2305,-1.2305,-1.1998,-1.1455,-1.0719,-0.9451,-0.8466,-0.7927,-0.9123,-0.9556,-0.8914,-0.8651,-0.8221,-0.76,-0.6715,-0.6224,-0.6162,-0.6901,-0.8548,-1.0969,-1.2165,-1.4278,-1.7008,-1.7883,-1.8761,-1.9495,-1.9183,-1.8946,-1.8685,-1.7635,-1.6377,-1.4947,-1.3293,-1.2204,-1.1341,-1.0192,-1.0115,-1.0542,-1.0737,-1.0788,-1.072,-1.0244,-1.044,-1.0517,-0.9159,-1.0269,-1.1778,-1.1619,-1.2553,-1.3558,-1.3851,-1.4016,-1.4192,-1.4531,-1.459,-1.4678,-1.4952,-1.5001,-1.4744,-1.3949,-1.4136,-1.4224,-1.3774,-1.4238,-1.4436,-1.3998,-1.4194,-1.4055,-1.3222,-1.3164,-1.3055,-1.2732,-1.2732,-1.3068,-1.3814,-1.4074,-1.4788,-1.6097,-1.638,-1.7068,-1.8285,-1.8841,-1.9394,-1.999,-1.9941,-1.9912,-1.9912,-1.9912,-1.9756,-1.9443,-1.8851,-1.8598,-1.8568,-1.8184,-1.8361,-1.9011,-2.0171,-2.0974,-2.1647,-2.2689,-2.3619,-2.4379,-0.9982,-0.9922,-0.9938,-1.029,-0.982,-0.9647,-1.0481,-1.0024,-0.9852,-1.0458,-1.0527,-1.0683,-1.1062,-1.1099,-1.1285,-1.1657,-1.1694,-1.1587,-1.1277,-0.989,-0.9071,-0.9077,-1.0149,-1.0155,-0.8812,-0.878,-0.8355,-0.747,-0.658,-0.5903,-0.5428,-0.5966,-0.7182,-0.8985,-1.0361,-1.214,-1.4138,-1.4596,-1.5144,-1.5673,-1.518,-1.5059,-1.5148,-1.4878,-1.4179,-1.3262,-1.2408,-1.1627,-1.0838,-0.9762,-0.9658,-1.0064,-1.0312,-1.0218,-0.9987,-0.984,-1.0182,-1.0368,-0.926,-1.0329,-1.1799,-1.1896,-1.2842,-1.3841,-1.427,-1.4494,-1.4689,-1.498,-1.5039,-1.5166,-1.5596,-1.5527,-1.5078,-1.4109,-1.4082,-1.3924,-1.314,-1.3616,-1.3828,-1.3237,-1.3455,-1.331,-1.2372,-1.2305,-1.2305,-1.2305,-1.2412,-1.2788,-1.3468,-1.3774,-1.4336,-1.5131,-1.5615,-1.6203,-1.6923,-1.808,-1.9124,-2.0096,-1.9961,-1.9912,-1.9912,-1.9912,-1.9775,-1.9502,-1.8861,-1.8598,-1.8568,-1.8184,-1.8529,-1.9398,-2.0268,-2.1132,-2.2013,-2.2793,-2.3796,-2.4794,-0.97,-0.9666,-0.9481,-0.9523,-0.9389,-0.8978,-0.8221,-0.794,-0.7846,-0.7957,-0.7974,-0.832,-0.9213,-0.9327,-0.9728,-1.0714,-1.0765,-1.1205,-1.2191,-1.1063,-1.026,-1.0077,-1.0594,-0.9987,-0.8032,-0.8156,-0.7795,-0.6948,-0.5986,-0.5533,-0.5528,-0.54,-0.6149,-0.765,-0.8817,-0.9861,-1.0697,-1.0182,-1.0131,-1.0312,-0.9398,-0.929,-0.9843,-1.1012,-1.1138,-1.0724,-1.1224,-1.0713,-0.9684,-0.9035,-0.8804,-0.891,-0.9546,-0.9325,-0.895,-0.9616,-1.0013,-1.0086,-0.9438,-1.0394,-1.176,-1.2344,-1.329,-1.4247,-1.4746,-1.5137,-1.542,-1.5459,-1.5469,-1.5605,-1.6075,-1.5801,-1.5139,-1.397,-1.3675,-1.317,-1.1894,-1.2645,-1.3098,-1.2485,-1.3091,-1.3244,-1.2372,-1.2305,-1.2305,-1.2305,-1.2616,-1.2898,-1.312,-1.3387,-1.3553,-1.3527,-1.4832,-1.5294,-1.4847,-1.6683,-1.8174,-1.9236,-1.965,-1.9883,-1.9912,-1.9873,-1.9834,-1.9756,-1.89,-1.8549,-1.852,-1.8233,-1.862,-1.9497,-2.0365,-2.1239,-2.2094,-2.2823,-2.4076,-2.5425,-0.756,-0.7573,-0.7674,-0.8279,-0.7676,-0.7569,-0.8818,-0.8423,-0.8221,-0.9038,-0.9226,-0.9344,-0.9447,-0.9466,-0.982,-1.0726,-1.0601,-1.0894,-1.1928,-1.075,-0.9956,-0.9783,-0.9919,-0.9361,-0.8032,-0.932,-0.962,-0.8748,-0.7859,-0.7074,-0.6396,-0.4967,-0.4632,-0.5137,-0.4506,-0.4435,-0.4768,-0.3778,-0.3369,-0.3322,-0.2477,-0.3015,-0.4463,-0.5956,-0.7454,-0.8808,-0.959,-0.9841,-0.9684,-0.9035,-0.8804,-0.8871,-0.9234,-0.922,-0.9192,-0.9616,-0.9782,-0.9787,-0.9643,-1.0244,-1.1011,-1.1461,-1.2898,-1.4358,-1.511,-1.5352,-1.5508,-1.588,-1.5948,-1.6085,-1.6504,-1.6482,-1.6121,-1.5241,-1.5251,-1.5041,-1.4112,-1.3776,-1.3562,-1.3411,-1.2915,-1.2519,-1.2335,-1.2305,-1.2305,-1.2305,-1.2616,-1.271,-1.2512,-1.3013,-1.3193,-1.2985,-1.3688,-1.4429,-1.5193,-1.6353,-1.7518,-1.8692,-1.9189,-1.96,-1.9902,-1.957,-1.9238,-1.8851,-1.8334,-1.8144,-1.8169,-1.8761,-1.9529,-2.0398,-2.127,-2.2125,-2.2854,-2.3047,-2.4076,-2.5563,-0.6987,-0.6987,-0.7085,-0.7424,-0.6992,-0.6888,-0.7818,-0.7596,-0.7458,-0.8005,-0.8133,-0.8315,-0.8721,-0.8707,-0.9214,-1.0514,-1.012,-1.0191,-1.1137,-1.0136,-0.96,-0.9803,-1.0273,-1.0122,-0.9268,-1.0136,-0.9977,-0.8678,-0.8646,-0.7962,-0.6654,-0.4916,-0.3681,-0.2921,-0.1475,-0.043,0.0322,0.136,0.205,0.2451,0.2927,0.1776,-0.0401,-0.2624,-0.4928,-0.7146,-0.8601,-0.9287,-0.9455,-0.9113,-0.9112,-0.9252,-0.9406,-0.9452,-0.9486,-0.9639,-0.978,-0.9886,-0.9886,-1.0249,-1.0843,-1.1537,-1.2484,-1.358,-1.4856,-1.5608,-1.6073,-1.6338,-1.6387,-1.6514,-1.6963,-1.6843,-1.6491,-1.59,-1.5861,-1.5627,-1.4815,-1.4547,-1.4477,-1.4678,-1.383,-1.3084,-1.2757,-1.3175,-1.3407,-1.3221,-1.3676,-1.3771,-1.3236,-1.3497,-1.3427,-1.2979,-1.3547,-1.4001,-1.4294,-1.5913,-1.7047,-1.7756,-1.8995,-1.9707,-1.9912,-1.9902,-1.9551,-1.8936,-1.8711,-1.8389,-1.8076,-1.8944,-1.9814,-2.0687,-2.1565,-2.2384,-2.3108,-2.3108,-2.4076,-2.5563,-0.7095,-0.7095,-0.7051,-0.691,-0.6824,-0.6678,-0.6542,-0.6555,-0.6539,-0.6555,-0.6694,-0.7137,-0.794,-0.8212,-0.8863,-1.028,-0.979,-0.9712,-1.0527,-0.9846,-0.9619,-1.0135,-1.1015,-1.1256,-1.0754,-1.0693,-0.9925,-0.8447,-0.9005,-0.8484,-0.6883,-0.5044,-0.3096,-0.1084,0.0773,0.2757,0.4804,0.5855,0.6773,0.7497,0.7275,0.5479,0.2657,-0.0449,-0.3307,-0.5932,-0.7955,-0.8956,-0.9291,-0.9291,-0.9479,-0.9722,-0.974,-0.976,-0.9766,-0.9849,-1.0,-1.0194,-1.0194,-1.0405,-1.0798,-1.17,-1.2129,-1.2697,-1.4208,-1.5527,-1.6516,-1.6763,-1.6814,-1.6973,-1.7412,-1.7197,-1.6825,-1.647,-1.6349,-1.6064,-1.5446,-1.5486,-1.5718,-1.6117,-1.5205,-1.4357,-1.3789,-1.4569,-1.495,-1.4599,-1.5179,-1.5184,-1.4358,-1.4289,-1.3967,-1.3227,-1.3734,-1.3774,-1.3287,-1.5446,-1.6587,-1.6705,-1.876,-1.983,-2.0029,-2.0322,-2.0067,-1.9287,-1.9209,-1.873,-1.8076,-1.8944,-1.9726,-2.0494,-2.1491,-2.2322,-2.2914,-2.3185,-2.4105,-2.5315,-0.7095,-0.7095,-0.7051,-0.691,-0.6869,-0.6803,-0.6555,-0.6698,-0.682,-0.6685,-0.753,-0.8142,-0.8188,-0.949,-1.0381,-1.0389,-1.0497,-1.0767,-1.1233,-1.0822,-1.0779,-1.1168,-1.16,-1.165,-1.1282,-1.1062,-1.0711,-1.0263,-0.9626,-0.878,-0.7762,-0.5226,-0.2659,-0.0066,0.246,0.5415,0.8577,1.015,1.133,1.1974,1.0489,0.7912,0.4592,0.0659,-0.2786,-0.5775,-0.7622,-0.8858,-0.9626,-0.9626,-0.9653,-0.9726,-0.998,-1.006,-1.0107,-1.0399,-1.0499,-1.0533,-1.0533,-1.0566,-1.0631,-1.0792,-1.1808,-1.2873,-1.3107,-1.4377,-1.5827,-1.7044,-1.7295,-1.7422,-1.7852,-1.7881,-1.7818,-1.7731,-1.7741,-1.7798,-1.805,-1.7429,-1.7108,-1.7575,-1.6727,-1.6056,-1.5992,-1.6114,-1.6165,-1.6116,-1.6456,-1.6093,-1.4788,-1.4981,-1.4528,-1.3259,-1.3493,-1.3626,-1.3547,-1.5071,-1.5834,-1.5875,-1.8063,-1.9593,-2.0507,-2.0146,-1.9736,-1.9268,-1.8851,-1.8412,-1.8076,-1.8944,-1.9365,-1.9628,-2.127,-2.197,-2.2218,-2.3636,-2.4263,-2.4538,-0.7095,-0.7095,-0.7051,-0.691,-0.6886,-0.6854,-0.6634,-0.6787,-0.6832,-0.6719,-0.762,-0.8461,-0.8867,-1.0548,-1.1543,-1.127,-1.0882,-1.0737,-1.0827,-1.0743,-1.0731,-1.0856,-1.1507,-1.173,-1.1395,-1.1142,-1.0929,-1.0834,-1.0283,-0.9588,-0.8678,-0.5969,-0.3285,-0.0591,0.2601,0.5654,0.851,0.9756,1.0501,1.0678,0.8927,0.6148,0.2669,-0.0911,-0.4076,-0.6793,-0.8253,-0.9039,-0.9459,-0.9626,-0.9793,-0.9973,-1.0274,-1.0399,-1.0419,-1.0553,-1.0593,-1.0626,-1.0787,-1.0834,-1.0914,-1.1243,-1.1826,-1.2514,-1.3204,-1.3897,-1.4898,-1.6594,-1.7561,-1.81,-1.8286,-1.8325,-1.8325,-1.8325,-1.8325,-1.8393,-1.8578,-1.8235,-1.7912,-1.7805,-1.7849,-1.7592,-1.6965,-1.7475,-1.7738,-1.7482,-1.783,-1.7631,-1.6581,-1.5881,-1.5183,-1.4395,-1.4056,-1.3895,-1.3895,-1.5107,-1.5696,-1.5745,-1.794,-1.9244,-1.9717,-2.013,-1.9922,-1.9277,-1.9082,-1.8623,-1.8076,-1.8944,-1.9299,-1.9431,-2.0687,-2.1459,-2.2002,-2.2695,-2.3535,-2.435]},{"header":{"parameterUnit":"m.s-1","parameterCategory":1,"la1":30.6,"la2":28.766,"lo1":-90.7593,"lo2":-88.6598,"dy":0.0162,"dx":0.0183,"nx":116,"ny":114,"refTime":"2023-08-30T18:00:00:Z","depth":0,"parameterNumber":3,"parameterNumberName":"V-component_of_WINDS"},"data":[0.0,0.0,0.0,0.0,0.0,0.0,0.0,0.0,0.0,0.0,0.0,0.0,0.0,0.0,0.0,0.0,0.0,0.0,0.0,0.0,0.0,0.0,0.0,0.0,0.0,0.0,0.0,0.0,0.0,0.0,0.0,0.0,0.0,0.0,0.0,0.0,0.0,0.0,0.0,0.0,0.0,0.0,0.0,0.0,0.0,0.0,0.0,0.0,0.0,0.0,0.0,0.0,0.0,0.0,0.0,0.0,0.0,0.0,0.0,0.0,0.0,0.0,0.0,0.0,0.0,0.0,0.0,0.0,0.0,0.0,0.0,0.0,0.0,0.0,0.0,0.0,0.0,0.0,0.0,0.0,0.0,0.0,0.0,0.0,0.0,0.0,0.0,0.0,0.0,0.0,0.0,0.0,0.0,0.0,0.0,0.0,0.0,0.0,0.0,0.0,0.0,0.0,0.0,0.0,0.0,0.0,0.0,0.0,0.0,0.0,0.0,0.0,0.0,0.0,0.0,0.0,0.0,0.0,0.0,0.0,0.0,0.0,0.0,0.0,0.0,0.0,0.0,0.0,0.0,0.0,0.0,0.0,0.0,0.0,0.0,0.0,0.0,0.0,0.0,0.0,0.0,0.0,0.0,0.0,0.0,0.0,0.0,0.0,0.0,0.0,0.0,0.0,0.0,0.0,0.0,0.0,0.0,0.0,0.0,0.0,0.0,0.0,0.0,0.0,0.0,0.0,0.0,0.0,0.0,0.0,0.0,0.0,0.0,0.0,0.0,0.0,0.0,0.0,0.0,0.0,0.0,0.0,0.0,0.0,0.0,0.0,0.0,0.0,0.0,0.0,0.0,0.0,0.0,0.0,0.0,0.0,0.0,0.0,0.0,0.0,0.0,0.0,0.0,0.0,0.0,0.0,0.0,0.0,0.0,0.0,0.0,0.0,0.0,0.0,0.0,0.0,0.0,0.0,0.0,0.0,0.0,0.0,0.0,0.0,0.0,0.0,0.0,0.0,0.0,0.0,0.0,0.0,0.0,0.0,0.0,0.0,0.0,0.0,0.0,0.0,0.0,0.0,0.0,0.0,0.0,0.0,0.0,0.0,0.0,0.0,0.0,0.0,0.0,0.0,0.0,0.0,0.0,0.0,0.0,0.0,0.0,0.0,0.0,0.0,0.0,0.0,0.0,0.0,0.0,0.0,0.0,0.0,0.0,0.0,0.0,0.0,0.0,0.0,0.0,0.0,0.0,0.0,0.0,0.0,0.0,0.0,0.0,0.0,0.0,0.0,0.0,0.0,0.0,0.0,0.0,0.0,0.0,0.0,0.0,0.0,0.0,0.0,0.0,0.0,0.0,0.0,0.0,0.0,0.0,0.0,0.0,0.0,0.0,0.0,0.0,0.0,0.0,0.0,0.0,0.0,0.0,0.0,0.0,0.0,0.0,0.0,0.0,0.0,0.0,0.0,0.0,0.0,0.0,0.0,0.0,0.0,0.0,0.0,0.0,0.0,0.0,0.0,0.0,0.0,0.0,0.0,0.0,0.0,0.0,0.0,0.0,0.0,0.0,0.0,0.0,0.0,0.0,0.0,0.0,0.0,0.0,0.0,0.0,0.0,0.0,0.0,0.0,0.0,0.0,0.0,0.0,0.0,0.0,0.0,0.0,0.0,0.0,0.0,0.0,0.0,0.0,0.0,0.0,0.0,0.0,0.0,0.0,0.0,0.0,0.0,0.0,0.0,0.0,0.0,0.0,0.0,0.0,0.0,0.0,0.0,0.0,0.0,0.0,0.0,0.0,0.0,0.0,0.0,0.0,0.0,0.0,0.0,0.0,0.0,0.0,0.0,0.0,0.0,0.0,0.0,0.0,0.0,0.0,0.0,0.0,0.0,0.0,0.0,0.0,0.0,0.0,0.0,0.0,0.0,0.0,0.0,0.0,0.0,0.0,0.0,0.0,0.0,0.0,0.0,0.0,0.0,0.0,0.0,0.0,0.0,0.0,0.0,0.0,0.0,0.0,0.0,0.0,0.0,0.0,0.0,0.0,0.0,0.0,0.0,0.0,0.0,0.0,0.0,0.0,0.0,0.0,0.0,0.0,0.0,0.0,0.0,0.0,0.0,0.0,0.0,0.0,0.0,0.0,0.0,0.0,0.0,0.0,0.0,0.0,0.0,0.0,0.0,0.0,0.0,0.0,0.0,0.0,0.0,0.0,0.0,0.0,0.0,0.0,0.0,0.0,0.0,0.0,0.0,0.0,0.0,0.0,0.0,0.0,0.0,0.0,0.0,0.0,0.0,0.0,0.0,0.0,0.0,0.0,0.0,0.0,0.0,0.0,0.0,0.0,0.0,0.0,0.0,0.0,0.0,0.0,0.0,0.0,0.0,0.0,0.0,0.0,0.0,0.0,0.0,0.0,0.0,0.0,0.0,0.0,0.0,0.0,0.0,0.0,0.0,0.0,0.0,0.0,0.0,0.0,0.0,0.0,0.0,0.0,0.0,0.0,0.0,0.0,0.0,0.0,0.0,0.0,0.0,0.0,0.0,0.0,0.0,0.0,0.0,0.0,0.0,0.0,0.0,0.0,0.0,0.0,0.0,0.0,0.0,0.0,0.0,0.0,0.0,0.0,0.0,0.0,0.0,0.0,0.0,0.0,0.0,0.0,0.0,0.0,0.0,0.0,0.0,0.0,0.0,0.0,0.0,0.0,0.0,0.0,0.0,0.0,0.0,0.0,0.0,0.0,0.0,0.0,0.0,0.0,0.0,0.0,0.0,0.0,0.0,0.0,0.0,0.0,0.0,0.0,0.0,0.0,0.0,0.0,0.0,0.0,0.0,0.0,0.0,0.0,0.0,0.0,0.0,0.0,0.0,0.0,0.0,0.0,0.0,0.0,0.0,0.0,0.0,0.0,0.0,0.0,0.0,0.0,0.0,0.0,0.0,0.0,0.0,0.0,0.0,0.0,0.0,0.0,0.0,0.0,0.0,0.0,0.0,0.0,0.0,0.0,0.0,0.0,0.0,0.0,0.0,0.0,0.0,0.0,0.0,0.0,0.0,0.0,0.0,0.0,0.0,0.0,0.0,0.0,0.0,0.0,0.0,0.0,0.0,0.0,0.0,0.0,0.0,0.0,0.0,0.0,0.0,0.0,0.0,0.0,0.0,0.0,0.0,0.0,0.0,0.0,0.0,0.0,0.0,0.0,0.0,0.0,0.0,0.0,0.0,0.0,0.0,0.0,0.0,0.0,0.0,0.0,0.0,0.0,0.0,0.0,0.0,0.0,0.0,0.0,0.0,0.0,0.0,0.0,0.0,0.0,0.0,0.0,0.0,0.0,0.0,0.0,0.0,0.0,0.0,0.0,0.0,0.0,0.0,0.0,0.0,0.0,0.0,0.0,0.0,0.0,0.0,0.0,0.0,0.0,0.0,0.0,0.0,0.0,0.0,0.0,0.0,0.0,0.0,0.0,0.0,0.0,0.0,0.0,0.0,0.0,0.0,0.0,0.0,0.0,0.0,0.0,0.0,0.0,0.0,0.0,0.0,0.0,0.0,0.0,0.0,0.0,0.0,0.0,0.0,0.0,0.0,0.0,0.0,0.0,0.0,0.0,0.0,0.0,0.0,0.0,0.0,0.0,0.0,0.0,0.0,0.0,0.0,0.0,0.0,0.0,0.0,0.0,0.0,0.0,0.0,0.0,0.0,0.0,0.0,0.0,0.0,0.0,0.0,0.0,0.0,0.0,0.0,0.0,0.0,0.0,0.0,0.0,0.0,0.0,0.0,0.0,0.0,0.0,0.0,0.0,0.0,0.0,0.0,0.0,0.0,0.0,0.0,0.0,0.0,0.0,0.0,0.0,0.0,0.0,0.0,0.0,0.0,0.0,0.0,0.0,0.0,0.0,0.0,0.0,0.0,0.0,0.0,0.0,0.0,0.0,0.0,0.0,0.0,0.0,0.0,0.0,0.0,0.0,0.0,0.0,0.0,0.0,0.0,0.0,0.0,0.0,0.0,0.0,0.0,0.0,0.0,0.0,0.0,0.0,0.0,0.0,0.0,0.0,0.0,0.0,0.0,0.0,0.0,0.0,0.0,0.0,0.0,0.0,0.0,0.0,0.0,0.0,0.0,0.0,0.0,0.0,0.0,0.0,0.0,0.0,0.0,0.0,0.0,0.0,0.0,0.0,0.0,0.0,0.0,0.0,0.0,0.0,0.0,0.0,0.0,0.0,0.0,0.0,0.0,0.0,0.0,0.0,0.0,0.0,0.0,0.0,0.0,0.0,0.0,0.0,0.0,0.0,0.0,0.0,0.0,0.0,0.0,0.0,0.0,0.0,0.0,0.0,0.0,0.0,0.0,0.0,0.0,0.0,0.0,0.0,0.0,0.0,0.0,0.0,0.0,0.0,0.0,0.0,0.0,0.0,0.0,0.0,0.0,0.0,0.0,0.0,0.0,0.0,0.0,0.0,0.0,0.0,0.0,0.0,0.0,0.0,0.0,0.0,0.0,0.0,0.0,0.0,0.0,0.0,0.0,0.0,0.0,0.0,0.0,0.0,0.0,0.0,0.0,0.0,0.0,0.0,0.0,0.0,0.0,0.0,0.0,0.0,0.0,0.0,0.0,0.0,0.0,0.0,0.0,0.0,0.0,0.0,0.0,0.0,0.0,0.0,0.0,0.0,0.0,0.0,0.0,0.0,0.0,0.0,0.0,0.0,0.0,0.0,0.0,0.0,0.0,0.0,0.0,0.0,0.0,0.0,0.0,0.0,0.0,0.0,0.0,0.0,0.0,0.0,0.0,0.0,0.0,0.0,0.0,0.0,0.0,0.0,0.0,0.0,0.0,0.0,0.0,0.0,0.0,0.0,0.0,0.0,0.0,0.0,0.0,0.0,0.0,0.0,0.0,0.0,0.0,0.0,0.0,0.0,0.0,0.0,0.0,0.0,0.0,0.0,0.0,0.0,0.0,0.0,0.0,0.0,0.0,0.0,0.0,0.0,0.0,0.0,0.0,0.0,0.0,0.0,0.0,0.0,0.0,0.0,0.0,0.0,0.0,0.0,0.0,0.0,0.0,0.0,0.0,0.0,0.0,0.0,0.0,0.0,0.0,0.0,0.0,0.0,0.0,0.0,0.0,0.0,0.0,0.0,0.0,0.0,0.0,0.0,0.0,0.0,0.0,0.0,0.0,0.0,0.0,0.0,0.0,0.0,0.0,0.0,0.0,0.0,0.0,0.0,0.0,0.0,0.0,0.0,0.0,0.0,0.0,0.0,0.0,0.0,0.0,0.0,0.0,0.0,0.0,0.0,0.0,0.0,0.0,0.0,0.0,0.0,0.0,0.0,0.0,0.0,0.0,0.0,0.0,0.0,0.0,0.0,0.0,0.0,0.0,0.0,0.0,0.0,0.0,0.0,0.0,0.0,0.0,0.0,0.0,0.0,0.0,0.0,0.0,0.0,0.0,0.0,0.0,0.0,0.0,0.0,0.0,0.0,0.0,0.0,0.0,0.0,0.0,0.0,0.0,0.0,0.0,0.0,0.0,0.0,0.0,0.0,0.0,0.0,0.0,0.0,0.0,0.0,0.0,0.0,0.0,0.0,0.0,0.0,0.0,0.0,0.0,0.0,0.0,0.0,0.0,0.0,0.0,0.0,0.0,0.0,0.0,0.0,0.0,0.0,0.0,0.0,0.0,0.0,0.0,0.0,0.0,0.0,0.0,0.0,0.0,0.0,0.0,0.0,0.0,0.0,0.0,0.0,0.0,0.0,0.0,0.0,0.0,0.0,0.0,0.0,0.0,0.0,0.0,0.0,0.0,0.0,0.0,0.0,0.0,0.0,0.0,0.0,0.0,0.0,0.0,0.0,0.0,0.0,0.0,0.0,0.0,0.0,0.0,0.0,0.0,0.0,0.0,0.0,0.0,0.0,0.0,0.0,0.0,0.0,0.0,0.0,0.0,0.0,0.0,0.0,0.0,0.0,0.0,0.0,0.0,0.0,0.0,0.0,0.0,0.0,0.0,0.0,0.0,0.0,0.0,0.0,0.0,0.0,0.0,0.0,0.0,0.0,0.0,0.0,0.0,0.0,0.0,0.0,0.0,0.0,0.0,-0.3153,0.0,0.0,0.0,0.0,0.0,0.0,0.0,0.0,0.0,0.0,0.0,0.0,0.0,0.0,0.0,0.0,0.0,0.0,0.0,0.0,0.0,0.0,0.0,0.0,0.0,0.0,0.0,0.0,0.0,0.0,0.0,0.0,0.0,0.0,0.0,0.0,0.0,0.0,1.8105,1.7715,1.688,1.5689,1.6518,1.7221,1.7839,0.0,0.0,0.0,0.0,0.0,0.0,0.0,0.0,0.0,0.0,0.0,0.0,0.0,0.0,0.0,0.0,0.0,0.0,0.0,0.0,0.0,0.0,0.0,0.0,0.0,0.0,0.0,0.0,0.0,0.0,0.0,0.0,0.0,0.0,0.0,0.0,0.0,0.0,0.0,0.0,0.0,0.0,0.0,0.0,0.0,0.0,0.0,0.0,0.0,0.0,0.0,0.0,0.0,0.0,0.0,0.0,0.0,0.0,0.0,0.0,0.0,0.0,0.0,0.0,0.0,0.0,0.0,0.0,0.0,0.0,0.0,-0.7434,0.0,0.0,0.0,0.0,0.0,0.0,0.0,0.0,0.0,0.0,0.0,0.0,0.0,0.0,0.0,0.0,0.0,0.0,0.0,0.0,0.0,0.0,0.0,0.9925,0.9474,0.9704,1.0075,1.0941,0.0,0.0,0.0,0.0,0.0,0.0,1.8385,1.8641,1.8601,1.8274,1.5943,1.4713,1.4537,1.4761,1.5288,1.6202,1.9422,0.0,0.0,0.0,0.0,0.0,0.0,0.0,0.0,0.0,0.0,0.0,0.0,0.0,0.0,0.0,0.0,0.0,0.0,0.0,0.0,0.0,0.0,0.0,0.0,0.0,0.0,0.0,0.0,0.0,0.0,0.0,0.0,0.0,0.0,0.0,0.0,0.0,0.0,0.0,0.0,0.0,0.0,0.0,0.0,0.0,0.0,0.0,0.0,0.0,0.0,0.0,0.0,0.0,0.0,0.0,0.0,0.0,0.0,0.0,0.0,0.0,0.0,0.0,-0.1416,-0.057,0.0782,-0.0096,-0.0097,0.0255,-0.5553,-0.6092,-0.3433,-1.044,0.0,0.0,0.0,0.0,0.0,0.0,0.0,0.0,0.0,0.0,0.0,0.0,0.0,0.0,0.0,0.0,0.0,0.0,0.0,0.0,0.0,1.0047,0.9915,1.0573,1.0379,1.1223,1.3614,0.0,0.0,0.0,0.0,0.0,1.6804,1.8005,1.7164,1.4171,1.1942,1.1467,1.2649,1.2699,1.2997,1.3549,1.4904,1.6128,1.7194,0.0,0.0,0.0,0.0,0.0,0.0,0.0,0.0,0.0,0.0,0.0,0.0,0.0,0.0,0.0,0.0,0.0,0.0,0.0,0.0,0.0,0.0,0.0,0.0,0.0,0.0,0.0,0.0,0.0,0.0,0.0,0.0,0.0,0.0,0.0,0.0,0.0,0.0,0.0,0.0,0.0,-0.1868,-0.264,0.0,0.0,0.0,0.0,0.0,0.0,0.0,0.0,0.0,0.0,0.0,0.0,0.0,-0.1211,-0.022,0.1365,0.1792,0.1121,0.1742,0.1385,0.0133,0.0,0.0,0.01,0.0064,0.0,-0.4554,-0.5213,0.0,0.0,0.0,0.0,0.0,0.0,0.0,0.0,0.0,0.0,0.0,0.0,0.0,0.0,0.0,0.0,0.0,0.0,0.0,0.0,0.0,0.9428,0.9013,0.9683,0.9697,1.0835,1.3537,1.4503,0.0,0.0,1.816,1.8078,1.7619,1.7058,1.4984,1.1375,1.1423,1.108,1.0333,1.0675,1.0942,1.1174,1.1758,1.3635,1.6364,1.6809,0.0,0.0,0.0,0.0,0.0,0.0,0.0,0.0,0.0,0.0,0.0,0.0,0.0,0.0,0.0,0.0,0.0,0.0,0.0,0.0,0.0,0.0,0.0,0.0,0.0,0.0,0.0,0.0,0.0,0.0,0.0,0.0,0.0,0.0,0.0,0.0,0.0,0.0,0.0,-0.4768,-0.313,-0.2905,-0.2953,-0.3246,0.0,0.0,0.0,0.0,0.0,0.0,0.0,0.0,0.0,0.1756,0.1788,0.2247,0.323,0.3723,0.371,0.3235,0.3086,0.2273,0.0883,0.0896,0.0564,0.0038,0.0481,-0.0139,-0.1589,-0.2819,-0.4242,-0.5948,0.0,0.0,0.0,0.0,-1.1025,-1.1348,0.0,0.0,0.0,0.0,0.0,0.0,0.0,0.0,0.0,0.0,0.0,0.0,1.0335,0.9105,0.8654,0.9547,0.9428,1.0714,1.3953,1.478,1.6095,1.8234,1.859,1.8651,1.8485,1.6081,1.3388,1.0395,1.1235,1.0819,0.9265,0.9626,0.9913,1.0134,1.0281,1.2037,1.4937,1.5321,1.5936,1.668,0.0,0.0,0.0,0.0,0.0,0.0,0.0,0.0,0.0,0.0,0.0,0.0,0.0,0.0,0.0,0.0,0.0,0.0,0.0,0.0,0.0,0.0,0.0,0.0,0.0,0.0,0.0,0.0,0.0,0.0,0.0,0.0,0.0,0.0,0.0,0.0,0.0,-0.4405,-0.327,-0.2379,-0.1773,-0.1732,0.0,0.0,0.0,0.0,0.0,0.0,0.2199,0.2523,0.3444,0.5021,0.4771,0.4975,0.5759,0.5307,0.4934,0.4632,0.4064,0.3183,0.2115,0.2112,0.1678,0.0942,0.1206,0.1601,0.1903,-0.0706,-0.1393,-0.1128,-0.5094,-0.72,-0.7918,-0.7158,-0.7621,-0.8024,0.0,0.0,0.0,0.0,0.0,0.0,0.0,0.0,0.0,0.0,0.0,1.0465,1.0235,0.9574,0.9803,1.1407,1.0229,1.1259,1.5683,1.4833,1.5422,1.8266,1.8178,1.8148,1.8406,1.5231,1.306,1.1978,1.0234,0.9762,1.0499,1.0214,1.051,1.1295,1.1062,1.1418,1.223,1.2638,1.3342,1.4362,1.653,0.0,0.0,0.0,0.0,0.0,0.0,0.0,0.0,0.0,0.0,0.0,0.0,0.0,0.0,0.0,0.0,0.0,0.0,0.0,0.0,0.0,0.0,0.0,0.0,0.0,0.0,0.0,0.0,0.0,0.0,0.0,0.0,0.0,0.0,0.0,0.0,0.0,0.0,0.0728,0.1541,0.0,0.0,0.0,0.0,0.0326,0.1456,0.2408,0.3109,0.4385,0.5247,0.5549,0.5797,0.6027,0.6265,0.6472,0.6068,0.5067,0.5038,0.4463,0.3508,0.3512,0.3472,0.3472,0.4421,0.4867,0.4692,0.2011,0.0136,-0.1222,-0.2666,-0.4555,-0.6144,-0.4038,-0.3745,-0.3913,0.0,0.0,0.0,0.0,0.0,0.0,0.0,0.0,1.274,1.2257,1.176,1.1431,1.1365,1.0363,1.026,1.1573,1.1109,1.1881,1.4513,1.5248,1.615,1.738,1.8704,1.8236,1.57,1.36,1.1877,1.0559,1.0414,1.0528,1.0874,1.0922,1.1096,1.1395,1.1516,1.1587,1.1622,1.1782,1.2429,1.3419,1.4045,1.5007,0.0,0.0,0.0,0.0,0.0,0.0,0.0,0.0,0.0,0.0,0.0,0.0,0.0,0.0,0.0,0.0,0.0,0.0,0.0,0.0,0.0,0.0,0.0,0.0,0.0,0.0,0.0,0.0,0.0,0.0,0.0,0.0,0.0,0.0,0.0,0.0,0.0,0.0589,0.2115,0.0,0.1631,0.1933,0.2297,0.2496,0.3758,0.5011,0.6111,0.6813,0.752,0.836,0.7819,0.7641,0.7827,0.7168,0.6632,0.6244,0.6244,0.5644,0.4574,0.4574,0.4191,0.3638,0.398,0.4082,0.3881,0.3069,0.2367,0.181,0.1902,0.0646,-0.1103,-0.0319,-0.0211,-0.0244,0.0,0.0,0.0,0.0,0.0,0.0,0.0,0.0,1.3252,1.2647,1.2169,1.1654,1.1048,1.0394,1.0491,1.1734,1.1537,1.2542,1.54,1.6216,1.7093,1.8165,1.8975,1.7543,1.3575,1.293,1.1813,1.0157,1.0808,1.1189,1.1323,1.149,1.1677,1.1877,1.2114,1.2118,1.2004,1.202,1.2063,1.221,1.2463,1.3588,1.5212,0.0,0.0,0.0,0.0,0.0,0.0,0.0,0.0,0.0,0.0,0.0,0.0,0.0,0.0,0.0,0.0,0.0,0.0,0.0,0.0,0.0,0.0,0.0,0.0,0.0,0.0,0.0,0.0,0.0,0.0,0.0,0.0,0.0,0.0,0.0,0.163,0.114,0.3075,0.4056,0.2925,0.3832,0.4492,0.4507,0.5801,0.7023,0.7948,0.8557,0.922,0.9968,0.9411,0.8971,0.8687,0.7951,0.7386,0.6957,0.6957,0.656,0.5768,0.5768,0.542,0.4812,0.5198,0.5323,0.5181,0.5304,0.5043,0.4614,0.4416,0.3463,0.2162,0.2164,0.214,0.2124,0.0,0.0,0.0,0.0,0.0,0.0,0.0,1.3149,1.3199,1.2262,1.186,1.1006,0.9256,0.9634,1.0611,1.1983,1.147,1.3268,1.8495,1.7665,1.809,2.0582,1.8695,1.5931,1.2356,1.3301,1.2909,1.1035,1.1316,1.161,1.1946,1.194,1.2241,1.2797,1.2797,1.2965,1.3213,1.3213,1.2211,1.0759,1.1974,1.2677,1.3297,0.0,0.0,0.0,0.0,0.0,0.0,0.0,0.0,0.0,0.0,0.0,0.0,0.0,0.0,0.0,0.0,0.0,0.0,0.0,0.0,0.0,0.0,0.0,0.0,0.0,0.0,0.0,0.0,0.0,0.0,0.0,0.0,0.0,-0.054,0.1103,0.2574,0.2699,0.4676,0.5885,0.5491,0.5791,0.6129,0.6317,0.7517,0.8279,0.8451,0.9608,1.0263,1.0303,1.0424,0.991,0.8827,0.8884,0.8321,0.7139,0.7095,0.7095,0.7095,0.7095,0.7139,0.7228,0.8364,0.8842,0.8869,0.8734,0.8053,0.6873,0.4589,0.3555,0.3366,0.3361,0.327,0.3163,0.0,0.0,0.0,0.0,0.0,0.0,1.3679,1.5156,1.5491,1.3447,1.3195,1.2464,1.0515,1.0779,1.1432,1.2299,1.2376,1.3835,1.7289,1.7156,1.7313,1.8141,1.4867,1.2675,1.1951,1.1851,1.1861,1.1944,1.2024,1.2331,1.2839,1.265,1.275,1.308,1.308,1.3133,1.3213,1.3213,1.2799,1.2166,1.1851,1.2249,1.3124,0.0,0.0,0.0,0.0,0.0,0.0,0.0,0.0,0.0,0.0,0.0,0.0,0.0,0.0,0.0,0.0,0.0,0.0,0.0,0.0,0.0,0.0,0.0,0.0,0.0,0.0,0.0,0.0,0.0,0.0,0.0,0.0,0.2296,0.1793,0.3542,0.5012,0.538,0.6087,0.6502,0.6491,0.6669,0.6812,0.6895,0.8107,0.9199,0.9961,1.1101,1.2128,1.2989,1.2193,1.1623,1.1325,0.9726,0.8715,0.8408,0.7533,0.7095,0.7095,0.7095,0.7577,0.8364,0.7841,0.8032,0.8691,0.7871,0.7271,0.6758,0.6097,0.5346,0.461,0.4508,0.4386,0.4256,0.0,0.0,0.0,0.0,0.0,0.0,1.4254,1.6076,1.6419,1.3698,1.366,1.2891,1.0295,1.0711,1.1472,1.2158,1.3386,1.5147,1.7465,1.7796,1.7127,1.5381,1.3116,1.1616,1.1009,1.1256,1.1765,1.2522,1.2522,1.2739,1.3213,1.3153,1.322,1.336,1.3647,1.3694,1.3587,1.3707,1.3514,1.3073,1.2521,1.2492,1.2763,1.2804,1.37,1.4983,1.5331,1.5828,1.628,1.6023,0.0,0.0,0.0,0.0,0.0,0.0,0.0,0.0,0.0,0.0,0.0,0.0,0.0,0.0,0.0,0.0,0.0,0.0,0.0,0.0,0.0,0.0,0.0,0.0,0.3588,0.5208,0.6057,0.6187,0.6514,0.7484,0.7225,0.7017,0.7105,0.7248,0.7287,0.7287,0.8874,1.0089,1.067,1.2178,1.3379,1.4088,1.3421,1.2808,1.2285,1.0999,1.0096,0.9623,0.8882,0.8571,0.8571,0.8571,0.8969,0.9623,0.9396,0.9631,1.0121,0.8961,0.8377,0.0,0.0,0.0,0.0,0.0,0.5618,0.5545,0.0,0.0,0.0,0.0,0.0,0.0,1.4684,1.6462,1.6589,1.3451,1.3593,1.2677,0.9158,0.9907,1.0964,1.1679,1.423,1.6514,1.829,1.8544,1.6854,1.2865,1.2679,1.1814,0.9973,1.1311,1.2281,1.2837,1.2837,1.3012,1.3313,1.35,1.364,1.372,1.4246,1.4396,1.4202,1.4429,1.4153,1.3646,1.362,1.3067,1.2383,1.2973,1.3428,1.383,1.455,1.5199,1.5628,1.5312,0.0,0.0,0.0,0.0,0.0,0.0,0.0,0.0,0.0,0.0,0.0,0.0,0.0,0.0,0.0,0.0,0.0,0.0,0.0,0.0,0.0,0.0,0.0,0.0,0.6757,0.9025,1.1037,0.8969,0.7781,0.9205,0.847,0.7854,0.7872,0.8005,0.8041,0.8041,0.9935,1.1019,1.1038,0.0,0.0,0.0,0.0,1.3597,1.2498,1.237,1.1826,1.0862,1.0664,1.0636,1.0686,1.0661,1.0733,1.0906,1.1768,1.2223,1.2182,1.0942,1.0339,0.9998,0.7878,0.6903,0.6702,0.6719,0.6715,0.6681,0.0,0.0,0.0,0.0,0.0,0.0,1.6434,1.8054,1.7763,1.3768,1.3725,1.2552,0.8521,0.919,1.03,1.1314,1.3606,1.5812,1.7641,1.5696,1.3914,1.2685,1.1825,1.0976,1.0095,1.1732,1.279,1.312,1.312,1.3394,1.3915,1.3686,1.3853,1.4312,1.4469,1.4623,1.4827,1.4596,1.4322,1.3981,1.37,1.3067,1.2281,1.2235,1.2131,1.2051,1.1961,1.3222,1.4894,1.4667,1.5641,1.6835,1.6204,1.5059,0.0,0.0,0.0,0.0,0.0,0.0,0.0,0.0,0.0,0.0,0.0,0.0,0.0,0.0,0.0,0.0,0.0,0.0,0.0,0.5692,0.832,1.108,1.294,1.1687,1.0685,1.0995,1.0863,1.0731,1.0857,1.091,1.0886,1.0886,1.1937,1.2535,1.2413,1.3495,1.4088,1.4088,1.4088,1.3997,1.3737,1.2808,1.2347,1.2371,0.0,0.0,1.1318,1.1093,1.1497,1.2333,1.1629,1.169,1.2194,1.1032,0.997,0.8903,0.7465,0.6858,0.6715,0.6841,0.6807,0.6698,0.0,0.0,0.0,0.0,0.0,0.0,1.7037,1.8788,1.8933,1.5683,1.575,1.5131,1.2591,1.2866,1.3838,1.5316,1.6003,1.6741,1.7642,1.4987,1.2689,1.1132,1.1142,1.0957,1.0473,1.1983,1.2938,1.3213,1.3313,1.3654,1.4088,1.4082,1.4193,1.4492,1.483,1.4963,1.4995,1.4803,1.4576,1.4269,1.378,1.3247,1.2726,1.2462,1.1996,1.1479,1.1325,1.2078,1.3212,1.3344,1.4388,1.5573,1.5128,1.4998,1.4678,0.0,0.0,0.0,0.0,0.0,0.0,0.0,0.0,0.0,0.0,0.0,0.0,0.0,0.0,0.742,0.6597,0.0,0.8928,0.9545,1.1029,1.2732,1.4512,1.3985,1.3257,1.2657,1.2003,1.1579,1.1491,1.1541,1.1556,1.1398,1.2286,1.2767,1.2683,1.3581,1.4088,1.4088,1.4088,1.4088,1.4088,1.3512,1.3272,1.3453,1.2842,1.2647,1.2815,1.2815,1.3129,1.3611,1.2903,1.3008,1.3548,1.2187,1.0441,0.8649,0.8021,0.7384,0.6831,0.6937,0.6943,0.6909,0.0,0.0,0.0,0.0,0.0,0.0,0.0,1.9018,1.9556,1.7333,1.754,1.7504,1.6431,1.6447,1.7506,1.9807,1.817,1.7244,1.7778,1.457,1.1768,0.9808,1.0615,1.1086,1.1075,1.2069,1.2824,1.3293,1.3547,1.3854,1.4095,1.4382,1.4549,1.4629,1.5157,1.5297,1.513,1.5115,1.4877,1.4563,1.3986,1.3533,1.318,1.3097,1.2337,1.1416,1.1492,1.1597,1.1776,1.2323,1.321,1.4046,1.3714,1.4714,1.5547,1.3195,1.28,0.0,0.0,0.0,0.0,0.0,0.0,0.0,0.0,0.7988,0.9264,0.986,1.0654,1.1228,1.0992,1.13,1.2031,1.327,1.3604,1.4213,1.5617,1.5578,1.5048,1.4053,1.3047,1.2337,1.2102,1.2158,1.2112,1.1879,1.2556,1.2953,1.2953,1.388,1.4328,1.413,1.4292,1.4328,1.4088,1.4088,1.4115,1.4175,1.4349,1.4402,1.4349,1.4522,1.4636,1.4669,1.4322,1.4442,1.4785,1.336,1.1424,0.9363,0.9321,0.8607,0.7578,0.7479,0.7316,0.7122,0.0,0.0,0.0,0.0,0.0,0.0,0.0,0.0,1.8729,1.675,1.6912,1.6621,1.5097,1.54,1.7265,2.1132,1.6838,1.5039,1.7699,1.2739,0.9908,1.0441,1.0205,1.0727,1.21,1.1911,1.2401,1.3553,1.3895,1.4055,1.4095,1.4382,1.4663,1.4975,1.5251,1.5524,1.5712,1.5458,1.5177,1.4928,1.4556,1.3935,1.3252,1.3696,1.2839,1.1458,1.1798,1.1829,1.1819,1.2581,1.3405,1.4104,1.4055,1.4292,1.4488,1.3824,1.2613,1.142,1.1167,0.9978,0.8548,0.7542,0.821,0.9391,0.0,1.1198,1.2095,1.2636,1.3273,1.3396,1.2307,1.3448,1.434,1.3739,1.4703,1.5563,1.5771,1.5578,1.5251,1.4902,1.4911,1.4955,1.4923,1.4722,1.4579,1.4546,1.4368,1.4298,1.4298,1.5057,1.5095,1.4124,1.5019,1.5054,1.413,1.4088,1.4215,1.4469,1.4242,1.4529,1.5244,1.5062,1.5057,1.5271,1.4716,1.4509,1.4479,1.3761,1.2791,1.1709,1.1573,1.0903,0.9882,0.9031,0.8017,0.7268,0.0,0.0,0.0,0.0,0.0,0.0,0.0,0.0,0.0,1.8267,1.9013,1.9466,1.9089,2.0336,2.178,2.325,1.8508,1.6173,1.7905,1.2472,0.9604,1.0553,1.0153,1.0656,1.2248,1.1903,1.2323,1.36,1.3941,1.4088,1.4095,1.4563,1.4888,1.5028,1.5444,1.5718,1.5764,1.5518,1.5231,1.4955,1.4269,1.3858,1.3627,1.3259,1.259,1.1994,1.333,1.3682,0.0,1.3791,1.465,1.5393,1.4193,1.4461,1.5035,1.413,1.3477,1.2829,1.1856,1.0388,0.9115,0.8979,0.9436,1.0169,1.1113,1.206,1.2985,1.4015,1.4563,1.4756,1.4404,1.4969,1.5365,1.4961,1.5414,1.5784,1.5784,1.5925,1.5925,1.5835,1.5965,1.5689,1.4747,1.4522,1.4745,1.5362,1.4708,1.4554,1.517,1.5529,1.5496,1.5061,1.5639,1.6072,1.6381,1.589,1.6095,1.6871,1.6235,1.5928,1.5913,1.5926,1.6272,1.6929,1.7278,1.6683,1.5555,1.5476,1.4197,1.2199,1.1963,1.1236,1.0181,0.9247,0.8584,0.8101,0.0,0.0,0.0,0.0,0.0,0.0,0.0,0.0,0.0,0.0,1.9761,2.067,2.1663,2.315,2.4143,2.4256,2.0186,1.7599,1.7564,1.2903,1.0079,0.9947,0.9765,1.0399,1.1946,1.1713,1.2286,1.3726,1.3981,1.4088,1.4095,1.4603,1.4843,1.4914,1.5451,1.5712,1.5705,1.5571,1.5257,1.4821,1.4294,1.3919,1.3638,1.3053,1.2937,1.3258,1.4754,1.49,1.4508,1.5172,1.5975,1.6436,1.4729,1.4981,1.5696,1.4413,1.3785,1.3146,1.1414,1.0105,0.926,0.9513,1.0037,1.0735,1.1697,1.2729,1.3767,1.479,1.535,1.5716,1.58,1.5821,1.5848,1.593,1.5792,1.5738,1.5771,1.6087,1.6213,1.6161,1.6216,1.5803,1.4612,1.4709,1.5209,1.606,1.5428,1.5304,1.6108,1.6437,1.6517,1.6329,1.6719,1.7271,1.8012,1.7273,1.7394,1.8245,1.7553,1.7034,1.6699,1.7052,1.7648,1.8452,1.9095,1.8439,1.6881,1.6733,1.5333,1.3195,1.2714,1.2016,1.1158,1.0211,0.9586,0.9161,0.0,0.0,0.0,0.0,0.0,0.0,0.0,0.0,0.0,0.0,0.0,0.0,0.0,2.1052,2.19,2.3303,2.0966,1.8504,1.6297,1.3873,1.1233,0.8387,0.8746,0.971,1.1218,1.1218,1.2148,1.4075,1.4082,1.4088,1.4095,1.4396,1.4536,1.4563,1.515,1.5411,1.5431,1.5698,1.5317,1.4546,1.5049,1.4311,1.2981,1.348,1.4437,1.5512,1.5646,1.4722,1.3842,1.6433,1.7074,1.6646,1.588,1.5941,1.6035,1.475,1.2924,1.0981,0.9489,0.8895,0.8685,0.8588,0.9849,1.1433,1.2518,1.3897,1.4961,1.5001,1.5747,1.6257,1.595,1.5891,1.5994,1.6316,1.584,1.5504,1.5744,1.5859,1.583,1.5563,1.5591,1.5622,0.0,1.6185,1.6787,1.7228,1.722,1.722,1.7253,1.831,1.8605,1.7937,1.8559,1.8632,1.8004,1.7499,1.7286,1.7335,1.7302,1.7483,1.7786,1.8431,1.8983,1.9422,1.9198,1.8806,1.8245,1.6873,1.6037,1.5496,1.4433,1.4026,1.3857,1.2632,1.1319,1.0196,0.0,0.0,0.0,0.0,0.0,0.0,0.0,0.0,0.0,0.0,0.0,0.0,0.0,0.0,0.0,0.0,2.0492,1.8761,1.8563,1.4689,1.1728,1.0272,0.8797,0.8431,0.9316,0.9324,1.0244,1.2033,1.2439,1.2712,1.2913,1.3246,1.3454,1.3667,1.4062,1.4342,1.4536,1.4629,1.4763,1.4839,1.4219,1.4369,1.4959,1.5069,1.5591,1.6454,0.0,1.805,1.7472,1.8173,1.7865,1.6993,1.5814,1.5587,1.555,1.4516,1.2849,1.1102,1.0009,0.8991,0.8604,1.0237,1.1085,1.2041,1.4077,1.4922,1.5318,1.5427,1.5217,1.5036,1.5145,1.5343,1.5478,1.5416,1.5769,1.629,1.6965,1.7272,1.7496,1.7595,1.8113,0.0,0.0,0.0,0.0,1.7883,1.7288,1.7458,1.8772,1.9173,1.9434,1.9444,1.988,2.0404,2.0992,2.0023,1.996,2.0736,1.9725,1.9246,1.9268,1.9904,2.0657,2.1519,2.1692,2.0916,1.9553,1.9075,1.8029,1.6618,1.539,1.4909,1.4657,1.2736,1.2195,1.2295,0.0,0.0,0.0,0.0,0.0,0.0,0.0,0.0,0.0,0.0,0.0,0.0,0.0,0.0,0.0,0.0,0.0,1.9405,1.9044,1.6408,1.4068,1.2232,1.129,1.0832,1.0931,1.1468,1.2422,1.3758,1.3222,1.3058,1.3252,1.2593,1.2281,1.2315,1.2855,1.3108,1.3146,1.3484,1.4223,1.5198,1.4706,1.5493,1.6928,1.659,1.6853,0.0,1.8464,1.8745,1.871,1.8842,1.8216,1.7125,1.588,1.5312,1.5002,1.4204,1.2976,1.1737,1.1089,0.9783,0.9228,1.1792,1.2075,1.2442,1.4978,1.5526,1.5441,1.5168,1.4925,1.4684,1.4477,1.4752,1.4993,1.4896,1.5068,1.5735,1.7168,1.7552,1.7985,1.8842,1.9513,1.9805,0.0,0.0,0.0,1.8776,1.8536,1.8771,1.9882,2.009,2.0424,2.1015,2.1113,2.1551,2.251,2.1603,2.1306,2.1603,2.0594,2.0069,1.9994,2.0382,2.1211,2.2314,2.2691,2.2116,2.0787,2.0537,1.9534,1.7997,1.6749,1.5934,1.526,1.3817,1.3472,1.3531,0.0,0.0,0.0,0.0,0.0,0.0,0.0,0.0,0.0,0.0,0.0,0.0,0.0,0.0,0.0,0.0,0.0,0.0,1.7828,1.8683,1.7674,1.4082,1.5552,1.6103,1.5318,1.6808,1.789,1.8493,1.6091,1.4969,1.4994,1.27,1.1365,1.0954,1.1996,1.2172,1.1777,1.262,1.4038,1.5776,1.6468,1.7559,1.8672,1.7896,1.8121,1.8679,1.7164,1.6928,1.7455,1.847,1.8104,1.7032,1.6079,1.5196,1.4395,1.3887,1.3304,1.2752,1.2392,1.1128,1.0539,1.3067,1.2846,1.2662,1.5238,1.5687,1.5329,1.4266,1.4794,1.5113,1.4004,1.4187,1.4566,1.4807,1.401,1.4184,1.6586,1.6902,1.7549,1.9231,1.9806,2.0029,1.999,0.0,0.0,1.9951,0.0,2.1035,2.0693,2.1055,2.1629,2.2451,2.2139,2.2129,2.251,2.2119,2.1316,2.0042,2.0045,2.0021,2.0021,2.0039,2.0698,2.1851,2.2321,2.2295,2.1831,2.1196,2.0449,1.9575,1.8487,1.7143,1.5861,1.582,1.5137,1.4117,0.0,0.0,0.0,0.0,0.0,0.0,0.0,0.0,0.0,0.0,0.0,0.0,0.0,0.0,0.0,0.0,0.0,0.0,1.8677,1.7071,1.5586,1.4334,1.3501,1.293,1.2671,1.4023,1.5045,1.564,1.5236,1.5228,1.5594,1.5173,1.4981,1.5036,1.559,1.5919,1.606,1.6455,1.7349,1.8409,1.763,1.8154,1.9318,1.8127,1.8033,1.8379,1.7295,1.653,1.6214,1.7211,1.6857,1.587,1.5432,1.4982,1.4601,1.4417,1.3738,1.2945,1.2692,1.1987,1.1747,1.3446,1.364,1.3815,1.5359,1.507,1.451,1.4816,1.401,1.3358,1.3872,1.4328,1.4824,1.539,1.6222,1.7167,1.8137,1.9358,2.0079,1.9877,2.1004,2.1602,2.0917,2.1094,0.0,0.0,2.0801,2.0977,2.1564,2.1953,2.2139,2.2051,2.2549,2.2682,2.251,2.2402,2.1855,2.089,2.0631,2.0519,2.0528,2.0816,2.0973,2.1081,2.2385,2.2568,2.1894,2.1733,2.1288,2.065,1.9268,1.8518,1.806,1.7212,1.6731,1.6445,0.0,0.0,0.0,0.0,0.0,0.0,0.0,0.0,0.0,0.0,0.0,0.0,0.0,0.0,0.0,0.0,0.0,0.0,0.0,1.7177,1.5993,1.4963,1.4331,1.3779,1.3334,1.4586,1.5575,1.6278,1.5417,1.5229,1.5652,1.5012,1.4724,1.4739,1.57,1.6221,1.6355,1.6694,1.7674,0.0,0.0,1.8625,1.9809,1.8453,1.7792,1.746,1.6275,1.5266,1.469,1.6005,1.5818,1.5026,1.505,1.5062,1.5104,1.516,1.4803,1.4348,1.4307,1.314,1.2382,1.4268,1.398,1.374,1.5447,1.5428,1.507,1.5139,1.421,1.3576,1.4087,1.4507,1.4921,1.5332,1.6495,1.7715,1.8827,1.9937,2.0712,2.0838,2.1805,2.2178,2.1278,2.1631,2.1787,0.0,2.1289,2.1279,2.1582,2.2178,2.2402,2.2168,2.275,2.2984,2.275,2.274,2.2231,2.1236,2.1074,2.0878,2.0725,2.0941,2.1003,2.0974,0.0,2.249,2.1904,2.209,2.1904,2.1393,2.0377,1.9559,1.8917,1.827,1.7747,1.7302,0.0,0.0,0.0,0.0,0.0,0.0,0.0,0.0,0.0,0.0,0.0,0.0,0.0,0.0,0.0,0.0,0.0,0.0,0.0,0.0,1.6781,1.5377,1.5918,1.5978,1.5355,1.633,1.7295,1.8196,1.6088,1.5299,1.5737,1.4212,1.3368,1.3259,1.4765,1.5382,1.5333,1.5614,1.6821,1.8499,1.8095,1.8714,1.9712,0.0,1.7155,1.6143,1.4731,1.3785,1.3436,1.4976,1.5095,1.468,1.5244,1.5551,1.5725,1.5985,1.5979,1.5942,1.596,1.4103,1.2721,1.5003,1.4087,1.3252,1.5509,1.6114,1.6045,1.5427,1.5045,1.4809,1.4824,1.4987,1.5269,1.5605,1.6258,1.7318,1.906,1.9751,2.0507,2.1607,2.2201,2.2204,2.1512,2.168,2.1875,2.2041,2.1894,2.1631,2.121,2.2051,2.251,2.251,2.2769,2.2955,2.3013,2.3062,2.2532,2.137,2.1282,2.1013,2.0591,2.0591,2.0721,2.1028,2.2055,2.2246,2.1836,2.2256,2.2178,2.1758,2.1318,2.0334,1.9195,1.9195,1.859,1.7738,0.0,0.0,0.0,0.0,0.0,0.0,0.0,0.0,0.0,0.0,1.1251,1.2082,0.0,0.0,0.0,0.0,0.0,0.0,0.0,0.0,0.0,1.3756,1.3545,1.3909,1.4962,1.5077,1.5782,1.707,1.6286,1.635,1.7221,1.7084,1.7122,1.7296,1.793,1.8312,1.8485,1.8164,1.8268,1.8607,1.7876,1.7605,1.7493,1.5973,0.0,0.0,1.3692,1.3509,1.3878,1.4667,1.5178,1.5751,1.7259,1.7007,1.6274,1.6801,1.6292,1.5324,1.4512,1.3962,1.368,1.4124,1.39,1.4004,1.5613,1.5678,1.5595,1.6268,1.5907,1.577,1.6846,1.6732,1.7059,1.8829,1.8758,1.8781,1.9716,2.0814,2.1361,2.0958,2.1836,2.2588,2.274,2.1882,0.0,0.0,2.1902,2.1278,2.12,2.2051,2.251,2.251,2.2246,2.2266,2.2617,2.2925,2.2654,2.1797,2.1112,2.0564,2.0135,2.0135,1.9976,1.9843,2.17,0.0,2.1346,2.1816,2.1738,2.1259,2.0859,2.0557,2.0323,2.0323,2.0206,2.004,0.0,0.0,0.0,0.0,0.0,0.0,0.0,0.9256,0.929,0.9271,1.0334,1.1337,1.2029,1.2765,1.2983,0.0,0.0,0.0,0.0,0.0,0.0,1.0545,1.0516,1.0691,1.1038,1.1912,1.2836,1.3826,0.0,1.5278,1.6109,1.6772,1.7209,1.7486,1.7915,1.8344,1.8698,1.8336,1.8036,1.7749,1.7044,1.6321,1.5533,1.4425,0.0,0.0,1.3153,1.337,1.4015,1.5493,1.6307,1.6796,1.7456,1.7491,1.7302,1.7326,1.6938,1.612,1.4533,1.3633,1.304,1.2831,1.275,1.3114,1.4739,1.5571,1.6271,1.7242,1.6927,1.6788,1.7743,1.796,1.823,1.8947,1.9503,1.9939,2.0199,2.1072,2.1618,2.1348,2.2207,2.2701,2.251,2.2282,2.2253,2.2471,2.2282,2.199,2.1592,2.1748,2.1953,2.2178,2.1992,2.1982,2.2187,2.2383,2.2285,2.1894,2.1516,2.1194,2.1006,2.1222,2.0926,2.0433,2.1878,2.2021,2.121,2.1455,2.1385,2.1151,2.0781,2.0605,2.0605,2.0605,2.0605,2.0605,0.0,0.0,0.0,0.0,0.0,0.0,0.0,0.9545,0.9375,0.8788,0.9968,1.1088,1.1725,1.2434,1.2509,0.0,0.0,0.0,0.0,0.0,0.0,0.0,0.0,0.0,0.7807,0.0,0.0,1.1075,1.2585,0.0,0.0,0.0,0.0,0.0,1.6389,1.6712,1.6945,1.6765,1.6309,0.0,0.0,1.4644,0.0,0.0,0.0,0.0,0.0,1.3481,1.41,1.6096,1.7243,1.7774,1.7361,1.7778,1.8388,1.8129,1.7778,1.6926,1.4653,1.3193,1.2112,1.1469,1.1337,1.1885,1.3909,1.5499,1.6884,1.8028,1.8014,1.7951,1.8506,1.9046,1.928,1.8885,1.9838,2.06,2.0534,2.0952,2.1399,2.1712,2.2334,2.2535,2.2197,2.2457,0.0,2.2544,2.312,2.3026,2.1965,2.1377,2.1289,2.1738,2.1748,2.1787,2.1885,2.1885,2.1836,2.1748,2.1748,2.1689,2.1611,2.1943,2.1728,2.1093,2.1904,2.1797,2.1064,2.1151,2.1142,2.1055,2.0703,2.0605,2.0605,2.0605,2.0605,2.0605,0.0,0.0,0.0,0.0,0.0,0.0,0.0,0.9784,0.9944,0.9464,1.0542,1.1209,1.0873,1.1596,1.1334,0.0,0.0,0.0,0.0,0.0,0.0,0.0,0.0,0.0,0.0,0.0,0.0,1.1014,1.1774,0.0,0.0,0.0,0.0,0.0,0.0,1.3501,1.294,1.3047,0.0,0.0,0.0,0.0,0.0,0.0,0.0,0.0,0.0,1.4079,1.424,1.5292,1.6953,1.8485,1.792,1.8358,1.9213,1.9723,1.8607,1.6652,1.3924,1.2597,1.1628,1.0288,1.011,1.0996,1.3904,1.5347,1.6592,1.8439,1.9128,1.9501,1.9865,2.0177,2.0479,2.0783,2.0604,2.0472,2.0588,2.0642,2.0837,2.1222,2.1327,0.0,2.2877,2.1999,2.2247,2.4366,2.4703,2.3959,2.2009,2.1124,2.083,2.1239,2.1249,2.1484,2.1885,2.1885,2.1689,2.1249,2.1249,2.1084,2.0723,2.0762,2.0742,2.0693,2.1143,2.1074,0.0,2.1064,2.0996,2.0664,2.0615,2.0605,2.0605,2.0605,2.0605,2.0605,0.0,0.0,0.0,0.0,0.0,0.0,0.9868,0.9862,0.9886,0.9655,1.0625,1.1295,1.1193,1.2058,1.1774,0.9556,0.0,0.0,0.0,0.0,0.0,0.0,0.0,0.0,0.0,0.0,0.8356,0.931,1.0517,0.0,0.0,0.0,0.0,0.0,0.0,1.2208,1.1886,1.2304,0.0,0.0,0.0,0.0,0.0,0.0,0.0,0.0,0.0,0.0,1.3927,1.5512,1.6638,1.7585,1.8837,1.9262,1.9232,1.9073,1.8508,1.7319,1.4619,1.2999,1.1684,0.9948,1.0121,1.1195,1.3043,1.4712,1.6338,1.7964,1.8613,1.8823,1.8684,1.9597,2.0245,1.9835,1.9987,2.0045,1.9684,1.9495,1.9701,2.0481,2.074,2.161,0.0,0.0,2.3888,2.5163,2.5097,2.4481,2.3349,2.2097,2.1274,2.086,2.083,2.0918,2.1134,2.1134,2.1006,2.083,2.083,2.0732,2.0615,2.084,2.082,2.0625,2.1045,2.0977,0.0,2.0762,2.0723,2.0605,2.0605,2.0605,2.0605,2.0605,2.0605,2.0605,0.0,0.0,0.0,0.0,0.0,1.0836,0.9833,0.9785,0.9715,0.9259,1.0355,1.1149,1.104,1.2095,1.1992,0.9985,0.9219,0.0,0.0,0.0,0.0,0.0,0.0,0.0,0.0,0.0,0.7855,0.8202,0.9716,1.0911,0.0,0.0,1.2086,1.2282,0.0,0.0,0.0,0.0,0.0,0.0,0.0,0.0,0.0,0.0,0.0,0.0,0.0,0.0,0.0,0.0,0.0,1.7177,1.8705,1.9451,1.9668,1.9053,1.8595,1.7697,1.5165,1.3405,1.1738,0.9396,0.9895,1.1288,1.2284,1.4069,1.5964,1.7531,1.7925,1.7956,1.7859,1.9029,1.9821,1.9283,1.9951,2.0162,1.9098,1.9079,1.9373,1.9849,0.0,2.1322,0.0,2.4846,2.5713,2.6052,2.5977,2.5546,2.4739,2.356,2.2451,2.1489,2.1451,2.1451,2.1451,2.1451,2.1451,2.1451,2.1155,2.1001,2.1021,2.1007,2.0869,2.0625,2.1194,2.1115,0.0,2.0895,2.0857,2.0605,2.0605,2.0605,2.0605,2.0605,2.0605,2.0605,0.0,0.0,0.0,0.0,0.0,0.0,0.9184,0.9582,0.9591,0.8193,0.9695,1.0649,0.998,1.1229,1.1629,1.0407,0.9741,0.0,0.0,0.0,0.0,0.0,0.0,0.0,0.0,0.0,0.7532,0.8192,0.9681,1.0716,1.1328,1.1707,1.155,1.0904,0.0,0.0,0.0,0.0,0.0,0.0,0.0,0.0,0.0,0.0,0.0,0.0,0.0,0.0,0.0,0.0,0.0,0.0,0.0,1.8699,2.0799,2.0398,1.9147,1.7437,1.5284,1.3607,1.1694,0.8447,0.9238,1.1033,1.1916,1.3504,1.5355,1.7302,1.7341,1.7263,1.8055,1.8813,1.9442,1.9839,2.0951,2.107,1.9074,1.9837,2.0251,0.0,0.0,2.0782,2.2724,2.5551,2.7284,2.7272,2.7779,0.0,2.5887,2.5278,2.4528,2.3514,2.3478,2.3478,2.3478,2.3478,2.3478,2.3441,2.2478,2.1989,2.1952,2.1011,2.0605,2.0634,2.1603,2.1451,0.0,2.1593,2.1441,2.0605,2.0605,2.0605,2.0605,2.0605,2.0605,2.0605,0.0,0.0,0.0,0.0,0.0,0.0,0.0,0.9109,0.8941,0.859,0.9085,0.9715,1.0362,1.103,1.1451,1.1516,1.039,0.0,0.0,0.0,0.0,0.0,0.0,0.0,0.0,0.0,0.6897,0.7657,0.8344,0.9198,1.0137,1.0072,1.0262,1.0573,0.9536,0.8894,0.0,0.0,0.0,0.0,0.0,0.0,0.0,0.0,0.0,0.0,0.0,0.0,0.0,0.0,0.0,0.0,0.0,0.0,0.0,2.0018,1.9165,1.7767,1.6874,1.5482,1.3851,1.2084,1.2716,1.3852,1.3977,1.4674,1.5589,1.6661,1.6465,1.6128,1.6197,1.7377,1.8646,1.9557,2.0499,2.0488,1.8702,1.9531,0.0,2.0046,2.2688,2.4722,0.0,0.0,2.81,2.736,2.7452,2.7187,2.6332,2.6111,2.5252,2.3551,2.3514,2.3514,2.3514,2.3514,2.3514,2.3514,2.3184,2.3036,2.3036,2.2713,2.2601,2.2601,2.2888,2.285,2.2563,2.214,2.1811,2.1479,2.0857,2.0605,2.0605,2.0605,2.0605,2.0605,0.0,0.0,0.0,0.0,0.0,0.0,0.0,0.8853,0.8612,0.8441,0.8557,0.8962,0.9784,1.03,1.0766,1.1124,1.022,0.0,0.0,0.0,0.0,0.0,0.0,0.0,0.6672,0.637,0.6463,0.7021,0.7692,0.8472,0.9336,0.9403,0.9821,1.0491,0.9395,0.8901,0.0,0.0,0.0,0.0,0.0,0.0,1.0123,0.0,0.0,0.0,0.0,0.0,0.0,0.0,0.0,0.0,0.0,0.0,0.0,0.0,1.8697,1.7593,1.7622,1.6445,1.4964,1.3899,1.449,1.53,1.5247,1.5574,1.6069,1.6747,1.599,1.5099,1.4763,1.6219,1.7954,1.9372,2.0282,2.0264,1.8715,1.9927,0.0,2.133,0.0,0.0,0.0,2.7446,2.8021,2.7331,2.7281,2.7077,2.6524,2.6499,2.5943,2.466,2.4624,2.4624,2.4624,2.4624,2.4624,2.4624,2.4253,2.4072,2.4036,2.3661,2.3514,2.3514,2.3514,2.3294,0.0,2.2253,2.1773,2.1413,2.0828,2.0605,2.0605,2.0605,2.0605,2.0605,0.0,0.0,0.0,0.0,0.0,0.0,0.0,0.8838,0.8593,0.7972,0.8178,0.843,0.8515,0.9264,0.971,0.9604,0.0,0.0,0.0,0.0,0.0,0.0,0.0,0.0,0.576,0.5979,0.6187,0.6366,0.7544,0.8395,0.8944,0.9572,1.0178,1.0668,0.9883,0.9538,0.9537,0.9621,0.9569,0.9448,1.0059,1.0348,0.0,0.0,0.0,0.0,0.0,0.0,0.0,0.0,0.0,0.0,0.0,0.0,0.0,0.0,0.0,0.0,0.0,1.6703,1.5327,1.4275,1.4851,1.5704,1.5813,1.613,0.0,1.7306,1.5846,1.4272,1.3781,1.5381,1.7378,1.9294,2.0228,2.0292,1.9089,2.091,0.0,0.0,2.4065,0.0,2.5531,2.6637,2.7268,2.7266,2.7218,2.7014,2.6461,2.6436,2.6411,2.6386,2.6373,2.6411,2.6499,2.6449,2.6449,2.6499,2.551,2.5087,2.5075,2.4145,2.3697,0.0,2.3697,2.3172,2.2328,2.2178,2.1593,2.0789,2.0634,2.0605,2.0605,2.0605,2.0605,2.0605,0.0,0.0,0.0,0.0,0.0,0.0,0.0,0.0,0.0,0.0,0.849,0.8428,0.8706,0.9103,0.9369,0.0,0.0,0.0,0.0,0.0,0.0,0.0,0.0,0.0,0.5268,0.5232,0.5497,0.6102,0.6888,0.7921,0.9154,1.0113,1.0984,1.1721,1.1067,1.0421,0.9786,0.9513,0.9714,1.0297,1.1093,1.1423,0.0,0.0,0.0,0.0,1.3507,1.3964,0.0,0.0,0.0,0.0,0.0,0.0,0.0,0.0,1.7399,1.6777,1.7641,0.0,1.6848,1.5522,1.629,1.7158,0.0,1.5746,1.5559,1.6791,1.5753,1.4431,1.3753,1.5079,1.7012,1.9309,1.979,1.9897,1.9945,0.0,0.0,2.4111,2.5663,2.6341,2.5537,2.6582,2.714,2.6713,2.6688,2.6436,2.5824,2.5799,2.5611,2.5222,2.5209,2.5611,2.6487,2.6047,2.6047,2.6487,2.5797,2.5707,2.6129,2.5908,2.5791,2.5791,2.5791,2.5639,2.5311,2.377,2.2999,2.2675,2.1193,2.0605,2.0605,2.0605,2.0605,2.0605,0.0,0.0,0.0,0.0,0.0,0.0,0.0,0.0,0.0,0.0,0.0,0.0,0.0,0.0,0.0,0.0,0.0,0.0,0.0,0.0,0.0,0.0,0.0,0.4955,0.4783,0.459,0.4931,0.5807,0.6394,0.7358,0.8676,0.9651,1.0798,1.2041,1.1804,1.1295,1.0573,1.0447,1.0791,1.1461,1.1907,0.0,0.0,0.0,0.0,0.0,1.469,1.5027,0.0,1.5532,1.6024,1.6579,0.0,0.0,0.0,0.0,1.6546,1.5974,1.6489,1.6909,1.7098,1.6719,1.7148,1.7669,1.7645,1.7027,1.663,1.7262,1.6423,1.5495,1.5258,1.5906,1.6954,1.8455,1.9511,2.0517,0.0,0.0,2.3463,2.4803,2.5824,2.6278,0.0,2.6548,2.6813,2.6512,2.6499,2.6248,2.5624,2.5598,2.536,2.4813,2.4788,2.5109,2.5699,2.5398,2.5398,2.5711,2.5636,2.5762,2.6109,2.6373,2.6499,2.6452,2.6025,2.5804,2.5652,2.3624,2.2813,2.2664,2.1193,2.0605,2.0605,2.0605,2.0605,2.0605,0.0,0.0,0.0,0.0,0.0,0.0,0.0,0.0,0.0,0.0,0.0,0.0,0.0,0.0,0.0,0.0,0.0,0.0,0.0,0.0,0.0,0.0,0.4348,0.4113,0.4162,0.4012,0.4428,0.5428,0.5974,0.6875,0.8062,0.9028,1.0413,1.2118,1.225,1.2023,1.1566,1.1665,1.2039,1.2561,1.2669,0.0,0.0,0.0,0.0,0.0,0.0,0.0,0.0,1.6314,1.6349,1.6523,1.7258,0.0,0.0,0.0,0.0,0.0,1.5091,1.5763,1.662,1.7416,1.7367,1.7433,1.8535,1.8437,1.8085,1.7997,1.7202,1.6652,1.698,1.6892,1.695,1.7609,1.9588,0.0,2.3241,2.3142,2.3577,2.5331,2.5608,0.0,2.6497,2.6612,2.6654,2.6565,2.6553,2.6207,2.5385,2.5347,2.5109,2.455,2.4525,2.4525,2.4525,2.4625,2.4713,2.48,2.5272,2.5523,2.5611,2.6223,2.6449,2.6327,0.0,0.0,2.4956,2.3003,2.2215,2.2103,2.1049,2.0605,2.0605,2.0605,2.0605,2.0605,0.0,0.0,0.0,0.0,0.0,0.0,0.0,0.0,0.0,0.0,0.0,0.0,0.0,0.0,0.0,0.0,0.0,0.0,0.0,0.0,0.0,0.4874,0.4607,0.4076,0.3143,0.3478,0.3994,0.467,0.5603,0.6799,0.8286,0.96,1.1122,1.2675,1.2399,1.2286,1.2229,1.192,1.2193,1.2906,1.3743,0.0,0.0,0.0,0.0,0.0,0.0,0.0,0.0,1.5644,1.5449,1.5497,1.5528,0.0,0.0,0.0,0.0,0.0,1.5082,1.5426,1.5916,1.6549,1.6324,1.6297,1.7528,1.7284,1.6983,1.7682,1.705,1.6455,1.6769,1.6361,1.6574,1.839,2.0648,2.2615,0.0,0.0,2.5902,2.6057,0.0,2.6934,2.6703,2.7188,2.7341,2.6856,2.6849,2.6084,2.4324,2.4243,2.3979,2.3384,2.3358,2.3358,2.3358,2.3879,2.4356,2.4788,2.4863,2.5172,2.5611,2.6223,2.6223,2.5749,0.0,2.5971,2.54,2.3877,2.3257,2.3073,2.1308,2.0605,2.0605,2.0605,2.0605,2.0605,0.0,0.0,0.0,0.0,0.0,0.0,0.0,0.0,0.0,0.0,0.0,0.0,0.0,0.0,0.0,0.0,0.0,0.0,0.0,0.0,0.7055,0.5519,0.4869,0.403,0.2926,0.343,0.4098,0.4872,0.5552,0.6577,0.7916,0.9934,1.1275,1.2013,1.2512,1.2656,1.2513,1.2503,1.2981,1.3769,0.0,0.0,0.0,0.0,0.0,0.0,0.0,0.0,0.0,0.0,1.5583,1.5913,1.5379,0.0,0.0,0.0,0.0,0.0,1.4654,1.4779,1.5197,1.6232,1.6441,1.6419,1.6464,1.6822,1.7243,1.7612,1.7558,1.7373,1.7167,1.6556,1.6797,1.8966,0.0,2.2355,2.3496,2.4784,2.5627,0.0,0.0,2.6548,2.7168,2.718,2.7078,2.6924,2.6562,2.566,2.4073,2.4004,2.3728,2.312,2.3108,2.3108,2.3108,2.3371,2.3622,2.3885,2.4199,2.4506,2.4757,2.5322,2.5435,2.5197,0.0,2.5423,2.5045,2.3629,2.293,2.255,2.1154,2.0458,2.0244,2.0517,2.0605,2.0605,0.0,0.0,0.0,0.0,0.0,0.0,0.0,0.0,0.0,0.0,0.0,0.0,0.0,0.0,0.0,0.0,0.0,0.0,0.0,0.8767,0.7391,0.5808,0.4923,0.4039,0.3108,0.3609,0.426,0.5067,0.5657,0.664,0.8004,1.0257,1.1308,1.1372,1.2399,1.2722,1.2514,1.2922,1.3529,1.4288,0.0,0.0,0.0,0.0,0.0,0.0,0.0,0.0,0.0,0.0,0.0,0.0,0.0,0.0,0.0,1.4859,1.4764,1.4677,1.4398,1.4487,1.489,1.5887,1.6468,1.6664,1.6092,1.6869,1.7626,1.7427,1.7836,1.8074,1.758,1.7169,1.7456,1.9222,2.0815,2.2206,2.3224,2.4541,2.5441,2.5621,2.5659,2.6104,2.7209,2.6841,2.6525,2.6501,2.5902,2.4971,2.3658,2.3477,2.3263,2.292,2.2907,2.297,2.3108,2.3108,2.3108,2.3108,2.3715,2.4004,2.4017,2.4569,2.4713,2.4644,2.4895,2.4791,2.4378,2.3225,2.2453,2.1887,2.0848,2.011,1.9755,2.0362,2.044,2.0265,0.0,0.0,0.0,0.0,0.0,0.0,0.0,0.0,0.0,0.0,0.0,0.0,0.0,0.0,0.0,0.0,0.0,0.0,0.0,0.8945,0.7166,0.5074,0.4615,0.4159,0.3654,0.3927,0.426,0.464,0.58,0.7385,0.9388,1.0692,1.133,1.1427,1.194,1.2148,1.2174,1.2833,1.332,1.3771,1.5072,0.0,0.0,0.0,0.0,0.0,0.0,0.0,0.0,0.0,0.0,0.0,0.0,0.0,1.5252,1.5031,1.4935,1.4844,1.4707,1.5034,1.5362,1.5072,1.5647,1.645,1.7193,1.7532,1.7528,1.6897,1.7252,1.7684,1.7758,1.8244,1.8679,1.8913,2.1032,2.3001,2.4067,0.0,2.6936,2.6471,2.6408,2.6386,2.6232,2.618,2.5928,2.5359,2.4805,2.3903,2.2489,2.1945,2.1882,2.2347,2.2372,2.2594,2.3095,2.3108,2.3108,2.3108,2.3715,2.4004,2.4017,2.4569,2.4544,2.4117,2.5109,2.4727,2.3392,2.3016,2.2539,2.1853,2.0494,1.9601,1.9198,2.0226,1.9962,1.9189,0.0,0.0,0.0,0.0,0.0,0.0,0.0,0.0,0.0,0.0,0.0,0.0,0.0,0.0,0.0,0.0,0.0,0.0,0.0,0.9528,0.7775,0.6029,0.4879,0.3911,0.316,0.4059,0.473,0.5161,0.7031,0.8512,0.9579,1.0795,1.1399,1.148,1.2205,1.2918,1.3566,1.4192,1.4823,1.545,1.6135,1.6983,0.0,0.0,0.0,0.0,0.0,0.0,0.0,0.0,1.5335,1.5304,1.5329,1.5256,1.5149,1.498,1.4897,1.4816,1.4661,1.5218,1.5751,1.5526,1.6374,1.7107,1.6506,1.7226,1.786,1.7366,1.8503,1.9454,1.8999,1.9058,1.9224,1.9385,2.1819,2.3807,2.4189,2.5714,2.6759,2.6652,2.5922,2.5801,2.6708,2.5678,2.4892,2.4728,2.3811,2.2843,2.1864,2.1606,2.1581,2.1794,2.2133,2.241,2.2594,2.2932,2.3108,2.3108,2.3333,2.3434,2.3446,2.3647,2.3634,2.3446,2.386,2.3427,2.24,2.2002,2.1254,2.0275,1.973,1.9715,2.004,2.044,2.0323,1.9983,0.0,0.0,0.0,0.0,0.0,0.0,0.0,0.0,0.0,0.0,0.0,0.0,0.0,0.0,0.0,0.0,0.0,0.0,1.1907,1.0129,0.8374,0.6765,0.5378,0.425,0.3395,0.4574,0.5179,0.509,0.7533,0.9278,1.0325,1.1391,1.2071,1.2385,1.2957,1.3772,1.4747,1.5072,1.5653,1.6427,1.6907,1.7504,0.0,0.0,0.0,0.0,0.0,0.0,0.0,0.0,1.536,1.5304,1.5353,1.5268,1.5138,1.5004,1.4865,1.4757,1.4858,1.5315,1.5795,1.597,1.6749,1.7284,1.6669,1.7596,1.8487,1.8153,1.9332,2.029,1.991,1.9619,1.9566,0.0,2.2262,2.4014,2.3936,2.5237,2.6189,2.6214,2.5058,2.471,2.5887,2.4436,2.3425,2.3485,2.2569,2.1792,2.1285,2.1081,2.1041,2.1257,2.1594,2.1882,2.2046,2.2393,2.2669,2.2844,2.2844,2.2945,2.3108,2.3108,2.3108,2.3108,2.3296,2.2887,2.2044,2.1502,2.0387,1.9097,1.9245,1.953,1.9918,2.0246,2.0159,1.986,0.0,0.0,0.0,0.0,0.0,0.0,0.0,0.0,0.0,0.0,0.0,0.0,0.0,0.0,0.0,0.0,0.0,0.0,1.2248,1.0627,0.8873,0.6971,0.6068,0.5279,0.4607,0.5588,0.5485,0.4245,0.7043,0.9573,1.1825,1.2634,1.3439,1.4202,1.4133,1.4606,1.5401,1.513,1.5452,1.6209,1.7124,1.7696,1.7921,0.0,0.0,0.0,0.0,0.0,0.0,0.0,1.5354,1.5299,1.5292,1.5299,1.5275,1.5135,1.487,1.4738,1.5344,1.5377,1.5431,1.6298,1.6509,1.6843,1.8036,1.8864,1.9345,1.9171,1.9384,1.9737,2.0245,1.9927,1.9815,2.0411,2.22,2.3456,2.3333,2.4602,2.5452,2.5118,2.3893,2.3183,2.3379,2.2247,2.1481,2.1481,2.0993,2.0679,2.0679,2.0138,2.0062,2.0654,2.0679,2.0955,2.1509,2.1493,2.1757,2.2297,2.2297,2.2556,2.3095,2.3108,2.3108,2.3133,2.374,2.3408,2.2433,2.1715,2.0311,1.8682,1.9147,1.8928,1.8468,1.9516,1.925,1.8413,0.0,0.0,0.0,0.0,0.0,0.0,0.0,0.0,0.0,0.0,0.0,0.0,0.0,0.0,0.0,0.0,0.0,0.0,1.2123,1.0659,0.8862,0.6641,0.5713,0.4803,0.3839,0.5222,0.635,0.7149,0.8937,1.0487,1.1842,1.3059,1.3943,1.4501,1.5007,1.5833,1.6897,1.708,1.7506,1.7967,1.763,1.7904,1.831,0.0,0.0,0.0,0.0,0.0,0.0,0.0,0.0,0.0,1.5239,1.5152,1.5078,1.5037,1.5332,1.5669,1.5764,1.629,1.6801,1.6733,1.7588,1.8552,1.8797,1.8702,1.8986,2.049,2.0418,2.0412,2.1497,2.1266,0.0,2.1672,2.2927,2.3702,2.3219,2.3567,2.3852,2.3916,2.2773,2.2206,2.2774,2.1669,2.0943,2.0943,2.0037,1.951,1.951,1.9321,1.9309,1.951,2.0289,2.0779,2.093,2.132,2.1568,2.1732,2.1732,2.202,2.2543,2.2932,2.2895,2.2556,2.312,2.2874,2.2009,2.117,2.0676,2.0457,2.0597,2.0722,2.0806,2.0514,2.0189,1.9793,0.0,0.0,0.0,0.0,0.0,0.0,0.0,0.0,0.0,0.0,1.4795,1.4616,0.0,0.0,0.0,0.0,0.0,0.0,0.0,1.0858,0.9231,0.7206,0.6558,0.6019,0.5534,0.6443,0.7783,0.9507,1.0224,1.1311,1.2743,1.3916,1.4834,1.5522,1.5944,1.6842,1.8021,1.7936,1.8159,1.8547,1.7915,1.8012,1.834,0.0,0.0,0.0,0.0,0.0,0.0,0.0,0.0,0.0,1.5152,1.5091,1.5005,1.488,1.5331,1.5858,1.5804,1.6566,1.7337,1.7129,1.8191,1.9338,1.9482,1.9671,2.0219,2.1539,2.1091,2.0719,2.1518,2.1197,0.0,2.1581,2.2781,2.3389,2.2569,2.3044,2.3309,2.2814,2.1861,2.1328,2.1598,2.045,1.9711,1.9711,1.9083,1.8669,1.8669,1.8669,1.8669,1.8669,1.9346,1.9683,1.9582,2.0193,2.0592,2.0754,2.1044,2.1358,2.1681,2.2234,2.2297,2.202,2.2543,2.2444,2.1846,2.1333,2.106,2.0951,2.0951,2.1219,2.1552,2.1038,2.0842,2.0661,0.0,0.0,0.0,0.0,0.0,0.0,0.0,0.0,0.0,0.0,1.4183,1.4224,0.0,0.0,0.0,0.0,0.0,0.0,0.0,0.0,0.9802,0.8192,0.8032,0.8172,0.8591,0.8575,0.9429,1.1186,1.1035,1.2055,1.4168,1.4934,1.5845,1.6885,1.6864,1.7576,1.8717,1.8018,1.7968,1.8282,1.8027,1.8038,1.8083,1.6872,0.0,0.0,0.0,0.0,0.0,0.0,0.0,0.0,1.4989,1.5021,1.5031,1.4736,1.5057,1.5542,1.5615,1.6394,1.7233,1.7454,1.849,1.9585,2.0111,2.1375,2.2369,2.2268,2.1511,2.0879,2.0862,2.033,2.009,2.0693,2.1958,2.2531,2.1556,2.2848,2.3298,2.1732,2.1058,2.0516,1.9982,1.8872,1.8204,1.8204,1.8154,1.8129,1.8129,1.8129,1.8129,1.8129,1.8179,1.8104,1.7921,1.8647,1.9178,1.9557,2.0283,2.0616,2.0629,2.1245,2.1493,2.1518,2.2071,2.2172,2.1942,2.199,2.1553,2.0814,2.0814,2.1054,2.1372,2.1273,2.1273,2.1141,0.0,0.0,0.0,0.0,0.0,0.0,0.0,0.0,0.0,0.0,0.0,0.0,0.0,0.0,0.0,0.0,0.0,0.0,0.0,0.0,0.9768,0.7589,0.7667,0.8026,0.8591,0.8896,0.9723,1.1127,1.175,1.2914,1.4572,1.4962,1.572,1.6767,1.7182,1.7769,1.8494,1.8645,1.8601,1.8433,1.8166,1.7901,1.7575,1.6716,1.6026,0.0,0.0,0.0,0.0,0.0,0.0,0.0,1.4057,1.45,1.5007,1.4944,1.5336,1.5838,1.5908,1.6503,1.7187,1.744,1.8989,2.0617,2.1153,2.226,2.2908,2.2001,2.2013,2.2146,2.2047,2.1238,2.0746,2.1251,2.1282,2.1144,2.0905,2.1598,2.1525,1.9799,1.9949,1.9756,1.8727,1.8361,1.8204,1.8204,1.7802,1.7564,1.7564,1.7564,1.7564,1.7564,1.7978,1.8183,1.8139,1.8709,1.9046,1.9144,1.9708,1.9987,2.0024,2.1029,2.1493,2.1518,2.2071,2.2268,2.2246,2.268,2.272,2.2567,2.2567,2.2629,2.2604,2.1969,2.1749,2.1623,0.0,0.0,0.0,0.0,0.0,0.0,0.0,0.0,0.0,0.0,0.0,0.0,0.0,0.0,0.0,0.0,0.0,0.0,0.0,0.0,1.0085,0.8924,0.862,0.8782,0.9441,0.9366,0.9875,1.1046,1.16,1.2701,1.4281,1.4812,1.5613,1.6628,1.7297,1.7904,1.8399,1.8411,1.848,1.8503,1.7564,1.7372,1.7526,1.6477,1.5619,1.4846,1.3685,0.0,0.0,0.0,0.0,0.0,0.0,0.0,1.4487,1.4762,1.5642,1.6428,1.5944,1.6867,1.8108,1.8655,1.9773,2.0918,2.1513,2.2126,2.2506,2.2238,2.2147,2.2027,2.1697,2.0704,2.0007,2.0258,2.0067,1.9786,1.9547,2.0738,2.0788,1.8511,1.9311,1.9345,1.7566,1.74,1.74,1.74,1.7137,1.6974,1.6974,1.6974,1.6974,1.6974,1.725,1.7366,1.7299,1.7926,1.8187,1.8105,1.8722,1.9183,1.9459,2.03,2.0828,2.1157,2.1681,2.2071,2.2347,2.2882,2.3108,2.3108,2.3108,2.3108,2.3047,2.2628,2.2476,2.2353,0.0,0.0,0.0,0.0,0.0,0.0,0.0,0.0,0.0,0.0,0.0,0.0,0.0,0.0,0.0,0.0,0.0,0.0,0.0,0.0,0.0,1.044,0.9782,0.9686,1.0274,0.9708,0.9853,1.0802,1.1016,1.1978,1.3662,1.4442,1.533,1.6365,1.715,1.7776,1.8208,1.7842,1.8028,1.8426,1.6881,1.6751,1.738,1.6191,1.5358,1.4648,1.3296,1.2701,1.2413,1.1492,0.0,0.0,0.0,0.0,1.415,1.4648,1.574,1.665,1.5933,1.7228,1.8997,1.9908,2.0383,2.0787,2.1467,2.1664,2.1859,2.2418,2.2126,2.1611,2.1065,1.9976,1.9148,1.9012,1.8838,1.8594,1.8254,1.9966,2.0284,1.771,1.8808,1.8922,1.6717,1.65,1.65,1.65,1.65,1.65,1.65,1.65,1.65,1.65,1.65,1.6451,1.6335,1.7041,1.7324,1.7159,1.7868,1.8519,1.9146,1.951,2.0052,2.0752,2.1283,2.1896,2.2569,2.3089,2.3382,2.3501,2.3501,2.3501,2.3471,2.3365,2.3305,2.3185,0.0,0.0,0.0,0.0,0.0,0.0,0.0,0.0,0.0,0.0,1.4392,1.4598,0.0,0.0,0.0,0.0,0.0,0.0,1.1233,0.0,0.0,0.9899,0.9847,0.9832,0.9878,0.9508,0.953,0.9955,1.0222,1.125,1.3028,1.3667,1.4558,1.5653,1.6351,1.6979,1.7513,1.7346,1.7559,1.7913,1.6869,1.6404,1.6284,1.5985,1.5111,1.4014,1.3799,1.3138,1.2222,1.1452,1.2176,0.0,0.0,0.0,1.5038,1.5115,1.5167,1.5364,1.6091,1.7279,1.8559,1.9665,2.0105,2.0461,2.1178,2.1538,2.1724,2.1814,2.2215,2.2342,2.1707,2.0687,1.9738,1.9103,1.8208,1.7739,1.8141,1.8923,1.8933,1.7564,1.8079,1.7995,1.6636,1.65,1.65,1.65,1.65,1.65,1.65,1.65,1.65,1.65,1.65,1.6495,1.647,1.7092,1.739,1.7374,1.7919,1.8731,1.9685,1.9284,1.971,2.0829,2.1354,2.2299,2.3481,2.4014,2.4573,2.5091,2.5091,2.5091,2.5007,2.4366,2.4147,2.4031,0.0,0.0,0.0,0.0,0.0,0.0,0.0,0.0,0.0,0.0,0.0,1.4298,0.0,0.0,0.0,1.3867,1.3117,1.238,1.1629,1.0782,1.0597,1.1237,1.0856,1.0398,0.9863,0.9931,1.0068,1.025,1.0677,1.1721,1.3353,1.3551,1.4419,1.5855,1.642,1.686,1.7174,1.7021,1.7294,1.7692,1.6566,1.6137,1.6109,1.5675,1.4778,1.375,1.3851,1.3262,1.2351,1.204,1.2427,1.3079,1.3311,0.0,0.0,0.0,1.5578,1.6071,1.7075,1.7995,1.8836,1.964,1.9946,2.0156,2.0626,2.0834,2.0965,2.1124,2.138,2.1496,2.1186,2.0194,1.9214,1.8608,1.8099,1.7651,1.7301,1.8311,1.8545,1.7058,1.7739,1.7817,1.6615,1.65,1.65,1.65,1.65,1.65,1.65,1.65,1.65,1.65,1.65,1.65,1.65,1.6773,1.6898,1.6911,1.7476,1.8164,1.8928,1.9376,1.9805,2.0283,2.1211,2.1928,2.2585,2.3861,2.4557,2.4873,2.526,2.5398,2.537,2.5035,2.4652,2.4263,0.0,0.0,0.0,0.0,0.0,0.0,0.0,0.0,0.0,0.0,0.0,0.0,0.0,0.0,0.0,0.0,1.3205,1.252,1.1997,1.1613,1.1656,1.221,1.1503,1.071,0.9869,1.0234,1.0464,1.0571,1.137,1.2468,1.3868,1.4085,1.4853,1.6078,1.6423,1.6649,1.6779,1.6835,1.7211,1.7619,1.6205,1.5825,1.6054,1.5405,1.475,1.4172,1.4355,1.3965,1.3378,1.3206,1.3236,1.3425,1.4105,1.4379,0.0,0.0,0.0,1.6738,1.7623,1.8292,1.888,1.956,1.9628,1.9692,2.0225,2.0267,2.0268,0.0,2.0605,2.0568,2.0471,1.9727,1.8965,1.8408,1.8204,1.7767,1.6837,1.7815,1.8123,1.6667,1.7282,1.7501,1.6602,1.65,1.65,1.65,1.65,1.65,1.65,1.65,1.65,1.65,1.65,1.65,1.65,1.65,1.6575,1.6735,1.7166,1.7832,1.8684,1.9567,2.0096,2.0346,2.1407,2.2065,2.2469,2.3872,2.4638,2.5003,2.5523,2.5805,2.5946,2.5755,2.5315,2.4823,0.0,0.0,0.0,0.0,0.0,0.0,0.0,0.0,0.0,0.0,0.0,0.0,1.4886,1.484,1.4585,1.4039,1.3494,1.2852,1.2143,1.201,1.1896,1.1746,1.1148,0.0,0.9726,1.0034,1.0304,1.0501,1.2001,1.3264,1.4314,1.5496,1.6045,1.6001,1.5966,1.6009,1.6174,1.6747,1.735,1.773,1.5876,1.544,1.5857,1.523,1.5291,1.5699,1.5763,1.5813,1.5728,1.5168,1.4965,1.5016,1.5189,1.5278,1.5333,0.0,0.0,0.0,1.7095,1.7582,1.8205,1.9255,1.9041,1.8902,2.0202,2.0195,2.0004,2.027,2.0309,2.0204,1.981,1.9801,1.9627,1.8974,1.8438,1.7907,1.7353,1.7338,1.7165,1.6565,1.6568,1.6568,1.65,1.65,1.65,1.65,1.65,1.65,1.65,1.65,1.65,1.65,1.65,1.65,1.65,1.65,1.6798,1.7348,1.7312,1.8214,1.9903,1.9916,2.0524,2.1639,2.2342,2.3327,2.4446,2.4551,2.5333,2.6489,2.6519,2.6947,2.7408,2.6695,2.6431,2.6203,0.0,0.0,0.0,0.0,0.0,0.0,0.0,0.0,0.0,0.0,0.0,0.0,0.0,1.4742,1.4587,1.4223,1.3987,1.3913,1.4079,1.3331,1.2833,1.2668,1.1561,1.0622,0.9977,1.0887,1.1642,1.2231,1.3775,1.4975,1.5857,1.6346,1.6411,1.6085,1.6491,1.6613,1.6554,1.7306,1.7594,1.743,1.6498,1.6117,1.6051,1.5752,1.5563,1.5563,1.6139,1.6254,1.6104,1.592,1.5842,1.5817,1.5906,1.5699,1.5391,1.5409,1.5949,1.6667,1.7292,1.7838,1.8501,1.9666,1.9641,1.944,1.9898,2.0285,2.0312,1.9512,1.9857,2.0105,1.9502,1.9588,1.9593,1.8993,1.9024,1.8688,1.7463,1.7605,1.7483,1.6595,1.65,1.65,1.65,1.65,1.65,1.65,1.65,1.65,1.65,1.65,1.65,1.65,1.65,1.65,1.65,1.65,1.6782,1.7337,1.7314,1.8003,1.9314,1.9716,2.0323,2.1131,2.2221,2.2944,2.3449,2.4253,2.4889,2.5352,2.5794,2.6093,2.6338,2.6495,2.625,2.5778,0.0,0.0,0.0,0.0,0.0,0.0,0.0,0.0,0.0,1.6088,0.0,0.0,0.0,0.0,1.5403,1.4979,1.4925,1.5043,1.5321,1.4455,1.3867,1.3738,1.2361,1.1339,1.0823,1.1695,1.266,1.3643,1.489,1.5994,1.697,1.7042,1.6847,1.6502,1.7151,1.7196,1.6818,1.7628,1.7844,1.7557,1.6681,1.6582,1.6909,1.635,1.6369,1.6735,1.6968,1.712,1.7164,1.6897,1.673,1.6702,1.7051,1.6732,1.6208,1.6175,1.6555,1.7124,1.7835,1.8238,1.8679,1.973,1.9763,1.956,1.9739,2.0101,2.0162,1.932,1.9791,2.0145,1.9335,1.9592,1.9734,1.9244,1.946,1.9262,1.8007,1.7987,1.7767,1.6879,1.6616,1.65,1.65,1.65,1.65,1.65,1.65,0.0,1.65,1.65,1.65,1.65,1.65,1.65,1.65,1.65,1.668,1.7034,1.7415,1.8063,1.8997,1.9802,2.0474,2.1104,2.223,2.2692,2.2783,2.3844,2.4395,2.4649,2.5083,2.5397,2.5659,2.6093,2.5938,2.5477,0.0,0.0,0.0,0.0,0.0,0.0,0.0,0.0,1.7774,1.7881,0.0,0.0,0.0,0.0,0.0,1.6356,1.6348,1.617,1.5695,1.5281,1.4981,1.4831,1.3553,1.2664,1.2285,1.2452,1.3215,1.455,1.5219,1.6216,1.7535,1.7598,1.7502,1.728,1.7848,1.7682,1.6994,1.7647,1.8064,1.8143,1.6375,1.6785,1.8315,1.6934,1.7666,1.9262,1.8223,1.8433,1.9034,1.8079,1.7674,1.7701,1.8584,1.8358,1.7767,1.7702,1.7696,1.7859,0.0,0.0,0.0,1.9426,1.9305,1.9175,1.9758,0.0,1.952,1.9722,2.0157,2.0217,1.9341,1.977,2.0131,1.9752,1.9693,1.9512,1.8987,1.841,1.788,1.736,1.6803,1.6475,1.65,1.65,1.65,1.65,1.65,1.65,1.65,1.65,1.65,1.65,1.65,1.65,1.65,1.65,1.6522,1.6531,1.7585,1.843,1.912,2.0153,2.0975,2.1657,2.2336,2.2641,2.2725,2.3341,2.3977,2.4575,2.4575,2.4963,2.5555,2.557,2.5561,2.5447,0.0,0.0,0.0,0.0,0.0,1.7125,1.8494,1.8536,1.8311,0.0,0.0,0.0,1.819,1.8628,1.8797,1.8398,1.8173,1.7815,1.7302,1.6565,1.5959,1.5471,1.4351,1.3824,1.4003,1.3828,1.4454,1.5946,1.6281,1.7028,1.8156,1.8362,1.8402,1.8282,1.831,1.8251,1.814,1.8528,1.8454,1.8021,1.7429,1.7332,1.753,1.7123,1.6912,1.6847,1.7039,1.7768,1.8444,1.7313,1.7698,1.8568,1.7987,1.7619,1.7386,1.7461,1.7439,1.7593,1.8455,0.0,0.0,0.0,0.0,0.0,0.0,0.0,2.0192,1.8912,1.9626,2.0096,1.8787,1.8918,1.9233,1.9325,1.9537,1.9512,1.8987,1.8101,1.7468,1.7321,1.6478,1.6082,1.645,1.65,1.65,0.0,1.65,1.65,1.65,1.65,1.65,1.65,1.65,1.65,1.65,1.65,1.6701,1.7076,1.7394,1.7828,1.8394,1.8672,1.9128,1.9712,2.038,2.1176,2.2046,2.3163,2.3714,2.3879,2.3879,2.3999,2.4208,2.4694,2.4606,2.423,0.0,0.0,0.0,0.0,0.0,1.7904,1.8964,1.9056,1.9006,0.0,0.0,0.0,2.0089,2.0444,2.0443,1.9874,1.952,1.9022,1.8279,1.7577,1.7035,1.6664,1.5788,1.5435,1.5695,1.5244,1.5676,1.7091,1.7088,1.7639,1.8698,1.8773,1.878,1.8734,1.8616,1.8555,1.8581,1.8934,1.8931,1.8628,1.7683,1.7749,1.8313,1.7416,1.7131,1.7232,1.7443,1.807,1.8678,1.7779,1.8497,1.9642,1.889,1.8537,1.8422,1.8466,1.8248,1.8081,1.8615,1.877,1.892,1.9501,0.0,0.0,1.9385,1.9802,1.9989,0.0,1.935,1.9349,1.8597,1.8874,1.912,1.8827,1.918,1.9329,1.8884,1.8096,1.7464,1.7242,1.6466,1.6112,1.6459,1.65,1.65,1.65,1.65,1.65,1.65,1.65,1.65,1.65,1.65,1.65,1.65,1.65,1.6659,1.6972,1.7188,1.7463,1.7767,1.8007,1.8296,1.866,1.951,2.0458,2.1472,2.2702,2.3377,2.3573,2.3334,2.3377,2.3575,2.3441,2.3334,2.3292,0.0,0.0,1.7046,1.6936,1.8239,1.928,1.9183,1.9379,1.9767,0.0,2.0832,2.1463,2.2453,2.2446,2.1987,2.0989,2.0515,1.9868,1.8856,1.836,1.8089,1.812,1.7486,1.7182,1.7301,1.6632,1.686,1.8054,1.7763,1.8138,1.9153,1.8964,1.8877,1.886,1.8857,1.8753,1.8644,1.9012,1.9414,1.9605,1.7724,1.8124,1.9639,1.7783,1.7807,1.8774,1.8351,1.8625,1.9168,1.8873,1.9541,2.0452,2.035,2.0139,1.9921,1.9975,1.947,1.8935,1.9078,1.9251,1.9431,1.9595,1.9687,0.0,1.9682,1.9516,1.951,0.0,1.9257,1.8492,1.8665,1.927,1.9462,1.8493,1.8812,1.9036,1.8633,1.8139,1.7626,1.7135,1.6619,1.6361,1.6477,1.6548,1.6552,1.65,1.65,1.65,1.65,1.65,1.65,1.65,1.65,1.65,1.65,1.65,1.65,1.6522,1.6972,1.7209,1.7229,1.7706,1.7983,1.8156,1.9236,2.0081,2.0778,2.1999,2.2929,2.353,2.2957,2.3046,2.3341,2.2156,2.203,2.2413,0.0,1.698,1.7411,1.8705,1.9147,1.9507,2.0101,2.0307,2.0226,1.985,2.118,2.2716,2.4073,2.3794,2.3138,2.2302,2.1331,2.0375,1.9489,1.8989,1.8758,1.8794,1.8278,1.8175,1.8619,1.7804,1.7922,1.9029,1.8485,1.8662,1.9499,1.9404,1.9337,1.9276,1.9239,1.9234,1.9291,1.9115,1.9471,2.0137,1.9562,1.8891,1.8243,1.8137,1.7422,1.6448,1.6363,1.7035,1.8089,1.897,1.9147,1.9113,0.0,0.0,0.0,1.9682,1.9469,1.9113,1.9715,2.0227,2.0459,0.0,0.0,0.0,1.9785,2.0263,2.0644,0.0,1.9378,1.9255,1.8721,1.9097,1.9434,1.927,1.9129,1.876,1.7992,1.7531,1.7176,1.6954,1.6566,1.6319,1.6335,1.6824,1.6951,1.6543,1.65,1.65,1.65,1.65,1.65,1.65,1.65,1.65,1.65,1.65,1.65,1.65,1.6616,1.6659,1.6659,1.6752,1.7057,1.7529,1.8229,1.8878,1.953,2.0698,2.213,2.353,2.2957,2.2762,2.2785,2.1993,2.1486,2.122,1.677,1.7056,1.7625,1.9135,1.9711,2.006,2.0405,2.0612,2.0796,2.0879,2.2477,2.3889,2.4711,2.4181,2.3459,2.272,2.1733,2.0774,1.9903,1.9593,1.9431,1.9399,1.9114,1.9098,1.9383,1.876,1.8808,1.9549,1.9154,1.921,1.9707,1.9663,1.9601,1.9541,1.9513,1.9525,1.9572,1.984,2.0207,2.0487,1.9252,1.8464,1.7982,1.7336,1.656,1.5888,1.6518,1.7561,1.8732,1.9359,1.9609,0.0,1.9943,1.9446,1.8976,0.0,1.9338,1.8714,0.0,0.0,0.0,2.023,0.0,0.0,0.0,2.1136,2.1031,2.0096,2.0101,2.011,1.9478,1.9606,1.9791,1.9744,1.9584,1.9211,1.8511,1.77,1.7002,1.6498,1.642,1.6487,1.6677,1.6988,1.7116,1.6904,1.6659,1.65,1.65,1.65,1.65,1.65,1.65,1.65,1.65,1.65,1.65,1.65,1.65,1.65,1.65,1.65,1.6659,1.6918,1.7548,1.8154,1.8779,1.9888,2.1095,2.2253,2.2214,2.2398,2.2581,2.1605,2.1245,2.1202,1.6698,1.7271,1.8054,1.9571,2.0277,2.0639,2.0656,2.0771,2.1174,2.2049,2.3442,2.4465,2.4794,2.3929,2.3209,2.2882,2.1778,2.0885,2.0361,2.0146,1.9986,1.9887,1.9803,1.9799,1.9843,1.9511,1.9508,1.9852,1.9687,1.9687,1.986,1.9871,1.9839,1.9774,1.9807,1.9849,1.995,2.062,2.0808,2.046,1.837,1.807,1.8683,1.7038,1.632,1.6323,1.7191,1.8371,1.9528,1.9734,2.0174,2.0631,2.057,1.9909,0.0,0.0,0.0,0.0,0.0,0.0,0.0,0.0,0.0,2.1126,0.0,0.0,0.0,2.0817,2.0816,0.0,0.0,0.0,0.0,0.0,0.0,0.0,0.0,1.8239,0.0,1.6709,1.6636,1.686,1.7374,1.7496,1.7511,1.747,1.7096,1.6816,1.6659,1.6552,1.65,1.65,1.65,1.65,1.65,1.65,1.65,1.65,1.65,1.65,1.65,1.65,1.6552,1.6684,1.7191,1.772,1.8336,1.9316,2.0182,2.0942,2.1492,2.2017,2.2386,2.1339,2.1269,2.1544,1.8347,1.8661,1.9238,2.1396,2.1176,2.0894,2.1537,2.1118,2.1042,2.1906,2.2646,2.3481,2.4443,2.3036,2.2394,2.3323,2.1311,2.0321,2.1105,2.0498,2.0114,2.0158,2.0093,2.0026,1.9976,1.9861,1.9898,2.0064,1.9974,1.9984,2.0069,2.0137,2.0124,2.0064,2.0182,2.0522,2.1015,2.0934,2.0426,1.9544,1.8198,1.8965,2.0697,1.9138,1.8173,1.7588,1.7012,1.7684,1.8964,0.0,2.0115,2.024,0.0,2.0326,1.9236,2.033,0.0,0.0,0.0,0.0,0.0,0.0,2.1302,0.0,0.0,0.0,2.1569,2.0989,0.0,0.0,0.0,0.0,0.0,0.0,0.0,0.0,1.887,1.8886,1.8954,1.8843,1.788,1.7578,1.852,1.8874,1.8765,1.8054,1.8172,1.7946,1.7256,1.6752,1.65,1.65,1.65,1.65,1.65,1.65,1.65,1.65,1.65,1.65,1.65,1.65,1.6752,1.7227,1.7333,1.7661,1.8164,1.8769,1.9761,2.0942,2.1492,2.1736,2.1799,2.1657,2.1639,2.1615,1.8116,1.8217,1.8913,2.1638,2.1389,2.1046,2.1693,2.1677,2.1879,2.2705,2.3441,2.4278,2.526,2.4209,2.3644,2.4199,2.2489,2.1352,0.0,2.0619,2.0448,2.093,2.0472,2.041,2.0794,2.0214,1.9997,2.0212,2.0072,2.006,2.0218,2.0219,2.051,2.0993,2.0317,2.0317,2.0848,2.0833,2.0677,2.0359,1.9578,2.004,0.0,1.7838,1.7151,1.7793,1.7849,1.8461,1.9351,0.0,2.0233,0.0,0.0,0.0,0.0,2.0984,0.0,0.0,0.0,0.0,0.0,0.0,0.0,0.0,2.1225,0.0,2.1901,0.0,0.0,0.0,0.0,0.0,0.0,0.0,2.0654,0.0,0.0,0.0,1.8681,0.0,0.0,0.0,1.8795,1.8852,1.8579,1.7802,1.804,1.7774,1.6777,1.6574,1.65,1.65,1.65,1.65,1.65,1.65,1.65,1.65,1.65,1.65,1.65,1.65,1.6616,1.685,1.72,1.7445,1.77,1.8562,1.9225,1.9859,2.1187,2.1701,2.1703,2.1708,2.1472,2.1088,1.8109,1.8125,1.8822,2.1439,2.1186,2.0841,2.1475,2.2115,2.2734,2.3307,2.3975,2.4784,2.5801,2.5003,2.4551,2.4992,2.3601,2.238,0.0,2.1178,2.1021,2.1162,2.0839,2.0803,2.1097,2.0392,2.0131,2.0324,2.0189,2.0199,2.033,2.0283,2.0614,2.1267,2.0832,2.0646,2.0639,2.0759,2.0767,2.0608,1.9991,1.9878,1.9793,1.7019,1.6635,1.7644,1.8421,1.9033,1.9545,1.9975,2.0427,0.0,2.0318,2.0218,2.0371,0.0,0.0,0.0,2.1838,0.0,0.0,0.0,0.0,0.0,0.0,0.0,0.0,0.0,0.0,0.0,0.0,0.0,2.166,2.1214,0.0,2.0468,0.0,1.9317,0.0,0.0,0.0,0.0,0.0,1.9091,1.8984,1.8249,1.8339,1.8004,1.7039,1.6821,1.6659,1.65,1.65,1.65,1.65,1.65,1.65,1.65,1.65,1.65,1.65,1.6659,1.6795,1.6951,1.7353,1.7686,1.802,1.8849,1.9363,1.9812,2.1382,2.1967,2.1969,2.1969,2.1582,2.0979,1.8999,1.9098,1.9524,2.1056,2.0553,2.0172,2.0919,2.2353,2.3342,2.3313,2.3667,2.4382,2.5578,2.4584,2.43,2.5477,2.4153,2.2967,2.2221,0.0,2.1949,2.0412,0.0,2.1172,2.0352,2.0363,2.0396,2.0407,2.0456,2.0448,2.0393,2.0383,2.0347,2.0316,2.2035,2.2021,2.07,2.084,2.0382,1.9454,1.8475,1.7735,1.7301,0.0,1.7759,1.7274,1.8326,0.0,0.0,2.0649,2.0663,0.0,0.0,0.0,0.0,0.0,0.0,0.0,0.0,0.0,0.0,2.2186,0.0,0.0,0.0,0.0,2.197,0.0,0.0,0.0,0.0,2.1948,2.1674,2.0437,2.0431,0.0,0.0,0.0,0.0,0.0,0.0,0.0,0.0,2.0157,2.0717,1.9993,1.9683,1.9306,1.8763,1.7793,1.7034,1.6522,1.65,1.65,1.65,1.65,1.65,1.65,1.65,1.65,1.6522,1.7034,1.7565,1.8046,1.8066,1.865,1.9644,1.9812,2.0552,2.1675,2.2403,2.2664,2.2672,2.2672,2.2239,2.1673,1.8457,1.9284,2.0303,2.1217,2.0627,2.043,2.1618,2.2712,2.3945,2.5485,2.5792,2.6458,2.7927,2.7661,2.7319,0.0,0.0,2.5367,2.4002,2.3777,0.0,0.0,0.0,2.158,0.0,2.0792,2.0504,2.0464,2.0492,2.0478,2.0404,2.0398,2.0632,2.1086,2.1518,2.1094,2.0071,2.0599,2.0336,1.9536,0.0,1.9037,1.91,0.0,1.7634,1.7746,1.8542,1.8869,0.0,1.9497,2.008,2.0551,2.0382,2.0434,2.0624,2.0855,2.0868,0.0,0.0,0.0,2.0762,2.1381,0.0,0.0,0.0,0.0,0.0,0.0,0.0,0.0,0.0,2.1632,2.1375,2.0191,2.0228,1.9979,0.0,0.0,0.0,0.0,0.0,0.0,0.0,0.0,0.0,1.9171,1.9381,1.9131,1.8195,1.7622,1.7055,1.6522,1.65,1.65,1.65,1.6858,1.7034,1.7034,1.7394,1.7565,1.7565,1.7747,1.7927,1.8125,1.8477,1.8836,1.9203,1.9586,2.0272,2.1111,2.1769,2.2045,2.2074,2.255,2.2021,2.1088,1.9023,1.9776,2.062,2.0988,2.0986,2.1361,2.2519,2.36,0.0,0.0,2.6897,0.0,2.9163,0.0,2.865,0.0,2.7669,2.6667,2.5019,2.4731,0.0,2.302,2.2482,2.2076,0.0,0.0,0.0,2.0544,2.0507,2.0482,2.0477,2.0443,2.0694,2.1168,2.143,2.0947,1.9911,2.0599,2.0428,1.9688,0.0,1.9571,0.0,0.0,1.8281,1.8874,0.0,1.9062,1.893,1.9132,1.9757,2.0381,1.9861,2.0043,2.0472,2.0627,2.0645,2.0727,2.1162,2.0885,0.0,2.1208,2.1115,0.0,2.1298,0.0,2.143,0.0,0.0,0.0,0.0,2.1161,2.0891,2.0105,1.9974,1.9629,0.0,1.9366,0.0,0.0,0.0,0.0,0.0,0.0,0.0,1.978,1.9635,1.9186,1.842,1.8028,1.7429,1.6543,1.6701,1.6774,1.6774,1.7333,1.7585,1.7585,1.7927,1.8106,1.8125,1.8302,1.838,1.8419,1.8949,1.9188,1.9221,1.9801,2.0318,2.0778,2.1695,2.2052,2.2119,2.2531,2.2175,2.1489,2.0659,2.064,2.0628,2.0647,2.1743,2.2871,0.0,0.0,2.624,0.0,2.7056,2.762,2.9258,2.8762,2.8344,2.8442,2.7904,2.6912,2.533,2.5369,0.0,0.0,2.2996,2.2591,2.1724,0.0,0.0,0.0,2.0545,2.0546,2.0604,2.0524,2.0492,2.0552,2.1806,2.1543,2.0209,2.0788,2.0611,1.9846,1.92,1.9288,1.9746,1.9165,1.9611,2.0503,1.9882,1.9332,1.8987,1.9479,1.969,1.9708,1.9708,1.9256,1.8867,1.9513,1.9241,1.9049,2.0463,2.0843,2.0978,2.1592,2.1836,0.0,0.0,0.0,2.1605,0.0,0.0,0.0,0.0,0.0,2.0295,2.0153,1.9739,1.923,1.8663,1.9056,1.9389,0.0,0.0,0.0,0.0,1.99,2.0142,2.1627,2.0416,1.9568,1.9451,1.8998,1.8074,1.6595,1.7034,1.7312,1.7312,1.7867,1.8145,1.8145,1.8185,1.8185,1.8204,1.8708,1.8949,1.8968,1.9479,1.9708,1.9753,2.0423,2.0718,2.0868,2.2194,2.2718,2.2745,2.2716,2.2717,2.274,2.149,2.1958,2.2726,2.3912,2.4325,2.4558,0.0,0.0,0.0,0.0,2.8629,2.8913,2.9892,2.9993,2.9749,2.9193,2.8739,0.0,0.0,0.0,0.0,2.3867,2.3278,2.2594,2.1728,2.0927,2.0547,2.0602,2.0581,2.0584,2.0605,2.0586,2.0543,2.0528,2.1317,2.1007,1.9969,2.1008,2.0971,2.0165,1.9677,2.0292,2.1334,0.0,2.0422,2.147,1.9732,1.9024,1.893,1.9062,1.9369,1.9708,1.9708,1.9588,1.9483,1.9648,1.9588,1.9528,1.9924,2.0014,2.0145,2.0706,2.1019,2.1129,0.0,0.0,0.0,0.0,0.0,0.0,0.0,0.0,2.0883,2.0583,2.0195,1.9855,1.9651,0.0,0.0,1.9479,0.0,0.0,0.0,1.9803,2.0113,2.0847,2.0272,1.9925,1.9996,0.0,1.7758,1.7113,1.7229,1.7312,1.7312,1.8243,1.8688,1.8688,1.9114,1.9281,1.9281,1.9424,1.9479,1.9497,1.9639,1.9708,1.9753,2.0423,2.0991,2.153,2.2373,2.2972,2.3306,2.2876,2.2987,2.3312,2.2274,2.3209,2.4295,2.5232,0.0,0.0,2.6173,2.7063,0.0,2.9259,2.9295,0.0,3.0412,3.0321,2.9908,2.9191,2.8698,0.0,2.7211,0.0,0.0,2.4713,2.3908,2.3096,2.2243,2.1471,0.0,2.0566,0.0,2.0602,2.0605,2.0603,2.0566,2.0527,2.1121,2.1144,2.077,2.15,2.1611,2.121,2.054,2.081,0.0,2.0393,2.065,2.1432,2.0029,1.9413,1.9244,1.9244,1.9442,1.9708,1.9708,1.9708,1.9708,1.9708,1.9708,1.9708,1.9708,1.9708,1.9779,2.0061,2.0258,2.0404,2.0499,2.0719,2.0822,0.0,2.0602,2.0856,0.0,0.0,0.0,2.0084,1.9876,1.9783,0.0,0.0,0.0,0.0,2.0198,0.0,1.9395,1.9823,2.0354,2.083,2.0454,2.0088,0.0,0.0,1.8218,1.7589,1.8425,1.8583,1.8007,1.9401,1.9834,1.9244,1.9566,1.9708,1.9708,1.9989,2.0139,2.0154,2.0456,2.0576,2.0587,2.0976,2.1365,2.1754,2.2448,2.3077,2.3551,2.3209,2.3312,2.3551,2.3508,2.4664,0.0,0.0,0.0,0.0,0.0,2.8339,0.0,2.9373,0.0,2.9747,3.0641,3.013,2.9483,2.8848,0.0,2.7556,2.6736,2.5827,2.5337,2.5385,2.4563,2.3774,2.3069,2.2211,2.1457,0.0,2.0664,2.0642,2.0761,2.0658,2.0565,2.054,2.1044,2.147,2.1834,2.2159,2.2333,2.2294,2.136,2.0991,2.0975,2.055,2.0633,2.0943,2.0533,2.0158,1.9871,1.9871,1.9871,1.9871,1.9871,1.9871,1.9871,1.98,1.9782,1.9764,1.9711,1.9708,1.9708,1.9708,1.9708,1.9857,2.0512,2.088,2.1106,2.1233,2.148,2.1678,0.0,0.0,0.0,1.9394,1.9459,0.0,0.0,0.0,0.0,0.0,0.0,0.0,0.0,1.9875,2.0587,2.0983,2.0631,2.0093,0.0,0.0,1.8933,1.815,1.9764,2.0162,1.9171,2.0685,2.0996,2.0097,1.9899,1.9887,1.9992,2.0572,2.0823,2.0853,2.1455,2.1695,2.171,2.1784,2.1874,2.2009,2.2598,2.3152,2.3595,2.3595,2.3595,2.3595,2.6646,2.7178,0.0,0.0,0.0,2.8886,2.9391,2.9369,2.9364,2.9615,2.9494,2.9531,2.9868,2.994,2.9646,2.8862,2.8241,0.0,0.0,0.0,0.0,2.5327,2.4532,2.4036,2.3897,2.2419,2.1939,0.0,0.0,2.0915,2.166,2.0935,2.0585,2.0584,2.0582,2.0851,2.1416,2.2767,0.0,2.1716,2.1198,2.0991,2.0991,2.091,2.0926,2.0991,2.091,2.0829,2.0764,2.0764,2.0764,2.0764,2.0764,2.0764,2.0698,2.0313,2.0177,2.0124,1.98,1.9708,1.9708,1.9708,1.9708,1.9812,2.026,2.0414,2.0569,2.0971,2.1086,2.1183,2.134,0.0,0.0,0.0,0.0,0.0,0.0,0.0,0.0,0.0,0.0,2.0487,0.0,0.0,1.9954,2.0043,1.9875,1.9998,0.0,0.0,1.8905,0.0,1.9268,1.9666,0.0,0.0,2.0771,2.2164,2.1051,2.0812,2.135,2.147,2.1515,2.153,2.165,2.1695,2.1739,2.2298,2.2823,2.3281,2.3385,2.3505,2.3595,2.3595,2.3595,2.3595,2.751,0.0,0.0,0.0,0.0,0.0,0.0,2.9561,2.9504,2.9826,2.9773,2.962,2.941,2.9389,2.8916,2.7764,2.7385,2.6851,2.5981,2.5538,2.5308,2.5308,2.4928,2.4532,2.4102,2.3306,2.2937,2.2999,0.0,2.1832,2.1894,2.1438,2.0992,2.0623,2.1194,2.1991,2.2939,0.0,0.0,2.3126,2.2234,2.1869,2.1826,2.1459,2.1461,2.163,2.14,2.1461,2.16,2.115,2.0991,2.0991,2.0991,2.0991,2.091,2.0449,2.0297,2.0212,1.9818,1.9856,2.0017,2.0017,2.0191,2.043,2.0632,2.083,2.1039,2.126,2.1492,2.166,2.163,2.1432,0.0,0.0,0.0,0.0,0.0,0.0,2.0968,0.0,0.0,0.0,0.0,0.0,0.0,0.0,0.0,2.0018,2.07,0.0,1.9267,0.0,0.0,0.0,2.0274,0.0,2.14,2.1665,2.1365,2.1395,2.171,2.2074,2.2224,2.2239,2.2547,2.2682,2.2712,2.3026,2.3325,2.3595,2.3595,2.3595,2.3595,2.3595,2.3595,2.3595,2.8221,2.8818,0.0,0.0,2.9755,3.0076,3.017,3.0076,3.0002,3.0,3.0011,2.9777,2.9165,2.8957,2.8249,2.6726,2.6601,2.6231,2.5365,2.5308,2.5308,2.5308,2.5308,2.5014,2.4396,2.4196,2.3912,0.0,0.0,0.0,2.2147,2.1921,2.1479,2.089,2.2134,0.0,0.0,0.0,2.4143,2.4278,2.3142,2.2708,2.263,2.1994,2.1988,2.2237,2.1884,2.2013,2.2287,2.1595,2.1321,2.1276,2.1276,2.1276,2.1166,2.0699,2.0516,2.0382,2.0052,2.0124,2.0331,2.0433,2.0731,2.1007,2.1102,2.1368,2.1643,2.1735,2.2032,2.2209,2.1868,2.1615,0.0,0.0,0.0,0.0,0.0,0.0,0.0,0.0,0.0,0.0,2.0798,0.0,0.0,0.0,0.0,2.0057,2.0619,2.0031,1.9948,0.0,0.0,2.1117,2.0531,0.0,2.2024,2.1525,2.1784,2.1979,2.2113,2.2658,2.2972,2.3116,2.3445,2.3595,2.3595,2.3595,2.3684,2.3819,2.3819,2.3909,2.4029,2.4029,2.4029,2.4029,0.0,0.0,0.0,0.0,0.0,3.1581,3.1752,3.1882,3.1466,3.016,2.9999,2.9772,2.9162,2.9071,2.8398,2.6731,2.6601,2.6231,2.5365,2.5308,2.5308,2.5308,2.5308,2.5287,2.5278,2.4503,2.4515,0.0,0.0,2.3005,0.0,2.224,2.1797,2.1669,0.0,0.0,0.0,2.4456,2.4346,2.3295,2.2865,2.2708,2.2673,2.2357,2.2268,2.2296,2.2237,2.2422,2.2643,2.2561,2.2375,2.218,2.218,2.218,2.2092,2.1628,2.1228,2.0926,2.0878,2.0599,2.0399,2.0829,2.0959,2.1103,2.146,2.1567,2.1718,2.2152,2.2268,2.2135,2.1627,2.1567,2.1291,0.0,0.0,0.0,0.0,0.0,2.1288,2.2102,0.0,0.0,2.2315,2.1771,0.0,0.0,2.0275,2.0086,2.0738,2.0712,2.1009,2.1791,2.0852,2.1272,2.3206,2.168,2.2004,2.4231,2.3116,2.2897,2.3415,2.349,2.3849,2.4395,2.3849,2.3595,2.3595,2.3595,2.3969,2.4515,2.4515,2.4874,2.542,2.542,2.542,2.542,0.0,0.0,0.0,0.0,0.0,0.0,0.0,3.0894,3.0528,3.0053,3.0602,3.0529,2.9236,2.8665,2.789,2.6697,2.6115,2.5673,2.5327,2.5308,2.5322,2.5363,2.5359,2.5391,2.5468,2.5127,2.516,0.0,0.0,0.0,0.0,0.0,0.0,0.0,0.0,2.3765,2.3923,2.4367,2.4261,2.3774,2.3444,2.3311,2.3236,2.273,2.2537,2.2527,2.2363,2.236,2.2463,2.2463,2.2487,2.2537,2.2537,2.244,2.2209,2.1733,2.1491,2.1306,2.1055,2.1039,2.1134,2.1322,2.1584,2.1811,2.1988,2.2017,2.2061,2.2268,2.2296,2.2237,2.2017,2.184,2.1568,2.1102,0.0,0.0,0.0,0.0,0.0,2.2382,0.0,2.2018,0.0,2.2082,0.0,0.0,0.0,2.0792,2.1307,2.0756,2.0953,2.2083,0.0,2.1129,2.2443,2.2084,2.2433,2.346,2.3295,2.3355,2.361,2.4007,2.456,2.5187,2.4926,2.4807,2.4807,2.4807,2.4971,2.5187,2.5187,2.5352,2.5615,2.5615,2.5615,2.5674,3.2121,0.0,3.221,0.0,3.1861,3.1501,3.1529,3.1258,3.1026,3.0997,3.1556,3.1213,2.9313,2.8588,2.7915,2.7063,2.6192,2.5673,2.5673,2.5442,2.5326,2.5406,2.5406,0.0,2.5535,2.5481,2.5503,2.5602,2.5567,0.0,0.0,0.0,0.0,0.0,2.3648,2.3879,2.4491,2.4294,2.419,2.417,2.3827,2.3703,2.3639,2.296,2.2708,2.2656,2.2402,2.2349,2.2412,2.2412,2.2537,2.2682,2.2612,2.245,2.2237,2.1899,2.1703,2.1567,2.1415,2.1492,2.1643,2.1779,2.2046,2.2296,2.2296,2.2296,2.2296,2.2296,2.2296,2.2296,2.2296,2.2123,2.1869,2.1643,0.0,0.0,0.0,2.161,0.0,2.2544,2.2476,2.2469,2.2654,2.2427,0.0,0.0,0.0,0.0,2.1645,2.0972,0.0,0.0,0.0,0.0,2.2248,2.2553,2.2793,2.2972,2.3385,2.3595,2.3625,2.45,2.5143,2.5615,2.5809,2.5794,2.5615,2.5615,2.5719,2.5899,2.5899,2.6019,2.6183,2.6183,2.6183,2.6258,3.265,3.2841,3.3069,3.3682,3.377,3.3752,3.3752,3.3975,3.3968,3.3436,3.284,3.1618,2.9354,2.9088,2.8761,2.7953,2.7082,2.6582,2.6582,2.5788,2.5326,0.0,0.0,2.5451,2.5599,2.5479,2.5477,2.5602,0.0,0.0,2.4185,0.0,2.3106,2.3784,2.3449,2.3753,2.4486,2.4284,2.419,2.417,2.3827,2.3703,2.3639,2.296,2.2708,2.2656,2.2402,2.2477,2.2695,2.2695,2.2695,2.266,2.2388,2.231,2.2296,2.2296,2.1957,2.1703,2.2149,2.1943,2.1703,2.218,2.2296,2.2296,2.2296,2.2296,2.2296,2.2296,2.2296,2.2296,2.2296,2.2296,2.2135,2.1673,0.0,0.0,0.0,2.221,0.0,2.2604,2.288,2.3088,2.3088,2.3088,0.0,0.0,0.0,0.0,0.0,0.0,0.0,2.2962,2.1833,0.0,2.355,2.3002,2.3002,2.3595,2.3595,2.3595,2.3655,2.4986,2.56,2.5644,2.6303,2.6213,2.5615,2.5615,2.5989,2.6572,2.6572,2.7001,2.757,2.757,2.757,2.757,3.4154,3.3873,3.3561,3.3765,3.3348,3.304,3.3228,3.3026,3.2637,3.2041,3.195,3.1456,3.0129,2.9467,2.8992,0.0,2.7428,2.6601,0.0,2.5788,2.5326,2.5398,2.5402,2.5441,2.5537,2.5353,2.5282,2.5335,0.0,0.0,0.0,2.4028,2.3796,2.3676,2.3732,2.3842,2.3971,2.4133,2.419,2.419,2.4084,2.4036,2.3996,2.3555,2.338,2.3311,2.2781,2.2621,2.2656,2.2487,2.2426,2.2412,2.2338,2.2296,2.2335,2.2527,2.2337,2.2106,2.2268,2.2194,2.2106,2.2268,2.2296,2.2296,2.2296,2.2296,2.2296,2.2296,2.2296,2.2296,2.2296,2.2296,2.2237,2.2106,2.2194,0.0,2.2354,0.0,2.2567,2.296,2.291,2.2835,2.2835,2.3033,0.0,0.0,0.0,0.0,0.0,0.0,0.0,0.0,2.338,0.0,2.4677,2.4585,2.4413,2.4152,2.4701,2.5196,2.5668,2.6504,2.6914,2.6986,2.7195,2.7165,2.6971,2.6971,2.7091,2.7285,2.7285,2.7405,2.76,2.76,2.76,2.76,3.4912,3.4344,3.3807,3.3807,3.3385,3.3101,3.3278,3.3105,3.2749,3.2157,3.205,3.1712,3.0975,3.0102,0.0,2.9583,2.8332,2.7544,2.7544,2.6442,2.5827,2.5898,2.5576,2.5395,2.5393,2.5251,0.0,2.5051,2.4807,2.4594,2.4425,2.4176,2.3885,2.3568,2.3797,2.3824,2.3714,2.4064,2.419,2.419,2.419,2.419,2.4161,2.3827,2.361,2.3437,2.2898,2.2634,2.251,2.2363,2.2296,2.2352,2.2575,2.2558,2.2463,2.2541,2.25,2.2426,2.2321,2.2296,2.2296,2.2296,2.2296,2.2296,2.2296,2.2296,2.2296,2.2296,2.2296,2.2296,2.2296,2.2388,2.2412,2.2324,2.248,2.2643,2.2682,0.0,2.2862,0.0,0.0,0.0,0.0,2.2691,2.2712,0.0,0.0,0.0,0.0,0.0,2.3421,2.3819,2.4063,2.4647,2.5605,2.5708,2.567,2.5523,2.6032,2.6626,2.7288,2.7434,2.7657,2.7934,2.7685,2.76,2.76,2.76,2.76,2.76,2.76,2.76,2.76,2.76,2.76,2.76,3.5004,3.4344,3.3807,0.0,3.3807,0.0,3.3815,3.4043,3.3986,3.3399,3.2905,3.2344,3.1674,3.0981,3.0538,3.0404,0.0,0.0,0.0,2.7525,2.6632,2.6699,2.5859,2.5321,2.5205,2.5129,2.4966,2.4759,2.4456,2.4265,2.4212,2.3702,2.3451,2.3419,2.3595,2.3671,2.3692,2.4054,2.419,2.419,2.419,2.419,2.417,2.3847,2.3544,2.3242,2.2898,2.259,2.2363,2.2352,2.2324,2.2388,2.2977,2.2972,2.2686,2.244,2.2527,2.2634,2.2374,2.2296,2.2296,2.2296,2.2296,2.2296,2.2296,2.2296,2.2296,2.2296,2.2307,2.2321,2.2321,2.255,2.2647,2.2402,2.2819,2.3105,2.281,2.3277,2.338,0.0,0.0,0.0,2.2268,2.2214,2.2259,0.0,0.0,0.0,0.0,0.0,2.4294,2.3918,2.4262,2.5113,2.6462,2.6487,2.6856,2.7547,2.7524,2.7858,2.8447,2.7935,2.8015,2.8535,2.7919,2.766,2.766,2.7625,2.76,2.76,2.76,2.76,2.76,2.76,2.76,2.76,0.0,0.0,3.3807,3.3807,3.3807,3.3863,3.4062,3.4171,3.3847,3.2848,3.3168,3.2791,3.0905,3.1679,3.1795,3.0519,2.9602,2.9107,2.9107,2.7525,2.6611,2.6622,2.5798,2.5317,2.5278,2.5003,2.4711,2.4336,2.4266,2.3954,2.3465,2.332,2.3028,2.2616,2.3099,2.3323,2.3357,2.3937,2.419,2.419,2.419,2.419,2.419,2.4103,2.4026,2.3917,2.3577,2.3253,2.2958,2.2704,2.2477,2.2363,2.2717,2.2947,2.3069,2.3002,2.2853,2.2634,2.2374,2.2296,2.2296,2.2296,2.2296,2.2296,2.2296,2.2296,2.2296,2.2296,2.2463,2.2612,2.2612,2.2878,2.3057,2.2989,2.3111,2.3247,2.3437,2.3153,2.2972,0.0,2.2721,2.2429,2.2282,2.2268,2.2561,0.0,0.0,2.4858,2.4858,2.6897,2.7444,2.6034,2.6603,2.7387,2.8342,2.8454,2.8651,2.8938,2.8876,2.897,2.9172,2.9502,2.9468,2.9157,2.8543,2.8286,2.8262,2.7785,2.76,2.76,2.76,2.76,2.76,2.76,2.76,2.76,3.4912,3.4344,3.3807,3.3807,3.3807,3.3855,3.3981,3.4123,3.3855,3.2853,3.3251,3.2845,3.0845,3.1551,3.1646,3.0324,3.0253,3.0121,2.9717,2.8467,2.7736,2.7736,2.6948,2.6455,2.6351,2.5787,2.5148,2.4469,2.4238,2.3925,2.357,2.3171,2.2802,2.2487,2.2827,2.2972,2.3009,2.3533,2.3735,2.3735,2.3735,2.3827,2.3976,2.3976,2.3976,2.3955,2.3774,2.3471,2.3165,2.2996,2.2827,2.2734,2.2873,2.3153,2.3403,2.3236,2.3177,2.3063,2.2603,2.2473,2.245,2.2321,2.2296,2.2296,2.2296,2.2296,2.2296,2.2296,2.2514,2.2708,2.2708,2.3105,2.338,2.3224,2.3426,2.3577,2.3471,2.3259,2.3081,2.2984,2.3023,2.2968,2.2815,2.3105,2.3505,2.3969,2.5217,0.0,2.6263,2.8278,2.8683,2.7038,2.8049,2.8902,2.9517,2.9906,3.014,3.023,3.0198,3.0177,3.023,3.0272,3.0123,2.9761,2.8873,2.8487,2.8439,2.786,2.76,2.76,2.76,2.76,2.76,2.76,2.76,2.76,3.4839,3.427,3.3807,3.3807,3.3807,3.3807,3.3807,3.3999,3.3868,3.3099,3.3296,3.2899,3.1261,3.1516,3.1439,3.0456,3.1262,3.1418,3.0462,2.9583,2.9107,2.9107,2.8338,2.7821,2.7657,2.6899,2.5945,2.4804,2.4485,2.4174,2.3912,2.31,2.266,2.2521,2.2521,2.2521,2.253,2.2875,2.2992,2.2992,2.2992,2.3218,2.3537,2.3581,2.3642,2.3703,2.3764,2.3555,2.3259,2.323,2.3165,2.3129,2.3177,2.3392,2.3588,2.3403,2.3555,2.3639,2.296,2.2746,2.2634,2.2377,2.2296,2.2296,2.2296,2.2296,2.2296,2.2296,2.2537,2.2784,2.2784,2.3317,2.3682,2.338,2.3774,2.3917,2.3346,0.0,2.337,2.2928,2.3442,2.3755,2.3575,2.4135,2.4592,2.4812,2.6046,2.7057,2.7678,2.9145,2.9303,2.784,2.9086,2.9919,3.026,3.0886,3.119,3.119,3.119,3.119,3.1171,3.0679,3.0435,3.0356,2.9248,2.8756,2.8709,2.8125,2.7835,2.7735,2.7735,2.7685,2.76,2.76,2.76,2.76,3.4119,3.3899,3.3807,3.3807,3.3807,3.3807,3.3807,3.3842,3.3646,3.3083,3.3634,3.3515,3.208,3.327,3.361,3.2232,3.2271,3.1807,3.0488,2.9583,2.9107,2.9107,2.8338,2.7885,2.7844,2.761,2.6597,2.4804,2.5448,2.5019,2.3568,2.3092,2.2483,2.1759,2.1707,2.1691,2.1703,2.1972,2.2106,2.2106,2.2106,2.2379,2.2805,2.31,2.3406,2.3753,2.4016,2.3907,2.3577,2.33,2.3009,2.2835,2.3105,2.3242,2.338,2.3896,2.4084,2.3986,2.3294,2.2923,2.2634,2.2377,2.2296,2.2296,2.2296,2.2296,2.2296,2.2296,2.2734,2.3117,2.3117,2.3671,2.4084,2.3986,2.4084,2.4026,2.3599,0.0,2.3382,2.3675,2.3565,2.3704,2.4271,2.4423,2.5015,2.6268,2.6899,2.7778,2.9106,3.0723,3.1142,3.011,3.037,3.0693,3.1041,3.114,3.119,3.119,3.119,3.119,3.119,3.1095,3.1055,3.1015,3.0314,3.0021,2.9957,2.9384,2.8826,2.8359,2.8359,2.8042,2.76,2.76,2.76,2.76,3.4509,3.41,3.3807,3.3807,3.3807,3.3807,3.3807,3.3807,3.3713,3.3468,3.3752,3.3574,3.2488,3.3339,3.3554,3.2444,3.2172,3.1794,3.1129,3.0275,2.9794,2.9794,2.9448,2.9025,2.8569,2.8517,2.785,2.6466,2.6657,2.6216,2.5211,2.3957,2.3039,2.2427,2.1601,2.1226,2.1242,2.1393,2.1283,2.0985,2.0985,2.1229,2.1609,2.1987,2.2643,2.3428,2.3798,2.3955,2.3917,2.3577,2.3369,2.32,2.2996,2.3057,2.3247,2.3566,2.366,2.3588,2.3271,2.2857,2.245,2.2321,2.2296,2.2296,2.2296,2.2296,2.2296,2.2296,2.2647,2.2984,2.3165,2.3599,2.3986,2.4141,2.3996,0.0,2.3981,2.3721,2.3701,2.4176,2.4447,2.4712,2.505,2.5812,2.6655,2.7601,2.8573,2.9647,3.0829,3.1767,3.2083,3.1636,3.1197,3.1033,3.121,3.119,3.119,3.119,3.119,3.119,3.119,3.119,3.119,3.1171,3.0559,3.0123,2.9783,2.9518,2.9042,2.8535,2.885,2.8614,2.8091,2.8091,2.7885,2.76,3.5041,3.4344,3.3807,3.3807,3.3807,3.3815,3.3876,3.3842,3.3815,3.3876,3.3842,3.3568,3.2949,3.3255,3.3275,3.271,3.2124,3.1908,3.2166,3.1072,3.0367,3.0311,3.0311,2.9926,2.9127,2.9356,2.8974,2.7895,2.7744,2.729,2.6534,2.4718,2.3622,2.3113,2.1695,2.1017,2.0926,2.0996,2.0655,2.0094,1.9953,2.0119,2.0486,2.0861,2.1703,2.276,2.3343,2.3788,2.4026,2.3692,2.3577,2.3488,2.2885,2.2885,2.3105,2.3177,2.32,2.32,2.32,2.2857,2.2484,2.2338,2.2296,2.2296,2.2296,2.2296,2.2296,2.2296,2.2514,2.2784,2.3033,2.3357,2.3671,2.3907,0.0,2.385,2.4136,2.4128,2.4305,2.4944,2.5507,2.5998,2.6353,2.7401,2.8356,2.8965,3.0057,3.1143,3.2131,3.2392,3.2451,3.235,3.1601,3.119,3.119,3.119,3.119,3.119,3.136,3.1464,3.1464,3.163,3.1613,3.1424,3.097,3.0399,2.9805,2.9805,2.9451,2.8966,2.9271,2.9019,2.8487,2.8343,2.7993,2.76,3.5169,3.4344,3.3807,3.3807,3.3807,3.3876,3.4135,3.3961,3.3889,3.4147,3.3948,3.377,3.3715,3.3755,3.3837,3.4032,3.2828,3.2512,3.3587,3.1615,3.0299,3.0035,3.0028,2.9748,2.9102,2.9955,2.9573,2.7895,2.8494,2.7913,2.6221,2.4764,2.3738,2.3043,2.1833,2.1073,2.072,2.0736,2.038,1.9783,1.9224,1.9254,1.9696,1.9991,2.0639,2.1592,2.2735,2.3406,2.3682,2.3357,2.3242,2.3177,2.2822,2.2721,2.281,2.3105,2.32,2.32,2.32,2.3183,2.2989,2.2443,2.2296,2.2296,2.2296,2.2296,2.2296,2.2296,2.2514,2.2708,2.2733,2.3009,2.3224,2.3177,0.0,0.0,2.388,2.4458,2.5311,2.6402,2.6589,2.7182,2.8604,2.8857,2.9362,3.0456,3.0647,3.1219,3.241,3.2482,3.2316,3.1879,3.143,3.119,3.119,3.119,3.119,3.1207,3.1904,3.2226,3.2242,3.2933,3.2865,3.2226,3.2168,3.1739,3.1055,3.1055,3.0699,3.0123,2.9607,2.9019,2.8415,2.7885,2.765,2.76,3.5973,3.5114,3.438,3.3899,3.3807,3.3829,3.3954,3.3881,3.3842,3.3935,3.385,3.3807,3.3807,3.3948,3.4105,3.4188,3.3406,3.3148,3.3753,3.2012,3.0663,3.0025,2.9885,2.972,2.9475,3.0022,2.994,2.9193,2.9536,2.9202,2.8204,2.6644,2.5522,2.4767,2.3096,2.2158,2.1762,2.1058,2.0427,1.986,1.9232,1.9063,1.9281,1.9633,2.0444,2.1551,2.2447,2.3047,2.3369,2.3236,2.3057,2.2835,2.2541,2.245,2.2541,2.3063,2.32,2.3253,2.3448,2.32,2.2835,2.2599,2.2426,2.2296,2.2296,2.2296,2.2431,2.2885,2.3068,2.3339,2.4009,2.4232,2.4379,2.4561,0.0,2.5011,2.5794,2.599,2.6648,2.8286,2.8492,2.8833,2.9719,3.0224,3.0791,3.1504,3.1983,3.2565,3.3266,3.2793,3.2371,3.2134,3.1528,3.141,3.1887,3.1887,3.2104,3.2577,3.2848,3.2983,3.2983,3.3271,3.3254,3.2949,3.2513,3.1941,3.1333,3.122,3.0838,3.0272,3.0059,2.9585,2.8989,2.8391,2.7919,2.7534,3.6423,3.5404,3.4454,3.3899,3.3807,3.3868,3.4049,3.3986,3.3948,3.4062,3.3986,3.3889,3.382,3.3961,3.4062,3.4062,3.3575,3.3463,3.3895,3.238,3.1018,3.0037,2.9804,2.9705,2.9705,2.9985,3.0081,3.0006,3.0139,2.9952,2.9478,2.7958,2.6891,2.6155,2.4723,2.3623,2.2778,2.2234,2.1428,2.0472,1.985,1.9478,1.9338,1.9816,2.0464,2.1226,2.2307,2.2897,2.323,2.3323,2.32,2.296,2.2673,2.2584,2.266,2.3087,2.32,2.33,2.3753,2.33,2.2708,2.2708,2.2672,2.2649,2.2649,2.2835,2.3139,2.3644,2.3763,2.3973,2.4702,2.4832,2.4962,2.5312,2.5383,2.5845,2.725,2.7321,2.7961,2.9928,3.0037,3.0207,3.0922,3.145,3.1943,3.2419,3.2907,3.3426,3.3962,3.342,3.3089,3.3124,3.2481,3.2502,3.3219,3.2632,3.2564,3.3051,3.3525,3.3744,3.3744,3.3744,3.3744,3.3694,3.2733,3.2072,3.1658,3.1338,3.0975,3.0539,3.0166,2.9761,2.9293,2.8496,2.782,2.7178,3.6352,3.4977,3.382,3.3807,3.382,3.4005,3.4601,3.4412,3.4323,3.4653,3.4401,3.4105,3.3829,3.3807,3.3807,3.3807,3.3303,3.3334,3.4132,3.2695,3.1269,3.006,2.9823,2.9696,2.9705,2.9893,2.9999,2.9999,3.0139,2.9952,2.9468,2.8342,2.7495,2.6905,2.6634,2.5403,2.3578,2.4295,2.3485,2.1665,2.1144,2.0526,2.0002,2.0683,2.0623,2.0468,2.2264,2.3034,2.3247,2.3577,2.3692,2.3649,2.3294,2.32,2.32,2.32,2.32,2.3346,2.4016,2.3477,2.2708,2.2708,2.3065,2.3393,2.341,2.3966,2.4491,2.4508,2.4508,2.4508,2.4508,2.4508,2.466,2.5051,2.5736,2.6632,2.7851,2.8242,2.9181,3.1172,3.0988,3.1184,3.2379,3.2517,3.2697,3.3184,3.3199,3.3542,3.4354,3.439,3.4541,3.4888,3.4454,3.4549,3.5275,3.3308,3.231,3.2344,3.3795,3.4489,3.4489,3.4489,3.4489,3.4404,3.2936,3.2293,3.2242,3.1495,3.119,3.1075,2.987,2.9406,2.9248,2.8027,2.7111,2.651,3.6991,3.6454,3.5684,3.4327,3.4284,3.436,3.4099,3.4135,3.4171,3.4074,3.3992,3.3889,3.382,3.3807,3.3807,3.3807,3.3647,3.3506,3.3359,3.2033,3.1054,3.0652,2.9725,2.9301,2.9503,2.9561,2.9643,2.9788,2.998,3.0086,3.0118,2.9597,2.9326,2.9241,2.8062,2.7137,2.6379,2.5245,2.423,2.3441,2.3116,2.2881,2.2717,2.2879,2.2697,2.2476,2.32,2.3196,2.2935,2.3511,2.3544,2.3335,2.3224,2.32,2.3253,2.3488,2.338,2.3346,2.4016,2.3477,2.2868,2.3626,2.3608,2.3543,2.4051,2.4338,2.4643,2.5169,2.527,2.5423,2.5963,2.6048,2.6194,2.6582,2.7299,2.8219,2.9372,3.0103,3.1046,3.2483,3.2547,3.2714,3.3354,3.3419,3.3462,3.3606,3.3606,3.3603,3.3557,3.4083,3.4525,3.4818,3.473,3.4897,3.5312,3.3816,3.3592,3.4624,3.4539,3.4489,3.4489,3.4489,3.4218,3.3677,3.2733,3.2293,3.2242,3.1495,3.0938,3.0497,2.9695,2.9134,2.8662,2.7894,2.7111,2.6431,3.7745,3.7357,3.6767,3.5593,3.526,3.5084,3.4824,3.4674,3.45,3.4341,3.43,3.4272,3.4172,3.416,3.4099,3.3974,3.3961,3.3771,3.334,3.235,3.1635,3.1268,3.0113,2.9492,2.9513,2.9523,2.9626,2.9821,2.999,3.019,3.0398,3.0516,3.0353,2.9971,2.9565,2.8774,2.7672,2.6812,2.6033,2.5328,2.5263,2.5062,2.478,2.4578,2.4131,2.3621,2.3773,2.3513,2.3177,2.3714,2.3756,2.3566,2.3437,2.35,2.3599,2.3682,2.377,2.3988,2.4521,2.426,2.4059,2.501,2.4538,2.4034,2.4778,2.5168,2.5506,2.5947,2.6048,2.6268,2.7012,2.6894,2.6992,2.784,2.8399,2.9193,3.0492,3.1222,3.2089,3.3285,3.3302,3.3361,3.3762,3.3807,3.3807,3.3807,3.41,3.4316,3.4411,3.5193,3.5706,3.5864,3.6019,3.5865,3.538,3.4273,3.4061,3.4721,3.4573,3.4489,3.4489,3.4489,3.4252,3.3778,3.275,3.2293,3.2242,3.1495,3.0838,3.023,2.9629,2.9019,2.8431,2.7835,2.6956,2.6014,3.8544,3.7888,3.733,3.7158,3.6467,3.6007,3.6147,3.563,3.521,3.5166,3.5242,3.5162,3.4838,3.4807,3.4636,3.4242,3.4144,3.3981,3.3723,3.3185,3.2542,3.1719,3.0766,3.0064,2.9715,2.9661,2.9738,2.9947,3.0094,3.022,3.038,3.1018,3.0739,2.9715,3.0875,3.0126,2.8049,2.8655,2.8217,2.713,2.7294,2.698,2.6326,2.5943,2.5165,2.4301,2.4139,2.3922,2.3746,2.4084,2.419,2.4151,2.3928,2.4057,2.4261,2.4026,2.4476,2.5121,2.5413,2.5565,2.5806,2.6548,2.5736,2.4927,2.5541,2.6218,2.6708,2.6776,2.6793,2.7029,2.7773,2.7368,2.7382,2.8802,2.916,2.9755,3.1188,3.1796,3.252,3.3616,3.3447,3.3408,3.3762,3.3807,3.3807,3.3807,3.4546,3.5316,3.6046,3.6905,3.7364,3.729,3.7653,3.7151,3.5624,3.478,3.4091,3.3571,3.4121,3.4438,3.4489,3.4421,3.4353,3.4218,3.2818,3.2209,3.2158,3.1421,3.076,3.0166,2.9563,2.8966,2.8343,2.781,2.668,2.537,3.912,3.8958,3.8361,3.6775,3.6506,3.619,3.5201,3.5599,3.5967,3.575,3.6327,3.6458,3.5725,3.5639,3.526,3.4279,3.3622,3.3159,3.2884,3.2363,3.1696,3.0911,3.0641,3.0265,2.9715,2.9336,2.928,2.9532,2.972,2.9897,3.0089,3.0497,3.0766,3.0904,3.0608,3.0124,2.948,2.8698,2.7942,2.7299,2.7623,2.7806,2.7788,2.7287,2.6653,2.5948,2.5147,2.4357,2.3746,2.4084,2.419,2.429,2.4864,2.5077,2.5254,2.5806,2.6077,2.6263,2.6316,2.6172,2.6177,2.6919,2.6891,2.6652,2.6503,2.659,2.686,2.7435,2.7553,2.779,2.8586,2.862,2.8713,2.9278,2.9932,3.0584,3.1237,3.226,3.3048,3.3299,3.3536,3.3707,3.3775,3.3807,3.3807,3.3807,3.4546,3.4802,3.4376,3.5752,3.6248,3.5555,3.6856,3.7223,3.6453,3.5883,3.5329,3.4788,3.4002,3.3947,3.4472,3.3897,3.3322,3.2733,3.1836,3.1427,3.139,3.0766,3.0145,2.954,2.8943,2.8319,2.7785,2.765,2.668,2.5231,3.9881,3.9881,3.9427,3.7972,3.7498,3.6941,3.5817,3.6124,3.6452,3.6296,3.6687,3.6747,3.615,3.5752,3.4999,3.3731,3.3362,3.3075,3.281,3.2642,3.2152,3.1211,3.1039,3.0472,2.9394,2.9127,2.9181,2.9533,2.9542,2.9713,3.0013,3.0604,3.0816,3.0682,3.0707,3.0309,2.9529,2.8972,2.8422,2.8018,2.8443,2.8519,2.8278,2.7571,2.6916,2.6211,2.5069,2.4594,2.4551,2.4701,2.5034,2.5419,2.5841,2.597,2.6062,2.6484,2.6869,2.7163,2.7163,2.7321,2.7615,2.82,2.8371,2.8232,2.7648,2.7658,2.791,2.8298,2.8383,2.8602,2.9381,2.9247,2.9222,2.9903,3.0387,3.0836,3.1235,3.2198,3.2999,3.3359,3.3804,3.4308,3.4931,3.4775,3.4477,3.4109,3.5169,3.5299,3.4146,3.6219,3.689,3.5661,3.7221,3.7574,3.6521,3.6165,3.584,3.5516,3.4445,3.4134,3.4489,3.4472,3.3863,3.2797,3.2408,3.185,3.1151,3.0539,2.9935,2.9339,2.8748,2.814,2.76,2.76,2.668,2.5231,4.0496,4.0496,4.0246,3.9438,3.87,3.7873,3.6865,3.6942,3.7084,3.6942,3.7017,3.6934,3.657,3.5568,3.4424,3.3109,3.3318,3.332,3.2764,3.324,3.3002,3.1782,3.1654,3.0925,2.9445,2.928,2.9343,2.9579,2.9455,2.9589,2.9962,3.0761,3.0743,3.0098,3.0811,3.0363,2.9098,2.9104,2.8905,2.8604,2.9044,2.8859,2.8235,2.7438,2.669,2.5952,2.4852,2.4945,2.5613,2.5613,2.6043,2.662,2.6759,2.6814,2.6833,2.6969,2.7475,2.8007,2.8007,2.8491,2.9075,2.9419,2.9646,2.9641,2.8969,2.8973,2.9118,2.918,2.9196,2.9397,3.0159,2.9786,2.9662,3.0572,3.0748,3.0942,3.1407,3.2105,3.286,3.36,3.4151,3.4875,3.5921,3.5612,3.5114,3.4499,3.5759,3.599,3.4663,3.6984,3.7732,3.634,3.7734,3.7845,3.6505,3.6389,3.6291,3.6237,3.5283,3.4783,3.4692,3.5199,3.467,3.3406,3.3271,3.2442,3.1151,3.0539,3.0016,2.9473,2.8779,2.8189,2.7735,2.7509,2.6654,2.5481,4.0496,4.0496,4.0246,3.9438,3.9207,3.8584,3.6942,3.7988,3.8681,3.7911,3.829,3.8304,3.7515,3.5572,3.3956,3.3075,3.3675,3.3385,3.1722,3.3182,3.3299,3.1538,3.2089,3.2008,3.1103,3.0393,2.9731,2.9082,2.9299,2.9523,2.9746,3.0215,3.0392,3.0351,3.0408,2.9944,2.9074,2.8563,2.8221,2.8038,2.8336,2.8289,2.8005,2.7472,2.6789,2.6047,2.5629,2.591,2.6447,2.6447,2.6521,2.6722,2.742,2.764,2.7769,2.8473,2.8748,2.884,2.884,2.8932,2.9012,2.9057,2.988,3.0606,3.0507,2.9973,2.961,2.9897,2.9956,3.0176,3.092,3.097,3.0939,3.1101,3.1118,3.1378,3.2066,3.2607,3.3217,3.3942,3.439,3.473,3.4888,3.4854,3.4765,3.4659,3.5492,3.5829,3.5373,3.6392,3.6765,3.6307,3.7199,3.7566,3.7345,3.7537,3.7645,3.7628,3.6628,3.59,3.543,3.4895,3.4184,3.3372,3.2733,3.1972,3.1151,3.0539,3.0251,3.0081,2.8943,2.8439,2.8247,2.7071,2.6537,2.6256,4.0496,4.0496,4.0246,3.9438,3.9304,3.8873,3.7623,3.8488,3.8996,3.8104,3.8093,3.7775,3.6758,3.5049,3.3641,3.2847,3.3245,3.3169,3.2358,3.3064,3.315,3.2327,3.2495,3.2228,3.1415,3.0613,3.0026,2.9666,2.9344,2.9291,2.9533,2.9838,2.9996,3.0072,3.0103,2.978,2.9195,2.8844,2.856,2.837,2.8641,2.8465,2.8037,2.7837,2.7275,2.6507,2.5782,2.5703,2.5988,2.6447,2.6906,2.7402,2.8227,2.8473,2.8528,2.8895,2.9005,2.9097,2.9537,2.9666,2.9886,3.0785,3.1422,3.1869,3.2076,3.1867,3.1498,3.1126,3.1198,3.143,3.1752,3.1819,3.1819,3.1819,3.1819,3.1938,3.2259,3.2477,3.299,3.4021,3.5031,3.5771,3.6073,3.5829,3.5481,3.5063,3.5762,3.5752,3.4764,3.6414,3.7112,3.6544,3.7595,3.8175,3.8175,3.7985,3.7893,3.7894,3.6884,3.6287,3.6032,3.5399,3.4506,3.3389,3.3051,3.2256,3.1151,3.0539,3.0293,3.0208,2.9339,2.8803,2.8415,2.7839,2.7133,2.6457]}]]